[[{"header":{"parameterUnit":"m.s-1","parameterCategory":1,"la1":30.6,"la2":28.766,"lo1":-90.7593,"lo2":-88.6598,"dy":0.0162,"dx":0.0183,"nx":116,"ny":114,"refTime":"2024-06-19T12:00:00:Z","depth":0,"parameterNumber":2,"parameterNumberName":"U-component_of_WINDS"},"data":[0.0,0.0,0.0,0.0,0.0,0.0,0.0,0.0,0.0,0.0,0.0,0.0,0.0,0.0,0.0,0.0,0.0,0.0,0.0,0.0,0.0,0.0,0.0,0.0,0.0,0.0,0.0,0.0,0.0,0.0,0.0,0.0,0.0,0.0,0.0,0.0,0.0,0.0,0.0,0.0,0.0,0.0,0.0,0.0,0.0,0.0,0.0,0.0,0.0,0.0,0.0,0.0,0.0,0.0,0.0,0.0,0.0,0.0,0.0,0.0,0.0,0.0,0.0,0.0,0.0,0.0,0.0,0.0,0.0,0.0,0.0,0.0,0.0,0.0,0.0,0.0,0.0,0.0,0.0,0.0,0.0,0.0,0.0,0.0,0.0,0.0,0.0,0.0,0.0,0.0,0.0,0.0,0.0,0.0,0.0,0.0,0.0,0.0,0.0,0.0,0.0,0.0,0.0,0.0,0.0,0.0,0.0,0.0,0.0,0.0,0.0,0.0,0.0,0.0,0.0,0.0,0.0,0.0,0.0,0.0,0.0,0.0,0.0,0.0,0.0,0.0,0.0,0.0,0.0,0.0,0.0,0.0,0.0,0.0,0.0,0.0,0.0,0.0,0.0,0.0,0.0,0.0,0.0,0.0,0.0,0.0,0.0,0.0,0.0,0.0,0.0,0.0,0.0,0.0,0.0,0.0,0.0,0.0,0.0,0.0,0.0,0.0,0.0,0.0,0.0,0.0,0.0,0.0,0.0,0.0,0.0,0.0,0.0,0.0,0.0,0.0,0.0,0.0,0.0,0.0,0.0,0.0,0.0,0.0,0.0,0.0,0.0,0.0,0.0,0.0,0.0,0.0,0.0,0.0,0.0,0.0,0.0,0.0,0.0,0.0,0.0,0.0,0.0,0.0,0.0,0.0,0.0,0.0,0.0,0.0,0.0,0.0,0.0,0.0,0.0,0.0,0.0,0.0,0.0,0.0,0.0,0.0,0.0,0.0,0.0,0.0,0.0,0.0,0.0,0.0,0.0,0.0,0.0,0.0,0.0,0.0,0.0,0.0,0.0,0.0,0.0,0.0,0.0,0.0,0.0,0.0,0.0,0.0,0.0,0.0,0.0,0.0,0.0,0.0,0.0,0.0,0.0,0.0,0.0,0.0,0.0,0.0,0.0,0.0,0.0,0.0,0.0,0.0,0.0,0.0,0.0,0.0,0.0,0.0,0.0,0.0,0.0,0.0,0.0,0.0,0.0,0.0,0.0,0.0,0.0,0.0,0.0,0.0,0.0,0.0,0.0,0.0,0.0,0.0,0.0,0.0,0.0,0.0,0.0,0.0,0.0,0.0,0.0,0.0,0.0,0.0,0.0,0.0,0.0,0.0,0.0,0.0,0.0,0.0,0.0,0.0,0.0,0.0,0.0,0.0,0.0,0.0,0.0,0.0,0.0,0.0,0.0,0.0,0.0,0.0,0.0,0.0,0.0,0.0,0.0,0.0,0.0,0.0,0.0,0.0,0.0,0.0,0.0,0.0,0.0,0.0,0.0,0.0,0.0,0.0,0.0,0.0,0.0,0.0,0.0,0.0,0.0,0.0,0.0,0.0,0.0,0.0,0.0,0.0,0.0,0.0,0.0,0.0,0.0,0.0,0.0,0.0,0.0,0.0,0.0,0.0,0.0,0.0,0.0,0.0,0.0,0.0,0.0,0.0,0.0,0.0,0.0,0.0,0.0,0.0,0.0,0.0,0.0,0.0,0.0,0.0,0.0,0.0,0.0,0.0,0.0,0.0,0.0,0.0,0.0,0.0,0.0,0.0,0.0,0.0,0.0,0.0,0.0,0.0,0.0,0.0,0.0,0.0,0.0,0.0,0.0,0.0,0.0,0.0,0.0,0.0,0.0,0.0,0.0,0.0,0.0,0.0,0.0,0.0,0.0,0.0,0.0,0.0,0.0,0.0,0.0,0.0,0.0,0.0,0.0,0.0,0.0,0.0,0.0,0.0,0.0,0.0,0.0,0.0,0.0,0.0,0.0,0.0,0.0,0.0,0.0,0.0,0.0,0.0,0.0,0.0,0.0,0.0,0.0,0.0,0.0,0.0,0.0,0.0,0.0,0.0,0.0,0.0,0.0,0.0,0.0,0.0,0.0,0.0,0.0,0.0,0.0,0.0,0.0,0.0,0.0,0.0,0.0,0.0,0.0,0.0,0.0,0.0,0.0,0.0,0.0,0.0,0.0,0.0,0.0,0.0,0.0,0.0,0.0,0.0,0.0,0.0,0.0,0.0,0.0,0.0,0.0,0.0,0.0,0.0,0.0,0.0,0.0,0.0,0.0,0.0,0.0,0.0,0.0,0.0,0.0,0.0,0.0,0.0,0.0,0.0,0.0,0.0,0.0,0.0,0.0,0.0,0.0,0.0,0.0,0.0,0.0,0.0,0.0,0.0,0.0,0.0,0.0,0.0,0.0,0.0,0.0,0.0,0.0,0.0,0.0,0.0,0.0,0.0,0.0,0.0,0.0,0.0,0.0,0.0,0.0,0.0,0.0,0.0,0.0,0.0,0.0,0.0,0.0,0.0,0.0,0.0,0.0,0.0,0.0,0.0,0.0,0.0,0.0,0.0,0.0,0.0,0.0,0.0,0.0,0.0,0.0,0.0,0.0,0.0,0.0,0.0,0.0,0.0,0.0,0.0,0.0,0.0,0.0,0.0,0.0,0.0,0.0,0.0,0.0,0.0,0.0,0.0,0.0,0.0,0.0,0.0,0.0,0.0,0.0,0.0,0.0,0.0,0.0,0.0,0.0,0.0,0.0,0.0,0.0,0.0,0.0,0.0,0.0,0.0,0.0,0.0,0.0,0.0,0.0,0.0,0.0,0.0,0.0,0.0,0.0,0.0,0.0,0.0,0.0,0.0,0.0,0.0,0.0,0.0,0.0,0.0,0.0,0.0,0.0,0.0,0.0,0.0,0.0,0.0,0.0,0.0,0.0,0.0,0.0,0.0,0.0,0.0,0.0,0.0,0.0,0.0,0.0,0.0,0.0,0.0,0.0,0.0,0.0,0.0,0.0,0.0,0.0,0.0,0.0,0.0,0.0,0.0,0.0,0.0,0.0,0.0,0.0,0.0,0.0,0.0,0.0,0.0,0.0,0.0,0.0,0.0,0.0,0.0,0.0,0.0,0.0,0.0,0.0,0.0,0.0,0.0,0.0,0.0,0.0,0.0,0.0,0.0,0.0,0.0,0.0,0.0,0.0,0.0,0.0,0.0,0.0,0.0,0.0,0.0,0.0,0.0,0.0,0.0,0.0,0.0,0.0,0.0,0.0,0.0,0.0,0.0,0.0,0.0,0.0,0.0,0.0,0.0,0.0,0.0,0.0,0.0,0.0,0.0,0.0,0.0,0.0,0.0,0.0,0.0,0.0,0.0,0.0,0.0,0.0,0.0,0.0,0.0,0.0,0.0,0.0,0.0,0.0,0.0,0.0,0.0,0.0,0.0,0.0,0.0,0.0,0.0,0.0,0.0,0.0,0.0,0.0,0.0,0.0,0.0,0.0,0.0,0.0,0.0,0.0,0.0,0.0,0.0,0.0,0.0,0.0,0.0,0.0,0.0,0.0,0.0,0.0,0.0,0.0,0.0,0.0,0.0,0.0,0.0,0.0,0.0,0.0,0.0,0.0,0.0,0.0,0.0,0.0,0.0,0.0,0.0,0.0,0.0,0.0,0.0,0.0,0.0,0.0,0.0,0.0,0.0,0.0,0.0,0.0,0.0,0.0,0.0,0.0,0.0,0.0,0.0,0.0,0.0,0.0,0.0,0.0,0.0,0.0,0.0,0.0,0.0,0.0,0.0,0.0,0.0,0.0,0.0,0.0,0.0,0.0,0.0,0.0,0.0,0.0,0.0,0.0,0.0,0.0,0.0,0.0,0.0,0.0,0.0,0.0,0.0,0.0,0.0,0.0,0.0,0.0,0.0,0.0,0.0,0.0,0.0,0.0,0.0,0.0,0.0,0.0,0.0,0.0,0.0,0.0,0.0,0.0,0.0,0.0,0.0,0.0,0.0,0.0,0.0,0.0,0.0,0.0,0.0,0.0,0.0,0.0,0.0,0.0,0.0,0.0,0.0,0.0,0.0,0.0,0.0,0.0,0.0,0.0,0.0,0.0,0.0,0.0,0.0,0.0,0.0,0.0,0.0,0.0,0.0,0.0,0.0,0.0,0.0,0.0,0.0,0.0,0.0,0.0,0.0,0.0,0.0,0.0,0.0,0.0,0.0,0.0,0.0,0.0,0.0,0.0,0.0,0.0,0.0,0.0,0.0,0.0,0.0,0.0,0.0,0.0,0.0,0.0,0.0,0.0,0.0,0.0,0.0,0.0,0.0,0.0,0.0,0.0,0.0,0.0,0.0,0.0,0.0,0.0,0.0,0.0,0.0,0.0,0.0,0.0,0.0,0.0,0.0,0.0,0.0,0.0,0.0,0.0,0.0,0.0,0.0,0.0,0.0,0.0,0.0,0.0,0.0,0.0,0.0,0.0,0.0,0.0,0.0,0.0,0.0,0.0,0.0,0.0,0.0,0.0,0.0,0.0,0.0,0.0,0.0,0.0,0.0,0.0,0.0,0.0,0.0,0.0,0.0,0.0,0.0,0.0,0.0,0.0,0.0,0.0,0.0,0.0,0.0,0.0,0.0,0.0,0.0,0.0,0.0,0.0,0.0,0.0,0.0,0.0,0.0,0.0,0.0,0.0,0.0,0.0,0.0,0.0,0.0,0.0,0.0,0.0,0.0,0.0,0.0,0.0,0.0,0.0,0.0,0.0,0.0,0.0,0.0,0.0,0.0,0.0,0.0,0.0,0.0,0.0,0.0,0.0,0.0,0.0,0.0,0.0,0.0,0.0,0.0,0.0,0.0,0.0,0.0,0.0,0.0,0.0,0.0,0.0,0.0,0.0,0.0,0.0,0.0,0.0,0.0,0.0,0.0,0.0,0.0,0.0,0.0,0.0,0.0,0.0,0.0,0.0,0.0,0.0,0.0,0.0,0.0,0.0,0.0,0.0,0.0,0.0,0.0,0.0,0.0,0.0,0.0,0.0,0.0,0.0,0.0,0.0,0.0,0.0,0.0,0.0,0.0,0.0,0.0,0.0,0.0,0.0,0.0,0.0,0.0,0.0,0.0,0.0,0.0,0.0,0.0,0.0,0.0,0.0,0.0,0.0,0.0,0.0,0.0,0.0,0.0,0.0,0.0,0.0,0.0,0.0,0.0,0.0,0.0,0.0,0.0,0.0,0.0,0.0,0.0,0.0,0.0,0.0,0.0,0.0,0.0,0.0,0.0,0.0,0.0,0.0,0.0,0.0,0.0,0.0,0.0,0.0,0.0,0.0,0.0,0.0,0.0,0.0,0.0,0.0,0.0,0.0,0.0,0.0,0.0,0.0,0.0,0.0,0.0,0.0,0.0,0.0,0.0,0.0,0.0,0.0,0.0,0.0,0.0,0.0,0.0,0.0,0.0,0.0,0.0,0.0,0.0,0.0,0.0,0.0,0.0,0.0,0.0,0.0,0.0,0.0,0.0,0.0,0.0,0.0,0.0,0.0,0.0,0.0,0.0,0.0,0.0,0.0,0.0,0.0,0.0,0.0,0.0,0.0,0.0,0.0,0.0,0.0,0.0,0.0,0.0,0.0,0.0,0.0,0.0,0.0,0.0,0.0,0.0,0.0,0.0,0.0,0.0,0.0,0.0,0.0,0.0,0.0,0.0,0.0,0.0,0.0,0.0,0.0,0.0,0.0,0.0,0.0,0.0,0.0,0.0,0.0,0.0,0.0,0.0,0.0,0.0,0.0,0.0,0.0,0.0,0.0,0.0,0.0,0.0,0.0,0.0,0.0,0.0,0.0,0.0,0.0,0.0,0.0,0.0,0.0,0.0,0.0,0.0,0.0,0.0,0.0,0.0,0.0,0.0,0.0,0.0,0.0,0.0,0.0,0.0,0.0,0.0,0.0,0.0,0.0,0.0,0.0,0.0,0.0,0.0,0.0,0.0,0.0,0.0,0.0,0.0,0.0,0.0,0.0,0.0,0.0,0.0,0.0,0.0,0.0,0.0,0.0,0.0,-4.6279,-4.623,0.0,0.0,0.0,0.0,0.0,0.0,0.0,0.0,0.0,0.0,0.0,0.0,0.0,0.0,0.0,0.0,0.0,0.0,0.0,0.0,0.0,0.0,0.0,-2.5255,-2.6045,-2.6804,-2.7645,-2.8324,-2.8779,-2.845,-2.8077,-2.7724,-2.7303,-2.6918,-2.6583,-2.6151,-2.596,-2.5991,-2.5993,-2.6209,-2.6678,-2.739,-2.8129,-2.8815,0.0,0.0,0.0,0.0,0.0,0.0,0.0,0.0,0.0,0.0,0.0,0.0,0.0,0.0,0.0,0.0,0.0,0.0,0.0,0.0,0.0,0.0,0.0,0.0,0.0,0.0,0.0,0.0,0.0,0.0,0.0,0.0,0.0,0.0,0.0,0.0,0.0,0.0,0.0,0.0,0.0,0.0,0.0,0.0,0.0,0.0,0.0,0.0,0.0,0.0,0.0,0.0,0.0,0.0,0.0,0.0,0.0,0.0,0.0,0.0,0.0,0.0,0.0,0.0,0.0,0.0,0.0,0.0,0.0,0.0,-4.6481,-4.6269,0.0,0.0,0.0,0.0,0.0,0.0,0.0,0.0,0.0,0.0,0.0,0.0,0.0,0.0,0.0,0.0,0.0,0.0,0.0,0.0,0.0,-2.4077,-2.466,-2.5563,-2.6393,-2.7031,-2.7982,-2.8536,-2.8536,-2.8549,-2.8272,-2.7598,-2.758,-2.726,-2.6597,-2.6441,-2.6392,-2.6457,-2.6457,-2.6943,-2.7837,-2.804,-2.8341,-2.8739,-2.8745,0.0,0.0,0.0,0.0,0.0,0.0,0.0,0.0,0.0,0.0,0.0,0.0,0.0,0.0,0.0,0.0,0.0,0.0,0.0,0.0,0.0,0.0,0.0,0.0,0.0,0.0,0.0,0.0,0.0,0.0,0.0,0.0,0.0,0.0,0.0,0.0,0.0,0.0,0.0,0.0,0.0,0.0,0.0,0.0,0.0,0.0,0.0,0.0,0.0,0.0,0.0,0.0,0.0,0.0,0.0,0.0,0.0,0.0,0.0,0.0,0.0,0.0,0.0,-4.8555,-4.8906,-4.8887,-4.8144,-4.7734,-4.7558,-4.6835,-4.6419,-4.6202,-4.6153,0.0,0.0,0.0,0.0,0.0,0.0,0.0,0.0,0.0,0.0,0.0,0.0,0.0,0.0,0.0,0.0,0.0,0.0,0.0,-2.3642,-2.3685,-2.4992,-2.5849,-2.5841,-2.7317,-2.8242,-2.8242,-2.8362,-2.8373,-2.8265,-2.8265,-2.8211,-2.8103,-2.743,-2.707,-2.707,-2.707,-2.7534,-2.8393,-2.8543,-2.8697,-2.8853,-2.8642,-2.8523,-2.8446,0.0,0.0,0.0,0.0,0.0,0.0,0.0,0.0,0.0,0.0,0.0,0.0,0.0,0.0,0.0,0.0,0.0,0.0,0.0,0.0,0.0,0.0,0.0,0.0,0.0,0.0,0.0,0.0,0.0,0.0,0.0,0.0,0.0,0.0,0.0,0.0,0.0,0.0,0.0,0.0,0.0,-4.1797,-4.2903,0.0,0.0,0.0,0.0,0.0,0.0,0.0,0.0,0.0,0.0,0.0,0.0,0.0,-4.7789,-4.8553,-4.8672,-4.873,-4.873,-4.8848,-4.8906,-4.8906,-4.8789,-4.832,-4.7598,-4.748,0.0,-4.629,-4.6206,0.0,0.0,0.0,0.0,0.0,0.0,0.0,0.0,0.0,0.0,0.0,0.0,0.0,0.0,0.0,0.0,0.0,0.0,0.0,0.0,0.0,-2.4813,-2.5631,-2.602,-2.713,-2.7806,-2.7806,-2.7864,-2.789,-2.789,-2.789,-2.789,-2.789,-2.7558,-2.7367,-2.7367,-2.7367,-2.7596,-2.8059,-2.8192,-2.8373,-2.8621,-2.8651,-2.8827,-2.9049,-2.8353,0.0,0.0,0.0,0.0,0.0,0.0,0.0,0.0,0.0,0.0,0.0,0.0,0.0,0.0,0.0,0.0,0.0,0.0,0.0,0.0,0.0,0.0,0.0,0.0,0.0,0.0,0.0,0.0,0.0,0.0,0.0,0.0,0.0,0.0,0.0,0.0,0.0,0.0,0.0,-4.1235,-4.2903,-4.3771,-4.389,-4.3956,0.0,0.0,0.0,0.0,0.0,0.0,0.0,0.0,0.0,-4.8198,-4.8255,-4.8486,-4.8904,-4.9394,-4.9629,-4.9648,-5.0098,-5.0312,-5.0293,-4.9844,-4.916,-4.8301,-4.7812,-4.7108,-4.6282,-4.6236,-4.6178,-4.6107,0.0,0.0,0.0,0.0,-4.5522,-4.5136,0.0,0.0,0.0,0.0,0.0,0.0,0.0,0.0,0.0,0.0,0.0,0.0,-2.3565,-2.4296,-2.5029,-2.5762,-2.6536,-2.707,-2.7227,-2.7277,-2.7293,-2.7293,-2.7308,-2.7324,-2.7324,-2.7371,-2.7419,-2.7417,-2.7417,-2.7478,-2.7582,-2.7728,-2.7943,-2.821,-2.8487,-2.8883,-2.9331,-2.883,-2.8584,-2.8391,0.0,0.0,0.0,0.0,0.0,0.0,0.0,0.0,0.0,0.0,0.0,0.0,0.0,0.0,0.0,0.0,0.0,0.0,0.0,0.0,0.0,0.0,0.0,0.0,0.0,0.0,0.0,0.0,0.0,0.0,0.0,0.0,0.0,0.0,0.0,0.0,0.0,-4.245,-4.3737,-4.4598,-4.4707,-4.477,0.0,0.0,0.0,0.0,0.0,0.0,-4.7616,-4.7693,-4.8109,-4.8984,-4.9089,-4.9256,-4.9546,-5.0175,-5.0508,-5.0508,-5.1113,-5.1406,-5.1387,-5.0781,-5.0039,-4.918,-4.8301,-4.7441,-4.662,-4.6334,-4.6218,-4.6192,-4.6087,-4.6002,-4.5944,-4.5898,-4.5808,-4.5761,0.0,0.0,0.0,0.0,0.0,0.0,0.0,0.0,0.0,0.0,0.0,-2.2552,-2.2329,-2.3008,-2.3714,-2.4256,-2.5091,-2.5864,-2.6506,-2.6674,-2.6741,-2.6741,-2.6808,-2.6841,-2.6841,-2.7021,-2.7149,-2.7213,-2.7213,-2.7213,-2.7228,-2.7417,-2.7554,-2.7644,-2.7915,-2.8412,-2.9048,-2.9193,-2.8844,-2.8213,-2.8276,0.0,0.0,0.0,0.0,0.0,0.0,0.0,0.0,0.0,0.0,0.0,0.0,0.0,0.0,0.0,0.0,0.0,0.0,0.0,0.0,0.0,0.0,0.0,0.0,0.0,0.0,0.0,0.0,0.0,0.0,0.0,0.0,0.0,0.0,0.0,0.0,0.0,0.0,-4.5441,-4.5599,0.0,0.0,0.0,0.0,-4.6919,-4.7088,-4.7495,-4.8309,-4.8468,-4.8937,-4.9814,-4.9972,-5.0434,-5.1273,-5.1326,-5.1348,-5.1348,-5.1387,-5.1406,-5.1406,-5.1367,-5.0898,-5.0098,-4.9219,-4.834,-4.7461,-4.6637,-4.6255,-4.62,-4.6186,-4.6156,-4.6087,-4.6083,-4.6002,-4.5886,0.0,0.0,0.0,-1.9935,-1.9886,-2.0036,-2.0361,-2.0945,-2.157,-2.221,-2.22,-2.2073,-2.1899,-2.2518,-2.3037,-2.3223,-2.395,-2.4497,-2.4746,-2.4813,-2.5046,-2.5461,-2.5494,-2.5762,-2.6279,-2.6487,-2.659,-2.6624,-2.6284,-2.6128,-2.6159,-2.5886,-2.5828,-2.5961,-2.6693,-2.7213,-2.7577,-2.8524,-2.8864,-2.8743,-2.8299,-2.7858,0.0,0.0,0.0,0.0,0.0,0.0,0.0,0.0,0.0,0.0,0.0,0.0,0.0,0.0,0.0,0.0,0.0,0.0,0.0,0.0,0.0,0.0,0.0,0.0,0.0,0.0,0.0,0.0,0.0,0.0,0.0,0.0,0.0,0.0,0.0,0.0,0.0,-4.5498,-4.6123,0.0,-4.648,-4.6995,-4.748,-4.7851,-4.789,-4.8272,-4.9137,-4.9251,-5.0007,-5.1522,-5.1112,-5.1306,-5.2236,-5.1678,-5.1406,-5.1406,-5.1406,-5.1406,-5.1406,-5.1406,-5.0957,-5.0156,-4.9277,-4.8418,-4.7539,-4.666,-4.6286,-4.6261,-4.6251,-4.6212,-4.6162,-4.6118,-4.6041,-4.5958,-2.0676,-2.0165,0.0,-1.9343,-1.9512,-1.9832,-2.0157,-2.0925,-2.1585,-2.1917,-2.1823,-2.1661,-2.1448,-2.1809,-2.2135,-2.2312,-2.2765,-2.3154,-2.3379,-2.3395,-2.3589,-2.4042,-2.4338,-2.4933,-2.5848,-2.601,-2.5986,-2.5843,-2.5514,-2.5295,-2.514,-2.4839,-2.4767,-2.4898,-2.5634,-2.617,-2.6588,-2.7558,-2.8328,-2.8862,-2.8404,-2.8146,-2.7937,0.0,0.0,0.0,0.0,0.0,0.0,0.0,0.0,0.0,0.0,0.0,0.0,0.0,0.0,0.0,0.0,0.0,0.0,0.0,0.0,0.0,0.0,0.0,0.0,0.0,0.0,0.0,0.0,0.0,0.0,0.0,0.0,0.0,0.0,-4.453,-4.4934,-4.5537,-4.6374,-4.6903,-4.6891,-4.767,-4.8312,-4.8654,-4.8675,-4.9059,-4.9925,-5.0333,-5.1133,-5.2435,-5.2286,-5.2357,-5.2703,-5.2128,-5.1699,-5.1406,-5.1406,-5.1406,-5.1406,-5.1406,-5.1113,-5.0547,-4.9394,-4.8574,-4.7949,-4.6777,-4.6308,-4.6307,-4.6304,-4.6277,-4.6223,-4.615,-4.6114,-4.6051,-1.9132,-1.8931,-1.8732,-1.8524,-1.9496,-2.0226,-2.0027,-2.1143,-2.1911,-2.1708,-2.151,-2.1261,-2.0926,-2.0828,-2.0979,-2.1514,-2.1561,-2.1842,-2.2501,-2.2532,-2.2532,-2.2564,-2.339,-2.4369,-2.5486,-2.5521,-2.5293,-2.484,-2.4959,-2.4747,-2.4257,-2.4363,-2.4454,-2.4545,-2.4758,-2.5333,-2.6123,-2.635,-2.7217,-2.8443,-2.8619,-2.8251,-2.7616,0.0,0.0,0.0,0.0,0.0,0.0,0.0,0.0,0.0,0.0,0.0,0.0,0.0,0.0,0.0,0.0,0.0,0.0,0.0,0.0,0.0,0.0,0.0,0.0,0.0,0.0,0.0,0.0,0.0,0.0,0.0,0.0,0.0,-4.4287,-4.4995,-4.5513,-4.5586,-4.6394,-4.6942,-4.6942,-4.7702,-4.8529,-4.9375,-4.9433,-4.9807,-5.0663,-5.1653,-5.2267,-5.2432,-5.3366,-5.3504,-5.2754,-5.2693,-5.2246,-5.1406,-5.1406,-5.1406,-5.1406,-5.1406,-5.1406,-5.1308,-4.9629,-4.8906,-4.8769,-4.7012,-4.6308,-4.6308,-4.6308,-4.6308,-4.6286,-4.6233,-4.6201,-4.6164,-1.9042,-1.8825,-1.8584,-1.8338,-1.9327,-2.0107,-1.9938,-2.098,-2.1706,-2.1509,-2.1166,-2.086,-2.0629,-2.051,-2.0502,-2.0653,-2.0651,-2.0746,-2.0916,-2.0932,-2.1164,-2.1641,-2.244,-2.3023,-2.3358,-2.3546,-2.3633,-2.3582,-2.3339,-2.321,-2.3189,-2.2854,-2.2752,-2.2893,-2.3578,-2.4047,-2.4368,-2.5095,-2.5958,-2.6922,-2.7924,-2.827,-2.8169,0.0,0.0,0.0,0.0,0.0,0.0,0.0,0.0,0.0,0.0,0.0,0.0,0.0,0.0,0.0,0.0,0.0,0.0,0.0,0.0,0.0,0.0,0.0,0.0,0.0,0.0,0.0,0.0,0.0,0.0,0.0,-4.3221,-4.3808,-4.4801,-4.5227,-4.5448,-4.5513,-4.6856,-4.7778,-4.7778,-4.9106,-5.0067,-5.0327,-5.0346,-5.0481,-5.0756,-5.1689,-5.2552,-5.3316,-5.308,-5.3178,-5.3632,-5.2398,-5.164,-5.1406,-5.1406,-5.1406,-5.1406,-5.1406,-5.1406,-5.1308,-4.9629,-4.8906,-4.8769,-4.7012,-4.6308,-4.6308,-4.6308,-4.6308,-4.6306,-4.6281,-4.621,-4.6114,-1.8974,-1.8761,-1.8604,-1.8655,-1.9463,-2.0149,-2.027,-2.1069,-2.1573,-2.1309,-2.0909,-2.0595,-2.0357,-2.0185,-2.008,-2.0045,-2.0045,-2.0045,-2.0045,-2.0045,-2.0368,-2.1106,-2.1578,-2.1993,-2.2362,-2.2531,-2.2559,-2.2473,-2.2286,-2.2199,-2.2179,-2.1981,-2.1974,-2.2137,-2.269,-2.3175,-2.3579,-2.4141,-2.4861,-2.5752,-2.6839,-2.7579,-2.8017,-2.8017,-2.8017,-2.7964,-2.7493,-2.7514,-2.7798,-2.7798,0.0,0.0,0.0,0.0,0.0,0.0,0.0,0.0,0.0,0.0,0.0,0.0,0.0,0.0,0.0,0.0,0.0,0.0,0.0,0.0,0.0,0.0,0.0,0.0,-4.3409,-4.4043,-4.4842,-4.5159,-4.5352,-4.5485,-4.7039,-4.8105,-4.8105,-4.9683,-5.0712,-5.0712,-5.0712,-5.0721,-5.0766,-5.1653,-5.2446,-5.3098,-5.3108,-5.3192,-5.3405,-5.2448,-5.1755,-5.1406,-5.1406,-5.1406,-5.1406,-5.1406,-5.1211,-5.082,-4.9473,-4.8691,-4.8242,-4.6875,-4.6308,0.0,0.0,0.0,0.0,0.0,-4.6222,-4.6125,-1.9039,-1.8929,-1.8959,-1.9351,-1.9845,-2.0347,-2.0747,-2.1248,-2.145,-2.1119,-2.0728,-2.0375,-2.0115,-1.9904,-1.9762,-1.9708,-1.9708,-1.9708,-1.9708,-1.9708,-2.0029,-2.0737,-2.0768,-2.1133,-2.19,-2.1931,-2.1759,-2.1412,-2.1555,-2.1513,-2.1246,-2.1526,-2.1766,-2.1984,-2.2137,-2.2623,-2.3359,-2.3359,-2.3938,-2.4905,-2.5577,-2.6437,-2.7359,-2.743,-2.7465,-2.7465,-2.7465,-2.7952,-2.8595,-2.8595,0.0,0.0,0.0,0.0,0.0,0.0,0.0,0.0,0.0,0.0,0.0,0.0,0.0,0.0,0.0,0.0,0.0,0.0,0.0,0.0,0.0,0.0,0.0,0.0,-4.3681,-4.4397,-4.4565,-4.4929,-4.5251,-4.5467,-4.6953,-4.8009,-4.8086,-4.9586,-5.0596,-5.0693,-5.0712,-5.0712,-5.0692,-5.1582,0.0,0.0,0.0,-5.3303,-5.2595,-5.2565,-5.2154,-5.1403,-5.1404,-5.1346,-5.125,-5.125,-5.0801,-5.0,-4.9121,-4.8301,-4.7539,-4.666,-4.6308,-4.6308,-4.6308,-4.6308,-4.6308,-4.6305,-4.6254,-4.6208,-1.9735,-2.0029,-2.0244,-2.013,-2.0505,-2.0827,-2.08,-2.1113,-2.1262,-2.099,-2.0595,-2.0252,-2.0043,-1.9833,-1.9708,-1.9708,-1.9708,-1.9708,-1.9708,-1.9708,-1.9768,-1.9939,-1.9921,-2.0017,-2.0173,-2.0243,-2.0273,-2.0312,-2.0543,-2.0754,-2.0909,-2.1277,-2.1586,-2.184,-2.208,-2.2324,-2.2527,-2.2527,-2.3318,-2.4584,-2.4737,-2.543,-2.6444,-2.7035,-2.7244,-2.7244,-2.7244,-2.7778,-2.8435,-2.8435,-2.8936,-2.9541,-2.9541,-2.9955,0.0,0.0,0.0,0.0,0.0,0.0,0.0,0.0,0.0,0.0,0.0,0.0,0.0,0.0,0.0,0.0,0.0,0.0,0.0,-4.3301,-4.3754,-4.4113,-4.4407,-4.4745,-4.5084,-4.5389,-4.6436,-4.7394,-4.8048,-4.9048,-4.9933,-5.0654,-5.0712,-5.0712,-5.0692,-5.1594,-5.2133,-5.2216,-5.2453,-5.2569,-5.252,-5.1882,-5.1508,-5.1403,-5.1391,0.0,-5.0346,-5.0346,-4.9918,-4.91,-4.8222,-4.7753,-4.7539,-4.666,-4.6308,-4.6308,-4.6308,-4.6308,-4.6308,-4.6307,-4.6284,-4.6274,-2.0961,-2.0813,-2.068,-2.0833,-2.0968,-2.1113,-2.1314,-2.1356,-2.1246,-2.0942,-2.0561,-2.0218,-2.0023,-1.9815,-1.9708,-1.9708,-1.9708,-1.9708,-1.9708,-1.9708,-1.9708,-1.9708,-1.9708,-1.9708,-1.9708,-1.9726,-1.9797,-1.9902,-2.0098,-2.0357,-2.0662,-2.099,-2.1371,-2.1753,-2.1961,-2.2152,-2.2313,-2.2699,-2.3274,-2.4017,-2.4762,-2.5364,-2.593,-2.6666,-2.6956,-2.6956,-2.6956,-2.7451,-2.8152,-2.8562,-2.9193,-2.9858,-3.0233,-3.061,-3.0902,0.0,0.0,0.0,0.0,0.0,0.0,0.0,0.0,0.0,0.0,0.0,0.0,0.0,0.0,-4.1691,-4.2214,0.0,-4.3037,-4.3475,-4.3751,-4.3974,-4.4221,-4.4589,-4.4998,-4.5367,-4.6263,-4.7193,-4.8019,-4.8894,-4.976,-5.0635,-5.0712,-5.0702,-5.0702,-5.1134,-5.1427,-5.1501,-5.1552,-5.1658,-5.1753,-5.1386,-5.123,-5.1297,-5.0898,-5.0484,-5.0094,-4.9646,-4.9008,-4.8236,-4.7788,-4.7341,-4.6914,-4.6484,-4.6308,-4.6308,-4.6308,-4.6308,-4.6308,-4.6308,-4.6307,-4.6304,-2.2254,-2.1651,-2.1153,-2.1546,-2.1443,-2.146,-2.1842,-2.1646,-2.1308,-2.099,-2.0595,-2.0252,-2.0043,-1.9833,-1.9708,-1.9708,-1.9708,-1.9708,-1.9708,-1.9708,-1.9708,-1.9708,-1.9708,-1.9708,-1.9708,-1.9708,-1.9726,-1.978,-1.9919,-2.0166,-2.046,-2.0795,-2.1182,-2.1678,-2.184,-2.2144,-2.255,-2.3139,-2.3562,-2.3934,-2.5135,-2.5693,-2.5879,-2.6471,-2.6691,-2.6691,-2.6691,-2.7182,-2.7908,-2.8552,-2.9364,-3.019,-3.0801,-3.1072,-3.119,-3.119,-3.119,0.0,0.0,0.0,0.0,0.0,0.0,0.0,0.0,-3.913,-4.0415,-4.087,-4.1718,-4.2407,-4.2526,-4.3057,-4.3515,-4.3515,-4.3701,-4.3913,-4.4064,-4.4426,-4.4839,-4.5265,-4.6032,-4.6935,-4.801,-4.8731,-4.9586,-5.0616,-5.0712,-5.0712,-5.0712,-5.0702,-5.071,-5.0784,-5.0833,-5.0902,-5.0978,-5.103,-5.1031,-5.0917,-5.0263,-4.9811,-4.9525,-4.8847,-4.8081,-4.732,-4.7331,-4.6948,-4.6307,-4.6308,-4.6308,-4.6308,-4.6308,-4.6308,-4.6308,-4.6308,-4.6308,-4.6307,-2.32,-2.2933,-2.2527,-2.2401,-2.2217,-2.2039,-2.1911,-2.1723,-2.145,-2.1119,-2.0728,-2.0375,-2.0115,-1.9904,-1.9762,-1.9708,-1.9708,-1.9708,-1.9708,-1.9708,-1.9708,-1.9708,-1.9708,-1.9708,-1.9708,-1.9708,-1.9708,-1.9708,-1.9902,-2.0113,-2.0339,-2.0779,-2.1182,-2.1539,-2.1853,-2.2471,-2.3274,-2.3359,-2.4154,-2.5372,-2.5525,-2.5998,-2.659,-2.6657,-2.6691,-2.6691,-2.6691,-2.7182,-2.7824,-2.7908,-2.8889,-3.0106,-3.0209,-3.0666,-3.119,-3.119,-3.119,-3.119,-3.121,-3.1684,-3.2707,-3.4938,-3.5805,-3.6578,0.0,-3.9761,-4.0732,-4.145,-4.2341,-4.3069,-4.3316,-4.3441,-4.3515,-4.3515,-4.3583,-4.3716,-4.3989,-4.421,-4.4503,-4.4907,-4.5305,-4.6235,-4.7943,-4.8193,-4.8933,-5.0577,-5.0712,-5.0712,-5.0712,-5.0693,-5.0702,-5.071,-5.072,-5.0773,-5.0913,-5.0925,-5.0608,-4.9967,-4.9873,-4.9041,-4.7614,-4.7576,-4.7118,-4.6354,-4.6419,-4.6398,-4.6307,-4.6307,-4.6308,-4.6308,-4.6308,-4.6308,-4.6308,-4.6308,-4.6308,-4.6308,-2.3377,-2.3163,-2.2803,-2.2592,-2.2377,-2.2211,-2.2094,-2.1873,-2.1603,-2.1246,-2.0828,-2.0444,-2.0135,-1.9887,-1.9726,-1.9708,-1.9708,-1.9708,-1.9708,-1.9708,-1.9708,-1.9708,-1.9708,-1.9708,-1.9708,-1.9708,-1.9726,-1.9762,-1.9919,-2.0148,-2.0426,-2.0779,-2.1408,-2.2272,-2.2486,-2.313,-2.4068,-2.4492,-2.505,-2.5642,-2.6065,-2.642,-2.6691,-2.6691,-2.6691,-2.6691,-2.6657,-2.6843,0.0,-2.7549,-2.8139,-2.8765,-2.9203,-2.9899,-3.0565,-3.0565,-3.0869,-3.1275,-3.1735,-3.2699,-3.3838,-3.4895,-3.6202,-3.7529,-3.866,-4.0045,-4.1255,-4.1974,-4.2514,-4.2975,-4.3358,-4.3831,-4.4143,-4.4177,-4.4246,-4.4366,-4.4552,-4.4346,-4.4312,-4.464,-4.5342,-4.6399,-4.7894,-4.8068,-4.8827,-5.0567,-5.0712,-5.0712,-5.0712,-5.0712,-5.0702,-5.0702,-5.0702,-5.073,-5.0775,-5.0319,-4.9953,-4.9674,-4.8669,-4.7818,-4.7162,-4.6729,-4.6387,-4.6157,-4.6203,-4.6238,-4.6238,-4.6283,-4.6306,-4.6308,-4.6308,-4.6308,-4.6308,-4.6308,-4.6308,-4.6308,-2.3439,-2.3182,-2.2842,-2.2659,-2.2446,-2.2268,-2.2214,-2.1991,-2.1706,-2.1371,-2.0942,-2.053,-2.0115,-1.9851,-1.9708,-1.9708,-1.9708,-1.9708,-1.9708,-1.9708,-1.9708,-1.9708,-1.9708,-1.9708,-1.9708,-1.9726,-1.987,-2.0122,-2.0317,-2.0674,-2.1175,-2.1483,-2.2167,-2.3141,-2.3329,-2.3949,-2.4877,-2.5451,-2.5926,-2.6334,-2.691,-2.7114,-2.7063,-2.7063,-2.6911,-2.6674,-2.6623,-2.6589,-2.6673,-2.7141,-2.7461,-2.7783,-2.8303,-2.9183,-3.0034,-3.0034,-3.0596,-3.141,-3.2361,-3.3372,-3.4358,-3.5089,-3.6525,-3.7899,-3.8548,-3.9693,-4.0885,-4.1798,-4.2173,-4.2534,-4.3214,-4.3852,-4.4363,-4.4654,-4.4743,-4.4813,-4.4935,-4.4598,-4.4429,-4.4682,-4.5456,-4.6563,-4.8009,-4.8313,-4.9028,-5.0567,-5.0683,-5.0712,-5.0712,-5.0712,-5.0712,-5.0712,-5.0481,-5.0337,-5.0336,-4.9527,-4.9024,-4.8839,-4.7584,-4.6889,-4.6684,-4.6132,-4.5939,-4.6054,-4.6119,-4.617,-4.6193,-4.6249,-4.628,-4.6306,-4.6308,-4.6308,-4.6308,-4.6308,-4.6308,-4.6308,-2.361,-2.3224,-2.2855,-2.2725,-2.2474,-2.2268,-2.2214,-2.2034,-2.1781,-2.1448,-2.1103,-2.0647,-2.0061,-1.9815,-1.9708,-1.9708,-1.9708,-1.9708,-1.9708,-1.9708,-1.9708,-1.9708,-1.9708,-1.9708,-1.9708,-1.9762,-2.0186,-2.0953,-2.1291,-2.1938,-2.2841,-2.3298,-2.3687,-2.3966,-2.4317,-2.4911,-2.567,-2.5909,-2.6781,-2.8049,-2.8185,-2.8117,-2.7964,-2.7964,-2.7436,-2.6674,-2.6623,-2.6589,-2.6606,-2.6553,-2.7005,-2.7609,-2.7626,-2.8671,-2.9924,-2.9924,-3.0521,-3.1512,-3.2983,-3.3406,-3.3964,-3.6186,-3.6778,-3.7131,-3.818,-3.8544,-3.9103,-4.063,-4.1169,-4.1714,-4.2996,-4.3341,-4.3704,-4.4563,-4.4709,-4.4744,-4.4795,-4.4898,-4.5047,-4.5252,-4.5529,-4.6478,-4.8401,-4.8942,-4.9562,-5.0516,-5.0653,-5.0712,-5.0712,-5.0712,-5.0712,-5.0712,-4.9875,-4.9433,-4.9433,-4.8586,-4.7739,-4.6983,-4.6926,-4.6508,-4.5735,-4.5771,-4.5848,-4.5906,-4.5983,-4.608,-4.6209,-4.6199,-4.6245,-4.6302,-4.6306,-4.6308,-4.6308,-4.6308,-4.6308,-4.6308,-2.3639,-2.3224,-2.2868,-2.2725,-2.2487,-2.2282,-2.2268,-2.2046,-2.1794,-2.1508,-2.0893,0.0,0.0,0.0,0.0,0.0,-1.9708,-1.9708,-1.9708,-1.9708,-1.9708,-1.9708,-1.9708,-1.9899,-2.0363,-2.0471,-2.0973,-2.1857,-2.2204,-2.2712,-2.3363,-2.3719,-2.4613,-2.5929,-2.6092,-2.6969,-2.8351,-2.8416,-2.8759,-2.9226,-2.9227,-2.9144,-2.8973,-2.8956,-2.8374,-2.7538,0.0,-2.7061,-2.6502,-2.6345,-2.6495,-2.6833,-2.7299,-2.8224,-2.9307,-3.0339,-3.1557,-3.2693,-3.325,-3.4095,-3.5042,-3.5808,-3.64,-3.6909,-3.7371,-3.7917,-3.8601,-3.9526,-4.0315,-4.1125,-4.2049,-4.3178,-4.4327,-4.5333,-4.5498,-4.5681,-4.625,-4.5973,-4.5764,-4.588,-4.661,-4.742,-4.8252,-4.8751,-4.9441,-5.0464,-5.0603,-5.0394,-4.9875,-4.9837,-4.9567,-4.899,-4.8682,-4.8548,-4.8548,-4.7721,-4.7163,-4.6892,-4.6305,-4.5926,-4.5706,-4.5711,-4.5781,-4.5847,-4.5899,-4.5986,-4.6069,-4.6121,-4.6172,-4.6245,-4.628,-4.6306,-4.6308,-4.6308,-4.6308,-4.6308,-2.3621,-2.3259,-2.2902,-2.2725,-2.2501,0.0,0.0,0.0,0.0,0.0,0.0,0.0,0.0,0.0,0.0,0.0,0.0,-1.9708,-1.9708,-1.9708,-1.9708,-1.9708,-1.9929,-2.0277,-2.0764,-2.1137,-2.1827,-2.2831,-2.3204,-2.3753,-2.4525,-2.5112,-2.6101,-2.7432,-2.7853,-2.8722,-2.984,-2.9954,-3.0176,-3.0406,-3.0406,-3.0275,-3.0057,-2.9955,-2.9317,0.0,-2.8318,-2.7872,-2.7206,-2.6476,-2.6442,-2.6778,-2.7225,-2.8131,-2.9278,-3.0603,-3.189,-3.2938,-3.3296,-3.4286,-3.5261,-3.5532,-3.5994,-3.6412,-3.6542,-3.6968,-3.7591,-3.8463,-3.9196,-4.0099,-4.143,-4.2649,-4.398,-4.5645,-4.5902,-4.6177,-4.6984,-4.6728,-4.6488,-4.6577,-4.7212,-4.7876,-4.8434,-4.8853,-4.9442,-5.0333,-5.0212,-4.9882,-4.9385,-4.9096,-4.8682,-4.8125,-4.7817,-4.7682,-4.7682,-4.6855,-4.6432,-4.6432,-4.5883,-4.5631,-4.5657,-4.5657,-4.5698,-4.577,-4.581,-4.588,-4.5964,-4.6041,-4.6098,-4.617,-4.6243,-4.6278,-4.6304,-4.6308,-4.6308,-4.6308,-2.3631,-2.333,-2.302,0.0,0.0,0.0,0.0,0.0,0.0,0.0,0.0,0.0,0.0,0.0,0.0,0.0,0.0,0.0,-1.9708,-1.9708,-1.9723,-1.9753,-2.0382,-2.0809,-2.1016,-2.1782,-2.2717,-2.3878,-2.4273,-2.5051,-2.6156,-2.7331,-2.8066,-2.8454,-2.9475,-3.0052,-3.0284,-3.0594,-3.1069,-3.1606,-3.1729,-3.1538,-3.118,-3.1027,-3.03,-2.9348,-2.9151,-2.8972,-2.8572,-2.695,-2.6913,-2.7492,-2.7435,-2.8469,-2.9882,-3.0784,-3.1601,-3.2382,-3.3229,-3.3998,-3.4726,-3.543,-3.56,-3.5622,-3.5773,-3.5795,-3.6159,-3.7446,-3.795,-3.883,-4.1102,-4.1742,-4.2796,-4.5462,-4.5902,-4.6195,-4.7039,-4.7168,-4.7205,-4.7353,-4.7407,-4.7863,-4.8883,-4.9222,-4.9573,-5.005,-4.9537,-4.9196,-4.9239,-4.8472,-4.8,-4.7962,-4.7231,-4.6827,-4.6827,-4.6009,-4.5594,-4.5594,-4.5594,-4.5594,-4.5594,-4.5594,-4.564,-4.5701,-4.5703,-4.5769,-4.59,-4.5978,-4.6036,-4.6098,-4.6167,-4.6236,-4.6293,-4.6284,-4.6306,-4.6307,0.0,0.0,0.0,0.0,0.0,0.0,0.0,0.0,0.0,0.0,0.0,0.0,0.0,0.0,0.0,0.0,0.0,0.0,-1.9708,-1.9744,-2.002,-2.0568,-2.0913,-2.1569,-2.2578,-2.301,-2.3725,-2.4779,-2.5222,-2.5832,-2.6573,-2.7176,-2.8284,-2.9814,-3.0191,-3.112,-3.2412,-3.2505,-3.2676,-3.2907,-3.2841,-3.2673,-3.242,-3.2239,-3.141,-3.0315,-3.0173,-2.9598,-2.8869,-2.828,-2.8503,-2.9046,-2.9007,-2.9962,-3.1191,-3.1621,-3.2676,-3.376,-3.4124,-3.4759,-3.5346,-3.5549,-3.56,-3.56,-3.5644,-3.5644,-3.5829,-3.647,-3.7681,-3.8975,-4.0113,-4.1496,-4.3171,-4.5461,-4.5828,-4.6341,-4.7791,-4.7975,-4.8012,-4.805,-4.8163,-4.8348,-4.8677,-4.894,-4.8961,-4.8595,-4.8821,-4.8766,-4.8282,-4.753,-4.6839,-4.6166,-4.601,-4.5932,-4.5932,-4.571,-4.5594,-4.5594,-4.5594,-4.5594,-4.5594,-4.5594,-4.5622,-4.5631,-4.5682,-4.5711,-4.5761,-4.5874,-4.5947,-4.5964,-4.6072,-4.6161,-4.6231,-4.6223,-4.6255,-4.63,0.0,0.0,0.0,0.0,0.0,0.0,0.0,0.0,0.0,0.0,0.0,0.0,0.0,0.0,0.0,0.0,0.0,0.0,0.0,-2.0689,-2.0907,-2.1447,-2.1889,-2.2532,-2.3444,-2.3979,-2.4655,-2.5454,-2.583,-2.6314,-2.6874,-2.7587,-2.8792,-3.0404,-3.0972,-3.1992,-3.3342,-3.3383,-3.3444,0.0,0.0,-3.3265,-3.3008,-3.2784,-3.2139,-3.1324,-3.1073,-3.054,-3.0006,-3.0196,-3.0227,-3.0242,-3.054,-3.1383,-3.2295,-3.2521,-3.3386,-3.432,-3.4462,-3.5047,-3.56,-3.56,-3.56,-3.56,-3.56,-3.56,-3.5711,-3.6118,-3.7267,-3.8537,-3.9651,-4.1033,-4.2799,-4.5312,-4.5772,-4.6396,-4.8067,-4.8306,-4.8306,-4.8306,-4.8363,-4.8438,-4.855,-4.8399,-4.8181,-4.7895,-4.8055,-4.7857,-4.7186,-4.6487,-4.5899,-4.5467,-4.5513,-4.5568,-4.5594,-4.5594,-4.5594,-4.5594,-4.5594,-4.5594,-4.5594,-4.5594,-4.5594,-4.5594,-4.564,-4.5673,-4.5703,-4.5776,-4.5834,-4.5866,-4.5973,-4.6054,-4.6111,-4.6156,-4.6201,-4.6253,0.0,0.0,0.0,0.0,0.0,0.0,0.0,0.0,0.0,-2.1687,-2.1279,-2.1223,-2.1743,-2.152,0.0,0.0,0.0,0.0,0.0,0.0,-2.2044,-2.2363,-2.3033,-2.3608,-2.3995,-2.4789,-2.5454,-2.5936,-2.6207,-2.6607,-2.7135,-2.8138,-2.9291,-3.0599,-3.1553,-3.2556,-3.3549,-3.3657,-3.3671,-3.3633,-3.3684,-3.3512,-3.3205,0.0,-3.2602,-3.2179,-3.1747,-3.1426,-3.1312,-3.1938,-3.1682,-3.118,-3.1951,-3.2672,-3.328,-3.34,-3.3982,-3.456,-3.4636,-3.5115,-3.56,-3.56,-3.56,-3.56,-3.56,-3.56,-3.5711,-3.6058,-3.6861,-3.7945,-3.9436,-4.057,-4.2174,-4.496,-4.5605,-4.6322,-4.792,-4.8233,-4.8269,-4.8159,-4.8141,-4.8142,-4.8144,-4.7592,-4.7236,-4.7315,-4.7065,-4.669,-4.6164,-4.5517,-4.5232,-4.54,-4.5476,-4.5522,-4.5594,-4.5594,-4.5594,-4.5594,-4.5594,-4.5594,-4.5594,-4.5594,-4.5594,-4.5594,-4.5594,-4.5631,-4.5693,-4.5703,-4.5719,-4.5793,-4.5854,-4.5914,-4.5972,-4.6052,-4.6114,-4.6157,0.0,0.0,0.0,0.0,0.0,0.0,0.0,0.0,0.0,0.0,-2.2489,-2.2375,-2.2789,-2.2693,0.0,0.0,0.0,0.0,0.0,0.0,0.0,-2.3328,-2.3752,-2.4328,-2.5109,-2.5538,-2.5899,-2.6152,-2.6469,-2.6825,-2.7198,-2.7762,-2.9045,-3.0842,-3.1193,-3.2241,-3.3753,-3.378,-3.378,-3.3766,-3.378,-3.3643,-3.3433,-3.3205,-3.2848,0.0,-3.1744,-3.1406,-3.1291,-3.1365,-3.1601,-3.2021,-3.2812,-3.3503,-3.403,-3.4179,-3.474,-3.5312,-3.5391,-3.5498,-3.56,-3.56,-3.56,-3.56,-3.56,-3.56,-3.5644,-3.5839,-3.7046,-3.8315,-3.9073,-4.0525,-4.2213,-4.4075,-4.5012,-4.5951,-4.713,-4.7865,-4.8048,-4.7388,-4.7314,-4.7058,-4.6397,-4.6341,-4.6044,-4.5342,-4.5393,-4.5577,-4.5846,-4.5343,-4.5143,-4.54,-4.5476,-4.5522,-4.5594,-4.5594,-4.5594,-4.5594,-4.5594,-4.5594,-4.5594,-4.5594,-4.5594,-4.5594,-4.5594,-4.5614,-4.5631,-4.5673,-4.5698,-4.5722,-4.5795,-4.5814,-4.5835,-4.59,-4.5973,-4.593,0.0,0.0,0.0,0.0,0.0,0.0,0.0,-2.2948,-2.3515,-2.3799,-2.3962,-2.4034,-2.4038,-2.3858,-2.3839,0.0,0.0,0.0,0.0,0.0,0.0,-2.4509,-2.4694,-2.5062,-2.5698,-2.5952,-2.6351,-2.6985,0.0,-2.7742,-2.8467,-2.8941,-2.9993,-3.153,-3.1719,-3.2551,-3.3807,-3.3807,-3.3807,-3.3807,-3.3807,-3.3726,-3.3591,-3.339,-3.2896,0.0,-3.1819,-3.1502,-3.1344,-3.1653,-3.1965,-3.2279,-3.2668,-3.3503,-3.4352,-3.4418,-3.4958,-3.5549,-3.5577,-3.56,-3.56,-3.56,-3.56,-3.56,-3.56,-3.56,-3.5644,-3.5773,-3.7053,-3.8322,-3.8847,-4.0386,-4.2061,-4.3596,-4.4325,-4.5249,-4.6835,-4.7386,-4.7497,-4.7149,-4.7094,-4.6782,-4.5975,-4.5571,-4.5202,-4.478,-4.4495,-4.4482,-4.4897,-4.4952,-4.5038,-4.5248,-4.5341,-4.5429,-4.5496,-4.5496,-4.5505,-4.5559,-4.5559,-4.5568,-4.5594,-4.5594,-4.5594,-4.5594,-4.5594,-4.5594,-4.5594,-4.564,-4.5648,-4.5648,-4.5714,-4.5754,-4.5765,-4.5821,-4.5589,-4.5167,0.0,0.0,0.0,0.0,0.0,0.0,-2.2515,-2.3255,-2.3966,-2.4426,-2.5271,-2.5781,-2.5578,-2.5297,-2.5279,0.0,0.0,0.0,0.0,0.0,0.0,0.0,-2.5508,-2.568,-2.6063,0.0,0.0,-2.7719,-2.8081,0.0,0.0,0.0,0.0,0.0,-3.2301,-3.2916,-3.3807,-3.3807,-3.3807,0.0,0.0,-3.3766,-3.3671,0.0,0.0,0.0,0.0,-3.1654,-3.1436,-3.1933,-3.2093,-3.2056,-3.2056,-3.3089,-3.4303,-3.4438,-3.4912,-3.5397,-3.5549,-3.56,-3.56,-3.56,-3.56,-3.56,-3.56,-3.56,-3.5622,-3.5751,-3.6978,-3.8178,-3.8622,-4.012,-4.17,-4.3033,-4.3611,-4.4471,-4.6133,-4.6538,-4.6651,-4.658,-4.6562,-4.625,-4.5461,-4.4819,-4.4452,-4.4452,-4.3915,-4.3747,-4.4075,-4.4522,-4.4839,-4.5026,-4.5159,-4.5246,-4.5328,-4.5348,-4.538,-4.5429,-4.5457,-4.5513,-4.5577,-4.5586,-4.5594,-4.5594,-4.5594,-4.5594,-4.5594,-4.5594,-4.5594,-4.5614,-4.5657,-4.5684,-4.5654,-4.5542,-4.5066,-4.4432,0.0,0.0,0.0,0.0,0.0,0.0,-2.279,-2.3953,-2.4829,-2.4775,-2.6043,-2.7143,-2.7657,-2.7375,-2.6816,0.0,0.0,0.0,0.0,0.0,0.0,0.0,0.0,0.0,0.0,0.0,0.0,-2.7789,-2.8662,0.0,0.0,0.0,0.0,0.0,0.0,-3.2916,-3.3807,-3.3807,0.0,0.0,0.0,0.0,0.0,0.0,0.0,0.0,0.0,-3.1912,-3.1542,-3.1438,-3.1336,-3.1292,-3.1292,-3.2307,-3.3643,-3.4303,-3.4539,-3.4742,-3.5414,-3.56,-3.56,-3.56,-3.56,-3.56,-3.56,-3.56,-3.56,-3.5622,-3.684,-3.8031,-3.8374,-3.9761,-4.1123,-4.1945,-4.2884,-4.3732,-4.4295,-4.5103,-4.5438,-4.4894,-4.4821,-4.4528,-4.3791,-4.3662,-4.3608,-4.3608,-4.3584,-4.3747,-4.4075,-4.4265,-4.449,-4.4808,-4.4895,-4.501,-4.5125,-4.5181,-4.5227,-4.5232,-4.5342,-4.5438,-4.5513,-4.5577,-4.5594,-4.5594,-4.5594,-4.5594,-4.5594,-4.5594,-4.5594,-4.5594,-4.5614,-4.5622,-4.5526,-4.4807,-4.4476,-4.4203,0.0,0.0,0.0,0.0,0.0,0.0,-2.3003,-2.426,-2.5185,-2.5,-2.6251,-2.7377,-2.7998,-2.8283,-2.822,-2.7734,0.0,0.0,0.0,0.0,0.0,0.0,0.0,0.0,0.0,0.0,-2.8156,-2.9176,-2.9684,0.0,0.0,0.0,0.0,0.0,0.0,-3.3243,-3.3615,-3.3712,0.0,0.0,0.0,0.0,0.0,0.0,0.0,0.0,0.0,0.0,-3.241,-3.2619,-3.2323,-3.187,-3.187,-3.2276,-3.2882,-3.3626,-3.415,-3.4658,-3.5397,-3.56,-3.56,-3.56,-3.56,-3.56,-3.56,-3.56,-3.56,-3.56,-3.684,-3.7977,-3.8178,-3.9538,-4.0795,-4.1396,-4.1903,-4.2562,-4.355,-4.4072,-4.4341,-4.4304,-4.4399,-4.4218,-4.3502,-4.348,-4.3515,-4.3515,-4.3513,-4.3615,-4.3795,-4.3999,-4.4196,-4.4369,-4.4439,-4.453,-4.4675,-4.4777,-4.4919,-4.5087,-4.5227,-4.535,-4.5429,-4.5514,-4.555,-4.5531,-4.5577,-4.5594,-4.5594,-4.5594,-4.5287,-4.4816,-4.4816,-4.4509,-4.4055,-4.3745,-4.3283,-4.2752,0.0,0.0,0.0,0.0,0.0,-2.352,-2.3313,-2.4592,-2.5504,-2.5337,-2.6548,-2.7717,-2.8475,-2.899,-2.9326,-2.9529,-2.872,0.0,0.0,0.0,0.0,0.0,0.0,0.0,0.0,0.0,-2.8933,-3.0108,-3.0519,-3.1064,0.0,0.0,-3.2556,-3.2836,0.0,0.0,0.0,0.0,0.0,0.0,0.0,0.0,0.0,0.0,0.0,0.0,0.0,0.0,0.0,0.0,0.0,-3.2632,-3.2632,-3.2632,-3.2733,-3.3254,-3.3914,-3.4658,-3.5397,-3.56,-3.56,-3.56,-3.56,-3.56,-3.56,-3.56,-3.5667,-3.591,-3.6992,-3.8021,-3.8367,-3.9535,-4.0583,-4.0995,-4.1163,-4.1593,-4.2672,-4.2952,-4.3179,-4.354,-4.3773,-4.3742,-4.336,-4.3411,-4.348,-4.3497,-4.3515,-4.3513,-4.3565,-4.3749,-4.391,-4.4033,-4.4094,-4.4166,-4.4275,-4.4398,-4.4581,-4.4802,-4.4991,-4.5159,-4.5267,-4.538,-4.5429,-4.5466,-4.5531,-4.5577,-4.5575,-4.5325,-4.4855,-4.4278,-4.4047,-4.3605,-4.3066,-4.2816,-4.2335,-4.1777,0.0,0.0,0.0,0.0,0.0,-2.3774,-2.3703,-2.4989,-2.5949,-2.5813,-2.7077,-2.8409,-2.9566,-2.9624,-3.004,-3.1181,-3.0537,0.0,0.0,0.0,0.0,0.0,0.0,0.0,0.0,0.0,-2.9962,-3.0108,-3.1028,-3.1538,-3.1617,-3.2073,-3.2403,-3.2605,0.0,0.0,0.0,0.0,0.0,0.0,0.0,0.0,-3.3591,0.0,0.0,0.0,0.0,0.0,0.0,0.0,0.0,0.0,0.0,-3.3389,-3.3389,-3.3406,-3.3914,-3.4658,-3.5397,-3.56,-3.56,-3.56,-3.56,-3.56,-3.56,-3.56,-3.5842,-3.6626,-3.7381,-3.8149,-3.904,-3.9795,-4.0404,-4.0648,-4.0765,-4.0943,-4.1368,-4.1596,-4.1881,-4.2356,-4.2595,-4.2824,-4.3086,-4.3287,-4.3429,-4.3497,-4.3515,-4.3515,-4.3515,-4.3496,-4.3634,-4.3897,-4.3897,-4.3945,-4.4005,-4.4136,-4.4236,-4.4303,-4.4648,-4.487,-4.5003,-4.5145,-4.5282,-4.541,-4.5476,-4.555,-4.5537,-4.4662,-4.4316,-4.422,-4.3412,-4.3104,-4.3008,-4.2143,-4.1808,-4.1681,0.0,0.0,0.0,0.0,0.0,0.0,-2.3847,-2.5183,-2.6146,-2.5967,-2.7754,-2.9265,-2.991,-3.0326,-3.0855,-3.1585,-3.0743,0.0,0.0,0.0,0.0,0.0,0.0,0.0,0.0,-2.9798,-3.0306,-3.0852,-3.1191,-3.1426,-3.1538,-3.1819,-3.202,-3.2126,-3.2386,-3.2555,0.0,0.0,0.0,0.0,-3.3419,-3.3466,-3.3452,0.0,0.0,0.0,0.0,0.0,0.0,0.0,0.0,0.0,0.0,0.0,0.0,-3.415,-3.432,-3.4658,-3.5397,-3.56,-3.56,-3.56,-3.56,-3.56,-3.56,-3.6028,-3.6485,-3.6745,-3.7794,-3.8742,-3.9003,-3.9671,-4.0213,-4.0404,-4.0436,-4.0566,-4.0894,-4.1094,-4.1333,-4.1683,-4.2254,-4.2767,-4.3123,-4.3305,-4.3429,-4.3479,-4.3515,-4.3515,-4.3515,-4.3515,-4.3549,-4.3615,-4.3634,-4.3667,-4.3732,-4.3865,-4.3711,-4.3271,-4.3512,-4.3715,-4.3838,-4.406,-4.4571,-4.525,-4.4796,-4.4651,-4.4657,-4.3827,-4.3124,-4.2566,-4.2316,-4.1854,-4.1285,-4.1008,-4.0912,-4.0873,0.0,0.0,0.0,0.0,0.0,0.0,-2.4026,-2.5392,-2.6358,-2.6222,-2.8229,-2.9849,-3.0285,-3.0877,-3.1546,-3.2295,-3.171,0.0,0.0,0.0,0.0,0.0,0.0,0.0,-3.0091,-3.0378,-3.0734,-3.119,-3.1274,-3.1351,-3.1443,-3.1634,-3.1746,-3.1802,-3.2002,-3.2144,0.0,0.0,0.0,0.0,-3.3568,-3.3599,-3.3594,0.0,0.0,0.0,0.0,0.0,0.0,0.0,0.0,0.0,0.0,0.0,0.0,0.0,-3.4912,-3.503,-3.5481,-3.56,-3.56,-3.56,-3.56,-3.56,-3.56,-3.6214,-3.688,-3.7144,-3.8159,-3.9089,-3.9343,-3.9791,-4.0138,-4.0213,-4.0213,-4.0288,-4.0527,-4.0704,-4.0954,-4.1351,-4.1941,-4.2494,-4.2938,-4.316,-4.3341,-4.3445,-4.348,-4.3515,-4.3515,-4.3515,-4.3368,-4.3057,-4.3332,-4.3367,-4.3106,-4.3225,-4.2899,-4.2196,-4.2385,-4.2572,-4.2685,-4.2944,-4.3471,-4.4124,-4.3778,-4.3685,0.0,-4.2909,-4.2261,-4.1769,-4.145,-4.0969,-4.0496,-4.0496,-4.0496,-4.0496,0.0,0.0,0.0,0.0,0.0,0.0,0.0,-2.5566,-2.6591,-2.6519,-2.8602,-3.0239,-3.0682,-3.1381,-3.2224,-3.3265,-3.3222,0.0,0.0,0.0,0.0,0.0,0.0,0.0,-3.0192,-3.0852,-3.119,-3.119,-3.1254,-3.1295,-3.1295,-3.1485,-3.156,-3.1579,-3.1709,-3.1819,0.0,0.0,0.0,0.0,-3.386,-3.391,0.0,0.0,0.0,0.0,0.0,0.0,0.0,0.0,0.0,0.0,0.0,0.0,0.0,0.0,0.0,0.0,0.0,-3.56,-3.56,-3.56,-3.56,-3.5616,-3.5667,-3.6299,0.0,-3.7838,-3.8565,-3.9276,-3.9977,-4.0096,-4.0096,-4.0096,-4.0096,-4.0121,-4.028,-4.0412,-4.071,-4.13,-4.1661,-4.2047,-4.2532,-4.2861,-4.316,-4.3376,-4.3445,-4.3479,-4.3515,-4.346,-4.3057,-4.2323,-4.2965,-4.2965,-4.2213,-4.2277,-4.1903,-4.1096,-4.1302,-4.1468,-4.1595,-4.1798,-4.2065,-4.2375,-4.2514,-4.266,-4.2726,-4.1935,-4.1632,-4.1627,-4.0808,-4.0489,-4.0489,-4.0508,-4.0489,-4.0489,0.0,0.0,0.0,0.0,0.0,0.0,0.0,0.0,0.0,0.0,-2.9113,-3.1011,-3.1025,-3.2119,-3.3113,0.0,0.0,0.0,0.0,0.0,0.0,0.0,0.0,0.0,-3.0937,-3.1106,-3.119,-3.119,-3.123,-3.1213,-3.1213,-3.1269,-3.1291,-3.1308,-3.137,-3.156,0.0,0.0,0.0,0.0,-3.3441,-3.3512,0.0,0.0,0.0,0.0,-3.2284,-3.2159,0.0,0.0,0.0,0.0,0.0,0.0,0.0,0.0,-3.56,-3.56,-3.56,0.0,-3.56,-3.56,-3.56,-3.5752,0.0,-3.7094,-3.7855,-3.8582,-3.9326,-3.9893,-4.0079,-4.0096,-4.0096,-4.0096,-4.0096,-4.0096,-4.0138,-4.0263,-4.0517,-4.1047,-4.1328,-4.1709,-4.2236,-4.2595,-4.292,-4.3233,-4.3358,-4.3446,-4.3497,-4.291,-4.2506,-4.2304,-4.1901,-4.1572,-4.137,-4.1403,-4.0997,-4.0207,-4.0317,-4.0406,-4.047,-4.0738,-4.1325,-4.2071,-4.1658,-4.159,-4.1685,-4.0939,-4.0675,-4.0709,-4.0498,-4.0422,-4.043,-4.0482,-4.0499,-4.0507,0.0,0.0,0.0,0.0,0.0,0.0,0.0,0.0,0.0,0.0,-2.9575,-3.1314,-3.1198,-3.2496,-3.3735,0.0,0.0,0.0,0.0,0.0,0.0,0.0,0.0,-3.1232,-3.119,-3.119,-3.119,-3.119,-3.119,-3.119,-3.119,-3.119,-3.119,-3.119,-3.1232,-3.1406,0.0,0.0,-3.3556,-3.3742,-3.4107,0.0,0.0,0.0,0.0,0.0,-3.2144,-3.1947,0.0,-3.1963,-3.2635,-3.3474,0.0,0.0,0.0,0.0,-3.56,-3.56,-3.56,-3.56,-3.5684,-3.6062,-3.6146,-3.6349,-3.7127,-3.7872,-3.8514,-3.892,-3.9605,-4.0096,-4.0096,-4.0096,-4.0096,-4.0096,-4.0096,-4.0096,-4.0096,-4.0163,-4.0337,-4.0638,-4.0937,-4.1311,-4.1796,-4.2218,-4.2596,-4.2957,-4.3178,-4.3194,-4.2915,-4.2526,-4.1956,-4.1222,-4.0781,-4.0561,-4.0561,-4.0561,-4.0157,-3.935,-3.9396,-3.9455,-3.9508,-3.9688,-4.0109,-4.0705,-4.044,-4.0447,-4.0644,-4.03,-4.0196,-4.028,-4.0298,-4.0307,-4.0326,-4.0379,-4.0405,-4.0413,0.0,0.0,0.0,0.0,0.0,0.0,0.0,0.0,0.0,0.0,0.0,0.0,0.0,0.0,0.0,0.0,0.0,0.0,0.0,0.0,0.0,0.0,-3.2017,-3.1392,-3.119,-3.119,-3.119,-3.119,-3.119,-3.119,-3.119,-3.119,-3.119,-3.1207,-3.1328,-3.1494,-3.1773,-3.3299,-3.4111,-3.4441,-3.5136,0.0,0.0,0.0,0.0,0.0,0.0,0.0,0.0,-3.1408,-3.2235,-3.3406,-3.3406,0.0,0.0,0.0,0.0,0.0,-3.56,-3.5684,-3.596,-3.6643,-3.688,-3.7144,-3.7905,-3.8548,-3.9022,-3.914,-3.9673,-4.0096,-4.0096,-4.0096,-4.0096,-4.0096,-4.0096,-4.0096,-4.0096,-4.0096,-4.0163,-4.0263,-4.0573,-4.0913,-4.1283,-4.1796,-4.2257,-4.2596,-4.2811,-4.2704,-4.219,-4.1983,-4.1246,-3.9921,-3.9756,-3.9698,-3.9717,-3.9717,-3.9368,-3.8707,-3.8707,-3.8719,-3.8792,-3.8848,-3.8979,-3.9156,-3.9304,0.0,-3.9758,-3.987,-3.9958,-4.0041,-4.01,-4.012,-4.0129,-4.0205,-4.0262,-4.028,0.0,0.0,0.0,0.0,0.0,0.0,0.0,0.0,0.0,0.0,0.0,0.0,0.0,0.0,0.0,0.0,0.0,0.0,0.0,0.0,0.0,-3.4993,-3.3254,-3.1973,-3.1227,-3.119,-3.119,-3.119,-3.119,-3.119,-3.119,-3.119,-3.119,-3.1224,-3.1984,-3.2355,-3.2491,-3.3599,-3.4515,-3.524,-3.5342,0.0,0.0,0.0,0.0,0.0,0.0,0.0,0.0,-3.1372,-3.2235,-3.3406,-3.3406,0.0,0.0,0.0,0.0,0.0,-3.56,-3.6096,-3.666,-3.6778,-3.7263,-3.7922,-3.865,-3.892,-3.9174,-3.9808,-4.0028,-4.0096,-4.0096,-4.0096,-4.0096,-4.0096,-4.0096,-4.0096,-4.0096,-4.0096,-4.0163,-4.0263,-4.0461,-4.0686,-4.1024,-4.1436,-4.1852,-4.2257,-4.1905,-4.1757,-4.1941,-4.0666,-3.9878,-3.9825,-3.9093,-3.8758,-3.8891,-3.8891,-3.8817,-3.8707,-3.8707,-3.8707,-3.8723,-3.8777,-3.8848,-3.895,0.0,-3.9277,-3.9464,-3.9551,-3.9658,-3.9755,-3.9773,-3.9785,-3.9796,-3.9924,-3.9998,-4.0089,0.0,0.0,0.0,0.0,0.0,0.0,0.0,0.0,0.0,0.0,0.0,0.0,0.0,0.0,0.0,0.0,0.0,0.0,0.0,0.0,-3.6535,-3.5657,-3.4211,-3.2948,-3.1919,-3.1433,-3.119,-3.119,-3.119,-3.119,-3.1207,-3.1616,-3.2002,-3.2408,-3.2887,-3.3141,-3.3259,-3.4272,-3.4967,-3.5448,0.0,0.0,0.0,0.0,0.0,0.0,0.0,0.0,0.0,0.0,-3.2534,-3.3474,-3.388,0.0,0.0,0.0,0.0,0.0,-3.56,-3.618,-3.6897,-3.728,-3.7939,-3.8684,-3.9436,-3.9605,-3.9706,-4.0028,-4.0096,-4.0096,-4.0096,-4.0096,-4.0096,-4.0096,-4.0096,-4.0096,-4.0096,-4.0096,-4.0138,-4.0188,-4.0313,-4.0485,-4.071,-4.1065,-4.1221,-4.1135,-4.1131,-4.0856,-4.022,-3.9643,-3.9202,-3.8902,-3.8599,-3.8478,-3.859,-3.8658,-3.8707,-3.8707,-3.8707,-3.8707,-3.8707,-3.8735,-3.8777,-3.8851,0.0,-3.9031,-3.9183,-3.9245,-3.9337,-3.9439,-3.9477,-3.9471,-3.9495,-3.967,-3.9848,-4.0027,0.0,0.0,0.0,0.0,0.0,0.0,0.0,0.0,0.0,0.0,0.0,0.0,0.0,0.0,0.0,0.0,0.0,0.0,0.0,-3.7161,-3.7113,-3.6264,-3.4995,-3.3759,-3.2588,-3.1681,-3.1213,-3.1213,-3.121,-3.1275,-3.1461,-3.2226,-3.2848,-3.3406,-3.3756,-3.3928,-3.4049,-3.4898,-3.5443,-3.5766,0.0,0.0,0.0,0.0,0.0,0.0,0.0,0.0,0.0,0.0,0.0,0.0,0.0,0.0,0.0,-3.56,-3.56,-3.56,-3.56,-3.618,-3.6924,-3.7476,-3.8304,-3.9191,-3.9943,-4.0087,-4.0062,-4.0062,-4.0037,-4.0037,-4.0062,-4.0087,-4.0096,-4.0096,-4.0096,-4.0096,-4.0096,-4.0096,-4.0096,-4.0096,-4.0188,-4.0313,-4.0436,-4.0556,-4.0481,-4.0105,-4.0109,-3.9671,-3.8621,-3.8652,-3.8492,-3.8018,-3.8203,-3.8366,-3.8478,-3.8593,-3.8658,-3.8707,-3.8707,-3.8707,-3.8707,-3.8707,-3.8719,-3.8777,-3.8777,-3.8851,-3.895,-3.9021,-3.9059,-3.9129,-3.9197,-3.9205,-3.9245,-3.9439,-3.9665,-3.9881,0.0,0.0,0.0,0.0,0.0,0.0,0.0,0.0,0.0,0.0,0.0,0.0,0.0,0.0,0.0,0.0,0.0,0.0,0.0,-3.6517,-3.7055,-3.7451,-3.5666,-3.4081,-3.2805,-3.1803,-3.1295,-3.1295,-3.1232,-3.1565,-3.2242,-3.2983,-3.3355,-3.344,-3.4406,-3.4818,-3.4839,-3.5284,-3.5916,-3.6615,-3.6871,0.0,0.0,0.0,0.0,0.0,0.0,0.0,0.0,0.0,0.0,0.0,0.0,0.0,-3.56,-3.56,-3.56,-3.56,-3.56,-3.618,-3.6789,-3.6706,-3.7851,-3.9191,-3.9943,-4.0011,-3.9926,-3.9926,-3.9807,-3.9781,-3.9901,-4.0011,-4.0096,-4.0096,-4.0096,-4.0096,-4.0096,-4.0096,-4.0096,-4.0096,-4.0113,-4.0163,-4.0288,-3.9846,-3.9592,-3.9721,-3.8569,-3.7934,-3.8136,-3.7586,-3.7409,-3.7721,-3.7932,-3.8153,-3.8399,-3.8478,-3.8575,-3.8707,-3.8707,-3.8707,-3.8707,-3.8707,-3.8707,-3.8707,-3.8707,-3.875,-3.8822,-3.8822,-3.8848,-3.8921,-3.8921,-3.8964,-3.9036,-3.917,-3.933,-3.9477,0.0,0.0,0.0,0.0,0.0,0.0,0.0,0.0,0.0,0.0,0.0,0.0,0.0,0.0,0.0,0.0,0.0,0.0,0.0,-3.5924,-3.6313,-3.6354,-3.5009,-3.3953,-3.3314,-3.2068,-3.1387,-3.1295,-3.1232,-3.1799,-3.2983,-3.3271,-3.3897,-3.4793,-3.5251,-3.5457,-3.5479,-3.5799,-3.6118,-3.6395,-3.6527,-3.563,0.0,0.0,0.0,0.0,0.0,0.0,0.0,0.0,-3.2259,-3.2797,-3.3271,-3.3774,-3.4213,-3.4213,-3.4573,-3.4912,-3.4912,-3.5442,-3.6161,-3.6894,-3.7426,-3.7995,-3.8849,-3.9359,-3.9616,-3.9504,-3.9435,-3.9435,-3.9616,-3.9694,-3.9798,-3.9935,-3.9977,-4.0011,-4.007,-4.0096,-4.0096,-4.0096,-4.0096,-3.9952,-3.9536,-3.9353,-3.8911,-3.8031,-3.7617,-3.7275,-3.6936,-3.685,-3.6915,-3.7189,-3.7559,-3.788,-3.8153,-3.835,-3.8478,-3.8575,-3.8658,-3.8707,-3.8707,-3.8707,-3.8707,-3.8707,-3.8707,-3.8704,-3.8735,-3.8735,-3.875,-3.878,-3.878,-3.8825,-3.8896,-3.8979,-3.9101,-3.9264,0.0,0.0,0.0,0.0,0.0,0.0,0.0,0.0,0.0,0.0,0.0,0.0,0.0,0.0,0.0,0.0,0.0,0.0,-3.4934,-3.5378,-3.5666,-3.5684,-3.4668,-3.3959,-3.367,-3.2382,-3.1596,-3.1391,-3.1509,-3.2171,-3.3406,-3.3643,-3.4443,-3.5667,-3.58,-3.5769,-3.5629,-3.6143,-3.6236,-3.607,-3.6381,-3.5688,0.0,0.0,0.0,0.0,0.0,0.0,0.0,0.0,-3.2107,-3.2395,-3.2882,-3.322,-3.3457,-3.3677,-3.4078,-3.4496,-3.4749,-3.5093,-3.5616,-3.6611,-3.6845,-3.6979,-3.7666,-3.8513,-3.9077,-3.8936,-3.8936,-3.8963,-3.9094,-3.9228,-3.9405,-3.9599,-3.9703,-3.9798,-3.991,-3.9784,-3.9699,-3.9699,-3.9504,-3.9191,-3.87,-3.8519,-3.799,-3.6938,-3.6814,-3.6566,-3.6092,-3.6297,-3.6512,-3.6776,-3.7167,-3.7541,-3.7862,-3.8136,-3.8334,-3.8478,-3.8575,-3.8658,-3.8707,-3.8707,-3.8707,-3.8707,-3.8707,-3.8707,-3.8707,-3.8707,-3.8707,-3.8707,-3.8707,-3.8719,-3.8795,-3.8851,-3.8921,-3.9031,0.0,0.0,0.0,0.0,0.0,0.0,0.0,0.0,0.0,0.0,0.0,0.0,0.0,0.0,0.0,0.0,0.0,0.0,-3.4949,-3.4934,-3.5184,-3.5838,-3.486,-3.4139,-3.3791,-3.2687,-3.1929,-3.1615,-3.206,-3.2682,-3.344,-3.415,-3.496,-3.5817,-3.5915,-3.5677,-3.5246,-3.6252,-3.6292,-3.5745,-3.6632,-3.6379,-3.5414,0.0,0.0,0.0,0.0,0.0,0.0,0.0,-3.1701,-3.2293,-3.2293,-3.2797,-3.3541,-3.4269,-3.4385,-3.4482,-3.5273,-3.5308,-3.52,-3.5613,-3.6058,-3.6432,-3.6577,-3.7475,-3.8298,-3.827,-3.827,-3.827,-3.8298,-3.8678,-3.8996,-3.8996,-3.9255,-3.9501,-3.9484,-3.91,-3.8799,-3.8782,-3.8265,-3.7905,-3.7905,-3.7212,-3.6795,-3.6795,-3.6062,-3.5667,-3.5795,-3.5927,-3.6148,-3.6482,-3.6756,-3.7111,-3.7577,-3.7845,-3.8136,-3.8399,-3.8478,-3.8575,-3.8707,-3.8707,-3.8707,-3.8707,-3.8707,-3.8707,-3.8707,-3.8707,-3.8707,-3.8707,-3.8707,-3.8707,-3.8704,-3.8762,-3.8788,-3.8803,0.0,0.0,0.0,0.0,0.0,0.0,0.0,0.0,0.0,0.0,0.0,0.0,0.0,0.0,0.0,0.0,0.0,0.0,-3.4137,-3.4128,-3.4183,-3.4359,-3.3949,-3.3584,-3.3237,-3.2861,-3.2519,-3.2224,-3.2289,-3.2936,-3.4167,-3.3863,-3.4176,-3.5013,-3.4563,-3.437,-3.4381,-3.4711,-3.4814,-3.4789,-3.556,-3.5403,-3.4629,0.0,0.0,0.0,0.0,0.0,0.0,0.0,0.0,0.0,-3.2141,-3.2462,-3.2763,-3.3508,-3.3997,-3.4443,-3.5119,-3.5407,-3.572,-3.6548,-3.6543,-3.6403,-3.6751,-3.7243,-3.7608,-3.734,-3.7326,-3.7385,-3.7608,-3.7783,-3.8014,-3.8439,-3.8595,-3.8581,-3.8405,-3.8339,-3.8178,-3.7795,-3.7741,-3.7566,-3.7044,-3.6884,-3.6575,-3.6011,-3.5718,-3.5622,-3.5667,-3.5795,-3.5949,-3.6148,-3.6447,-3.6776,-3.7111,-3.7522,-3.7828,-3.8054,-3.8256,-3.8467,-3.8707,-3.8707,-3.8707,-3.8707,-3.8707,-3.8707,-3.8707,-3.8707,-3.8707,-3.8707,-3.8707,-3.8358,-3.786,-3.7889,-3.7522,-3.7059,0.0,0.0,0.0,0.0,0.0,0.0,0.0,0.0,0.0,0.0,-3.3807,-3.3807,0.0,0.0,0.0,-3.3807,-3.3807,0.0,-3.3807,-3.3807,-3.378,-3.3698,-3.3577,-3.343,-3.3247,-3.3403,-3.3485,-3.3448,-3.327,-3.3495,-3.4066,-3.3914,-3.4016,-3.4278,-3.3943,-3.3751,-3.3746,-3.4194,-3.4312,-3.425,-3.5042,-3.5059,-3.4583,0.0,0.0,0.0,0.0,0.0,0.0,0.0,0.0,0.0,-3.2513,-3.273,-3.2882,-3.3626,-3.4037,-3.4432,-3.5268,-3.5481,-3.5675,-3.6612,-3.6429,-3.6093,-3.6353,-3.6662,-3.683,-3.6585,-3.6569,-3.6662,-3.6906,-3.7028,-3.7238,-3.7608,-3.7617,-3.7492,-3.7334,-3.7104,-3.6847,-3.6588,-3.6562,-3.643,-3.6041,-3.6171,-3.6078,-3.5583,-3.5577,-3.56,-3.56,-3.5684,-3.5778,-3.5927,-3.5895,-3.5997,-3.6265,-3.6334,-3.6505,-3.679,-3.6978,-3.721,-3.752,-3.8285,-3.8624,-3.8624,-3.8673,-3.8707,-3.8707,-3.8707,-3.8707,-3.867,-3.834,-3.7933,-3.7456,-3.7144,-3.6721,-3.6317,0.0,0.0,-3.2619,-3.2693,0.0,0.0,0.0,0.0,0.0,-3.3807,-3.3807,-3.3807,0.0,0.0,0.0,-3.3807,-3.3807,-3.3807,-3.3807,-3.3807,-3.378,-3.3712,-3.3636,-3.3651,-3.3829,-3.4259,-3.4661,-3.5027,-3.4691,-3.4206,-3.3609,-3.415,-3.4139,-3.3683,-3.3685,-3.3496,-3.3244,-3.4197,-3.4323,-3.399,-3.486,-3.5147,-3.4955,-3.4228,0.0,0.0,0.0,0.0,0.0,0.0,0.0,0.0,-3.3271,-3.3508,-3.3643,-3.437,-3.4499,-3.4614,-3.5726,-3.5626,-3.546,-3.6207,-3.597,-3.563,-3.5679,-3.5926,-3.6116,-3.5973,-3.6053,-3.6148,-3.6133,-3.6352,-3.6523,-3.6569,-3.6371,-3.6206,-3.6172,-3.555,-3.5127,-3.5191,-3.498,-3.4875,-3.5018,-3.5268,-3.5446,-3.5469,-3.5549,-3.56,-3.56,-3.56,-3.5627,-3.5671,-3.516,-3.4977,-3.516,-3.4704,-3.4654,-3.503,-3.5099,-3.532,-3.5674,-3.7442,-3.8274,-3.829,-3.8423,-3.8487,-3.8487,-3.8487,-3.8487,-3.8414,-3.7676,-3.7345,-3.718,-3.645,-3.6138,-3.6064,0.0,0.0,-3.2803,-3.344,0.0,0.0,0.0,0.0,-3.3807,-3.3807,-3.3807,-3.3807,-3.3807,-3.3807,0.0,-3.3807,-3.3807,-3.3807,-3.3807,-3.3807,-3.3775,-3.378,-3.4058,-3.465,-3.5616,-3.5384,-3.548,-3.5921,-3.5053,-3.4813,-3.5109,-3.4117,-3.3622,-3.3581,-3.2549,-3.2181,-3.2387,-3.2878,-3.3146,-3.3315,-3.4231,-3.4616,-3.4596,-3.4309,-3.406,0.0,0.0,0.0,0.0,0.0,0.0,0.0,-3.4075,-3.4252,-3.4404,-3.5143,-3.5643,-3.6057,-3.6622,-3.6685,-3.6657,-3.6945,-3.6338,-3.5634,-3.5574,-3.5587,-3.5651,-3.5619,-3.5619,-3.5668,-3.5799,-3.5424,-3.5231,-3.5477,-3.5031,-3.4577,-3.4309,-3.4301,-3.418,-3.3715,-3.403,-3.4325,-3.4448,-3.4804,-3.5128,-3.5331,-3.5452,-3.5543,-3.56,-3.56,-3.5351,-3.4803,-3.4763,-3.455,-3.4134,-3.4167,-3.4258,-3.4412,-3.4673,-3.4871,-3.503,-3.5946,-3.6477,-3.6607,-3.6769,-3.6817,-3.6817,-3.6817,-3.6817,-3.6798,-3.6615,-3.6138,-3.5518,-3.5334,-3.4876,-3.4339,0.0,0.0,0.0,0.0,0.0,0.0,0.0,0.0,-3.3807,-3.3807,-3.3807,-3.3807,-3.3807,-3.3807,0.0,0.0,-3.3807,-3.3807,-3.3807,-3.3807,-3.3959,-3.4321,-3.4851,-3.5467,-3.6239,-3.6259,-3.6232,-3.6204,-3.5621,-3.5239,-3.5064,-3.4286,-3.3808,-3.3577,-3.2564,-3.23,-3.263,-3.263,-3.2832,-3.315,-3.378,-3.4062,-3.412,-3.4002,-3.3821,-3.3568,-3.3238,0.0,0.0,0.0,0.0,0.0,0.0,0.0,-3.5181,-3.5504,-3.5744,-3.5957,-3.6299,-3.6427,-3.6514,-3.6672,-3.6227,-3.5671,-3.5522,-3.5504,-3.5415,-3.5085,-3.5011,-3.5043,-3.5108,-3.4599,-3.4179,-3.4364,-3.3894,-3.3421,-3.3245,-3.3193,-3.3103,-3.2866,-3.3256,-3.3662,-3.3899,-3.4349,-3.4715,-3.4994,-3.5245,-3.5261,-3.5009,-3.5036,-3.4742,-3.3998,-3.3689,-3.3417,-3.3179,-3.2892,-3.2823,-3.2957,-3.3127,-3.3331,-3.36,-3.5047,-3.581,-3.6009,-3.6102,-3.6164,-3.6164,-3.6194,-3.619,-3.6168,-3.583,-3.5389,-3.4949,-3.4564,-3.4174,-3.3807,0.0,0.0,0.0,0.0,0.0,0.0,0.0,0.0,0.0,-3.4009,-3.3899,-3.3807,-3.3807,-3.3807,-3.3807,0.0,0.0,0.0,-3.3807,-3.3807,-3.4133,-3.4873,-3.5518,-3.5959,-3.6113,-3.6728,-3.6704,-3.6019,-3.5989,-3.5521,-3.4692,-3.4556,-3.4232,-3.3722,-3.3143,-3.2986,-3.3131,-3.2947,-3.2987,-3.3205,-3.3488,-3.3661,-3.3712,-3.3629,-3.3473,-3.3325,-3.3725,-3.384,-3.3952,-3.488,0.0,0.0,0.0,0.0,-3.5426,-3.5294,-3.5217,-3.5234,-3.5497,-3.5795,-3.6039,-3.6136,-3.5978,-3.5767,-3.5651,-3.5497,-3.5192,-3.4655,-3.4503,-3.4474,-3.4354,-3.3769,-3.332,-3.332,-3.2856,-3.2494,-3.2494,-3.2287,-3.2163,-3.2274,-3.2641,-3.2944,-3.3156,-3.3629,-3.4031,-3.4209,-3.4605,-3.4615,-3.4123,-3.4216,-3.396,-3.3237,-3.2632,-3.23,-3.2295,-3.1633,-3.137,-3.1523,-3.1578,-3.1784,-3.2196,-3.4135,-3.5137,-3.5377,-3.5469,-3.5515,-3.553,-3.5619,-3.5648,-3.559,-3.5003,-3.4775,-3.4697,-3.4032,-3.3807,-3.3807,0.0,0.0,0.0,0.0,0.0,0.0,0.0,0.0,0.0,0.0,-3.4215,-3.3807,-3.3807,-3.3807,-3.3807,-3.3807,-3.3807,-3.3807,-3.3807,0.0,0.0,-3.4873,-3.5436,-3.5622,-3.5431,-3.6351,-3.6342,-3.5332,-3.5668,-3.57,-3.543,-3.4793,-3.446,-3.4363,-3.3809,-3.3331,-3.298,-3.3389,-3.339,-3.3147,-3.3459,-3.3671,-3.378,-3.3712,-3.3629,-3.352,-3.3358,-3.406,-3.5044,-3.4853,-3.5103,0.0,0.0,0.0,-3.412,-3.3917,-3.4227,-3.4689,-3.5005,-3.5786,-3.6426,-3.6046,-3.6045,-3.6148,-3.6116,-3.544,-3.4782,-3.4692,-3.4583,-3.4339,-3.3724,-3.3095,-3.2647,-3.2647,-3.2093,-3.1659,-3.1659,-3.1772,-3.187,-3.187,-3.215,-3.2194,-3.1887,-3.2226,-3.2444,-3.2358,-3.2738,-3.3045,-3.3259,-3.3383,-3.3153,-3.2479,-3.2344,-3.1989,-3.1379,-3.1261,-3.123,-3.1249,-3.1423,-3.1632,-3.1873,-3.2406,-3.2855,-3.3245,-3.3481,-3.3557,-3.359,-3.3771,-3.3847,-3.3844,-3.3876,-3.3877,-3.3872,-3.3817,-3.3807,-3.3807,0.0,0.0,0.0,0.0,0.0,0.0,0.0,0.0,0.0,0.0,0.0,-3.3972,-3.4417,-3.4082,-3.3807,-3.3807,-3.3807,-3.3807,-3.3807,-3.3807,-3.416,-3.4911,-3.5078,-3.5232,-3.5406,-3.5507,-3.5231,-3.4525,-3.4985,-3.5123,-3.4996,-3.5537,-3.5537,-3.5115,-3.5032,-3.4679,-3.4167,-3.3791,-3.3646,-3.3683,-3.4072,-3.4304,-3.4467,-3.4976,-3.4806,-3.4373,-3.4654,-3.4795,-3.4877,-3.4991,-3.5155,-3.5257,-3.4955,0.0,0.0,0.0,-3.3877,-3.4052,-3.4622,-3.5018,-3.5412,-3.6134,-3.626,-3.621,-3.5983,-3.5493,-3.4851,-3.394,-3.3608,-3.3366,-3.2991,-3.2378,-3.1929,-3.1929,-3.169,-3.1511,-3.1511,-3.1568,-3.1626,-3.1626,-3.1826,-3.1779,-3.1297,-3.1621,-3.1791,-3.1566,-3.2057,-3.2352,-3.2274,-3.2492,-3.2339,-3.1698,-3.1684,-3.1532,-3.119,-3.119,-3.119,-3.119,-3.1329,-3.1428,-3.1523,-3.1765,-3.2091,-3.2519,-3.275,-3.2864,-3.288,-3.3034,-3.316,-3.3238,-3.3448,-3.3577,-3.3643,-3.3726,-3.3766,-3.3807,0.0,0.0,0.0,0.0,0.0,0.0,0.0,0.0,0.0,0.0,0.0,-3.4325,-3.4931,0.0,0.0,0.0,-3.3807,-3.3807,-3.3807,-3.3807,-3.4082,0.0,-3.467,-3.472,-3.4896,-3.4641,-3.4253,-3.3731,-3.4328,-3.4614,-3.4523,-3.6084,-3.6366,-3.5639,-3.6043,-3.5921,-3.5366,-3.4485,-3.4199,-3.4411,-3.4811,-3.5053,-3.5286,-3.6017,-3.5871,-3.5318,-3.5838,-3.5551,-3.496,-3.5341,-3.5247,-3.4916,-3.4606,-3.4251,0.0,0.0,0.0,-3.3322,-3.3831,-3.4151,-3.4633,-3.5781,-3.6191,-3.6175,-3.5817,-3.5355,-3.4614,-3.334,-3.2788,-3.2434,-3.2258,-3.1839,-3.1511,-3.1511,-3.1511,-3.1511,-3.1511,-3.1511,-3.1511,-3.1511,-3.1626,-3.1453,-3.0746,-3.0976,-3.0985,-3.0555,-3.1069,-3.1352,-3.1193,-3.1474,-3.1489,-3.1168,-3.1151,-3.1171,-3.119,-3.119,-3.119,-3.119,-3.1252,-3.1274,-3.1274,-3.1447,-3.1711,-3.2073,-3.2318,-3.242,-3.2437,-3.2602,-3.275,-3.2914,-3.318,-3.3375,-3.3506,-3.3591,-3.3675,-3.3698,0.0,0.0,0.0,0.0,0.0,0.0,0.0,0.0,0.0,0.0,0.0,-3.4949,-3.5004,-3.4968,-3.4637,-3.3862,-3.3807,-3.3807,-3.3807,-3.3807,0.0,0.0,-3.428,0.0,-3.3245,-3.3935,-3.3875,-3.2955,-3.401,-3.451,-3.4523,-3.6084,-3.6366,-3.5633,-3.648,-3.6558,-3.6028,-3.565,-3.5361,-3.5167,-3.5497,-3.5796,-3.6073,-3.6219,-3.6266,-3.6215,-3.6142,-3.6062,-3.5996,-3.5905,-3.5326,-3.4584,-3.4315,-3.3565,-3.2727,0.0,0.0,0.0,-3.2277,-3.3473,-3.4756,-3.4709,-3.5414,-3.6061,-3.5926,-3.4869,-3.3799,-3.3442,-3.2553,-3.1772,-3.1584,-3.1525,-3.1511,-3.1511,-3.1511,-3.1511,-3.1511,-3.1511,-3.1511,-3.1511,-3.1511,-3.1087,-2.9964,-2.9944,-2.9602,-2.8704,-2.9022,-2.9512,-3.0055,-3.0274,-3.0572,-3.0995,-3.1015,-3.1055,-3.119,-3.119,-3.119,-3.119,-3.121,-3.121,-3.121,-3.1274,-3.1334,-3.1372,-3.1766,-3.193,-3.1948,-3.2214,-3.2404,-3.2557,-3.2898,-3.307,-3.3147,-3.3349,-3.3408,-3.3422,0.0,0.0,0.0,0.0,0.0,0.0,0.0,0.0,0.0,0.0,0.0,0.0,0.0,-3.5646,-3.4876,-3.4601,-3.41,-3.3807,-3.3807,-3.3807,0.0,0.0,-3.3807,-3.3575,-3.3101,-3.2914,-3.2625,-3.2179,-3.2801,-3.3322,-3.3829,-3.5334,-3.6146,-3.6406,-3.6735,-3.6587,-3.6011,-3.5691,-3.5579,-3.574,-3.6734,-3.7219,-3.7505,-3.8771,-3.8614,-3.7717,-3.7747,-3.7103,-3.6135,-3.5484,-3.5042,-3.467,-3.3973,-3.3412,-3.2925,-3.2403,-3.2175,-3.2115,-3.2238,-3.2719,-3.3461,-3.4582,-3.5143,-3.544,-3.5661,-3.5142,-3.4356,-3.3365,-3.2717,-3.2191,-3.1769,-3.1597,-3.1511,-3.1511,-3.1511,-3.1511,-3.1511,-3.1511,-3.1511,-3.1511,-3.1511,-3.118,-3.0323,-3.0355,-3.0012,-2.9029,-2.929,-2.954,-2.9665,-2.9946,-3.0267,-3.0671,-3.0834,-3.1032,-3.119,-3.119,-3.119,-3.119,-3.119,-3.119,-3.119,-3.1213,-3.1232,-3.1232,-3.1387,-3.1521,-3.1653,-3.1802,-3.1966,-3.2144,-3.2403,-3.262,-3.2864,-3.2972,-3.3099,-3.3211,0.0,0.0,0.0,-3.8443,0.0,-3.7559,-3.6647,-3.6675,-3.6875,-3.7069,0.0,0.0,0.0,0.0,-3.572,-3.5463,-3.4945,-3.4504,-3.4229,-3.4197,0.0,0.0,-3.3534,-3.3319,-3.3101,-3.2385,-3.1931,-3.18,-3.2137,-3.2564,-3.3051,-3.4303,-3.5165,-3.5678,-3.5711,-3.5936,-3.6278,-3.5887,-3.5924,-3.6309,-3.7593,-3.824,-3.8558,-3.9901,-3.9781,-3.8848,-3.8703,-3.7796,-3.6615,-3.5984,-3.5402,-3.481,-3.4166,-3.3618,-3.3114,-3.2638,-3.2283,-3.2052,-3.2198,-3.2307,-3.2682,-3.3867,-3.4269,-3.4499,-3.4954,-3.4791,-3.4277,-3.3408,-3.2964,-3.2586,-3.2094,-3.1826,-3.1611,-3.1511,-3.1511,-3.1511,-3.1511,-3.1511,-3.1511,-3.1511,-3.1511,-3.1241,-3.0567,-3.0563,-3.0187,-2.9134,-2.9306,-2.9417,-2.9236,-2.9528,-2.9924,-3.0468,-3.0773,-3.1032,-3.119,-3.119,-3.119,-3.119,-3.119,-3.119,-3.119,-3.119,-3.119,-3.119,-3.119,-3.1269,-3.1404,-3.1466,-3.1598,-3.1784,-3.1984,-3.2214,-3.2453,-3.2502,-3.2619,-3.2734,-3.8579,-3.93,-3.943,-3.8013,-3.7868,-3.7527,-3.617,-3.6328,-3.6675,-3.691,0.0,0.0,0.0,0.0,0.0,-3.6358,-3.6303,-3.5936,-3.5096,-3.5023,-3.4656,-3.3917,-3.3589,-3.334,-3.3173,-3.242,-3.1966,-3.1834,-3.2119,-3.2276,-3.2327,-3.3034,-3.3389,-3.3406,-3.3406,-3.4672,-3.6769,-3.6336,-3.6406,-3.6886,-3.8109,-3.8736,-3.9013,-3.9369,-3.9541,-3.9498,-3.8791,-3.8099,-3.7529,-3.7511,-3.6413,-3.5045,-3.4934,-3.412,-3.3175,-3.2961,-3.2639,-3.2266,0.0,0.0,0.0,-3.2505,-3.2827,-3.3302,-3.3851,-3.3657,-3.3444,-3.3613,-3.3287,-3.2833,-3.2431,-3.2145,-3.1881,-3.1538,-3.1496,-3.1511,-3.1511,-3.1511,-3.1511,-3.1511,-3.1511,-3.1241,-3.0597,-3.0537,-3.0053,-2.8936,-2.896,-2.8945,-2.874,-2.8974,-2.9528,-3.0447,-3.0814,-3.1072,-3.119,-3.119,-3.119,-3.119,-3.119,-3.119,-3.119,-3.119,-3.119,-3.119,-3.119,-3.119,-3.121,-3.1274,-3.137,-3.1517,-3.1707,-3.1838,-3.1894,-3.195,-3.2003,-3.2021,-3.8935,-3.9339,-3.9485,-3.9078,-3.8207,-3.7498,-3.7306,-3.7009,-3.6983,0.0,0.0,0.0,-3.818,-3.7778,-3.718,-3.6358,-3.6303,-3.6193,-3.5954,-3.5353,-3.5188,-3.5587,-3.4699,-3.4406,-3.4826,-3.353,-3.2782,-3.2593,-3.1864,-3.1785,-3.2293,-3.2513,-3.2882,-3.3406,-3.3406,-3.3766,-3.4418,-3.5061,-3.5759,-3.6541,-3.7757,-3.841,-3.8731,-3.9605,-3.9662,-3.9315,-3.9299,-3.8844,-3.8154,-3.7661,-3.7199,-3.6578,-3.5296,-3.4254,-3.3444,-3.319,-3.2945,-3.2655,-3.2231,0.0,0.0,0.0,0.0,0.0,-3.3285,-3.3261,-3.3044,-3.2744,-3.2434,-3.2028,-3.1424,-3.1522,-3.1581,-3.1155,-3.1324,-3.1511,-3.1511,-3.1511,-3.1511,-3.1511,-3.1511,-3.1436,-3.1241,-3.1212,-3.0924,-3.0235,-2.9795,-2.9431,-2.907,-2.9187,-2.9522,-3.0135,-3.0551,-3.0875,-3.1055,-3.1151,-3.119,-3.119,-3.119,-3.119,-3.119,-3.119,-3.119,-3.119,-3.119,-3.119,-3.119,-3.123,-3.1291,-3.1351,-3.1428,-3.1542,-3.1691,-3.1693,-3.1766,-3.1857,-3.856,-3.9265,-3.9651,-3.9361,-3.8647,-3.8122,-3.8057,-3.7868,-3.7903,0.0,0.0,0.0,-3.8946,-3.8635,-3.8126,-3.7367,-3.7294,-3.7165,-3.6817,-3.6321,-3.6087,-3.6204,-3.5448,-3.5151,-3.5374,-3.4251,-3.3543,-3.3328,-3.2525,-3.2171,-3.2293,-3.2293,-3.2378,-3.2476,-3.2476,-3.2645,-3.3004,-3.4,-3.4919,-3.5855,-3.7269,-3.7991,-3.8302,-3.9063,-3.9187,-3.8996,-3.8952,-3.8735,-3.8405,-3.8044,-3.7738,-3.7202,-3.549,-3.4576,-3.4039,-3.3521,-3.319,-3.2961,-3.2588,-3.2249,-3.2015,-3.2202,0.0,0.0,-3.2681,-3.2723,-3.2615,-3.2518,-3.2335,-3.1971,-3.1429,-3.1357,-3.1348,-3.1202,-3.1271,-3.1396,-3.1495,-3.1511,-3.1511,-3.1511,-3.1511,-3.1511,-3.1511,-3.1511,-3.1255,-3.0651,-3.0288,-2.9833,-2.9241,-2.9154,-2.9364,-2.9903,-3.0384,-3.0753,-3.0995,-3.1131,-3.119,-3.119,-3.119,-3.119,-3.119,-3.119,-3.119,-3.119,-3.119,-3.119,-3.119,-3.119,-3.1213,-3.1271,-3.1271,-3.1329,-3.1445,-3.1445,-3.1483,-3.1557,0.0,-3.914,-3.9893,-3.9225,-3.9154,-3.901,-3.8562,-3.8691,-3.8977,0.0,-3.9763,-3.9912,-3.9689,-3.9732,-3.952,-3.8847,-3.8789,-3.8456,-3.7646,-3.7518,-3.7124,-3.6376,-3.6038,-3.5735,-3.5454,-3.4757,-3.4283,-3.402,-3.3607,-3.3068,-3.2429,-3.2429,-3.2039,-3.1309,-3.1309,-3.165,-3.2226,-3.3107,-3.3938,-3.4882,-3.6629,-3.7447,-3.7659,-3.7988,-3.8288,-3.845,-3.8097,-3.8119,-3.8368,-3.8446,-3.8028,-3.7221,-3.5724,-3.5164,-3.4902,-3.4122,-3.3644,-3.3316,-3.3102,-3.2659,-3.2197,-3.1984,-3.1637,0.0,-3.2076,-3.2107,-3.2131,-3.2517,-3.2448,-3.2196,-3.1797,-3.1374,-3.118,-3.1415,-3.1362,-3.1348,-3.1507,-3.1539,-3.1539,-3.1511,-3.1511,-3.1511,-3.1511,-3.1511,-3.1256,-3.0672,-3.0552,-3.0102,-2.9205,-2.9024,-2.9176,-2.9722,-3.0177,-3.0613,-3.0955,-3.1112,-3.119,-3.119,-3.119,-3.119,-3.119,-3.1106,-3.1072,-3.1072,-3.0987,-3.1004,-3.1072,-3.1072,-3.1123,-3.119,-3.119,-3.119,-3.119,-3.119,-3.119,-3.121,-3.8667,-3.9503,-4.0062,-3.991,-3.9419,-3.9052,-3.9044,-3.8647,-3.8493,-3.8955,-3.9582,-4.0015,-4.0094,-4.0239,-4.0072,-3.9393,-3.9337,-3.9024,-3.8282,-3.758,-3.7389,-3.7847,-3.6904,-3.654,-3.695,-3.5805,-3.5057,-3.4792,-3.3862,-3.3339,-3.3186,-3.3186,-3.278,-3.209,-3.209,-3.1853,-3.1464,-3.2229,-3.2995,-3.3829,-3.5583,-3.6371,-3.6538,-3.6752,-3.7023,-3.7286,-3.7576,-3.7828,-3.802,-3.8256,-3.7888,-3.7281,-3.6936,-3.6468,-3.5981,-3.5692,-3.5049,-3.4347,-3.4099,-3.3298,-3.2454,-3.2214,-3.193,0.0,-3.1649,-3.155,-3.143,-3.1362,-3.1269,-3.1087,-3.0695,-3.0825,-3.0937,-3.06,-3.124,-3.1762,-3.1736,-3.1727,-3.167,-3.1511,-3.1511,-3.1511,-3.1511,-3.1511,-3.1451,-3.1316,-3.0806,-3.0021,-2.8949,-2.9092,-2.923,-2.9227,-2.9793,-3.0305,-3.0753,-3.0952,-3.1075,-3.119,-3.119,-3.119,-3.1173,-3.0581,-3.0311,-3.0294,-2.9685,-2.977,-3.0311,-3.0311,-3.0666,-3.119,-3.119,-3.119,-3.119,-3.119,-3.119,-3.121,-3.8853,-3.9605,-4.0096,-4.0096,-3.9791,-3.9579,-3.9719,-3.9452,-3.9382,-3.9756,-4.0307,-4.0671,-4.0576,-4.0678,-4.0506,-3.986,-3.9806,-3.9498,-3.8753,-3.8286,-3.8001,-3.7915,-3.7291,-3.6984,-3.6995,-3.6249,-3.5707,-3.539,-3.48,-3.432,-3.3947,-3.3947,-3.3558,-3.2848,-3.2848,-3.2425,-3.1819,-3.2936,-3.3389,-3.3508,-3.4737,-3.5547,-3.6014,-3.6187,-3.6426,-3.6736,-3.7089,-3.7449,-3.7828,-3.8104,-3.7792,-3.7244,-3.7244,-3.6757,-3.6175,-3.6087,-3.5417,-3.4661,-3.4493,-3.3617,-3.2688,-3.2454,-3.2109,0.0,0.0,-3.1408,-3.1274,-3.1114,-3.1015,-3.0875,-3.0654,-3.0686,-3.0724,-3.0654,-3.1007,-3.1303,-3.1358,-3.1683,-3.1841,-3.167,-3.1568,-3.1511,-3.1511,-3.1511,-3.1511,-3.1511,-3.0896,-3.0143,-2.9343,-2.9261,-2.9166,-2.9013,-2.9595,-3.0135,-3.0589,-3.0875,-3.1072,-3.119,-3.119,-3.1004,-3.0632,-3.0277,-2.9905,-2.9533,-2.9162,-2.9213,-2.955,-2.955,-2.9989,-3.0683,-3.1055,-3.119,-3.119,-3.119,-3.119,-3.119,-3.9039,-3.9706,-4.0096,-4.0096,-4.0096,-4.0138,-4.0238,-4.0263,-4.0355,-4.0624,-4.1041,-4.1191,-4.0965,-4.1002,-4.0788,-4.0222,-4.0151,-3.9867,-3.9136,-3.9063,-3.8613,-3.7662,-3.7513,-3.7154,-3.6571,-3.6343,-3.6105,-3.5795,-3.5667,-3.5295,-3.4709,-3.4709,-3.432,-3.3609,-3.3609,-3.3203,-3.2598,-3.3778,-3.4032,-3.366,-3.4252,-3.5011,-3.5773,-3.591,-3.6148,-3.6423,-3.6652,-3.7002,-3.7381,-3.7611,-3.7308,-3.6869,-3.6885,-3.6492,-3.6024,-3.5967,-3.5327,-3.4649,-3.4558,-3.3746,-3.2852,-3.2639,-3.2284,-3.1876,0.0,0.0,0.0,-3.123,-3.1112,-3.0995,-3.0915,-3.0733,-3.0671,-3.0904,-3.0881,-3.0851,-3.0875,-3.1413,-3.1787,-3.1643,-3.158,-3.1539,-3.1511,-3.1511,-3.1511,-3.1511,-3.0987,-3.046,-2.9967,-2.9527,-2.9208,-2.8982,-2.9405,-2.9859,-3.0363,-3.0695,-3.0955,-3.1112,-3.0999,-3.0647,-3.0053,-2.9785,-2.933,-2.8773,-2.862,-2.8637,-2.8773,-2.8773,-2.9211,-2.9973,-3.07,-3.1072,-3.119,-3.119,-3.119,-3.119,-3.9706,-4.0045,-4.0096,-4.0096,-4.0096,-4.0113,-4.0138,-4.0138,-4.0238,-4.0485,-4.0724,-4.0902,-4.0995,-4.1093,-4.0958,-4.0422,-4.0352,-4.0102,-3.9492,-3.9294,-3.8819,-3.8066,-3.7746,-3.7203,-3.636,-3.6148,-3.5971,-3.5795,-3.5667,-3.5549,-3.5481,-3.5481,-3.5081,-3.437,-3.437,-3.3964,-3.3288,-3.3457,-3.3846,-3.437,-3.4455,-3.4945,-3.5644,-3.5773,-3.591,-3.6105,-3.6423,-3.6317,-3.6032,-3.6126,-3.5918,-3.5617,-3.5681,-3.5756,-3.5828,-3.5812,-3.5206,-3.4496,-3.4382,-3.3615,-3.2836,-3.2574,-3.2336,-3.2073,-3.1691,0.0,-3.1423,-3.123,0.0,-3.1151,-3.0995,0.0,0.0,-3.0767,-3.1061,-3.1197,-3.0861,-3.1037,-3.1161,-3.1007,-3.1449,-3.1698,-3.1511,-3.1511,-3.1511,-3.1511,-3.1436,-3.1092,-3.0475,-2.9982,-2.9583,-2.9258,-2.9076,-2.928,-2.9859,-3.0225,-3.0514,-3.0753,-3.0264,-2.9991,-2.9873,-2.8633,-2.8027,-2.7891,-2.7249,-2.7334,-2.7942,-2.7942,-2.8416,-2.9213,-2.9939,-3.0632,-3.119,-3.119,-3.119,-3.119,-3.9893,-4.0096,-4.0096,-4.0096,-4.0096,-4.0096,-4.0096,-4.0096,-4.0163,-4.0362,-4.0444,-4.059,-4.0799,-4.0871,-4.085,-4.07,-4.0688,-4.0381,-3.9647,-3.9524,-3.9128,-3.8304,-3.7741,-3.7188,-3.6669,-3.6132,-3.5839,-3.5689,-3.5622,-3.56,-3.56,-3.56,-3.543,-3.5148,-3.5148,-3.4726,-3.4066,-3.4484,-3.4607,-3.4523,-3.4979,-3.5312,-3.56,-3.5667,-3.5773,-3.5859,-3.5693,-3.5581,-3.5475,-3.5176,-3.4836,-3.4615,-3.5079,-3.5001,-3.4828,-3.5214,-3.4735,-3.4077,-3.4044,-3.329,-3.2522,-3.237,-3.2161,-3.1893,-3.1614,-3.1464,-3.1349,-3.123,0.0,0.0,0.0,0.0,0.0,0.0,-3.102,-3.0974,-3.0577,-3.0755,-3.1028,-3.1285,-3.129,-3.1332,-3.1495,-3.1511,-3.1511,-3.1511,-3.1511,-3.1212,-3.0537,-3.006,-2.9626,-2.9245,-2.8955,-2.9051,-2.9611,-2.9946,-3.0049,-2.9897,-2.9765,-2.9259,-2.8386,-2.7897,-2.7394,-2.6905,-2.6724,-2.6826,-2.7112,-2.7147,-2.7621,-2.8332,-2.8635,-2.9497,-3.0615,-3.1038,-3.119,-3.119,-3.996,-4.0096,-4.0096,-4.0096,-4.0096,-4.0096,-4.0096,-4.0096,-4.0121,-4.0238,-4.0238,-4.0313,-4.051,-4.0551,-4.0583,-4.0728,-4.0745,-4.0504,-3.9978,-3.9879,-3.9506,-3.8659,-3.8065,-3.7479,-3.6893,-3.6344,-3.5909,-3.56,-3.56,-3.56,-3.56,-3.56,-3.56,-3.56,-3.56,-3.5295,-3.4844,-3.5363,-3.5301,-3.4844,-3.538,-3.56,-3.56,-3.56,-3.5531,-3.5382,-3.5015,-3.4703,-3.4476,-3.41,-3.3702,-3.3423,-3.397,-3.3828,-3.3559,-3.4041,-3.3759,-3.33,-3.3283,-3.2757,-3.2162,-3.2056,-3.1893,-3.169,-3.15,-3.137,-3.1293,-3.121,-3.119,0.0,0.0,0.0,-3.1171,-3.1055,0.0,-3.0814,-3.0514,-3.0582,-3.0794,-3.1144,-3.1018,-3.1084,-3.1537,-3.1539,-3.1511,-3.1511,-3.1511,-3.1286,-3.0806,-3.0111,-2.9637,-2.9357,-2.8796,-2.874,-2.9175,-2.9351,-2.9264,-2.8992,-2.8863,-2.8199,-2.7154,-2.7158,-2.6829,-2.6278,-2.6469,-2.6572,-2.6606,-2.6674,-2.7012,-2.7519,-2.7722,-2.8618,-2.9888,-3.0632,-3.1021,-3.119,-3.996,-4.0096,-4.0096,-4.0096,-4.0096,-4.0096,-4.0096,-4.0096,-4.0096,-4.0113,-4.0113,-4.0096,-4.0138,-4.0138,-4.0163,-4.0305,-4.033,-4.0362,-4.0476,-4.0353,-3.9955,-3.92,-3.9035,-3.8268,-3.6829,-3.6778,-3.6366,-3.56,-3.56,-3.56,-3.56,-3.56,-3.56,-3.56,-3.56,-3.5583,-3.5566,-3.5583,-3.5583,-3.5566,-3.5583,-3.56,-3.56,-3.56,-3.5165,-3.4544,-3.4527,-3.3677,-3.261,-3.2642,-3.2303,0.0,-3.1963,-3.2019,-3.2073,-3.209,-3.2073,-3.2038,-3.1983,-3.193,-3.1858,-3.1673,-3.1617,-3.156,-3.1353,-3.1295,-3.1293,-3.121,-3.119,-3.119,-3.119,-3.119,-3.119,-3.119,-3.1092,0.0,0.0,-3.0551,-3.0261,-3.0157,-3.0592,-3.1139,-3.1724,-3.1597,-3.1511,-3.1511,-3.1511,-3.1496,-3.1466,-3.0283,-2.966,-2.978,-2.8627,-2.8152,-2.842,-2.8123,-2.8063,-2.822,-2.7179,-2.675,-2.6798,-2.6299,-2.6115,-2.6206,-2.6348,-2.6469,-2.6606,-2.6674,-2.6708,-2.681,-2.7519,-2.8315,-2.9128,-2.9871,-3.0598,-3.119,-4.0045,-4.0096,-4.0096,-4.0096,-4.0096,-4.0096,-4.0096,-4.0096,-4.0096,-4.0096,-4.0096,-4.0096,-4.0096,-4.0096,-4.0138,-4.0163,-4.0163,-4.0188,-4.0221,-4.0188,-4.0061,-3.9807,-3.9283,-3.8751,-3.8261,-3.7303,-3.6677,-3.6383,-3.5853,-3.56,-3.56,-3.56,-3.56,-3.56,-3.56,-3.5594,-3.552,-3.552,-3.5475,-3.5406,-3.5498,-3.552,-3.5543,-3.5577,-3.5148,-3.4438,-3.3947,-3.3215,0.0,-3.1913,-3.1707,-3.1671,-3.1634,-3.1673,-3.173,-3.1673,-3.1671,-3.1671,0.0,0.0,-3.1487,-3.1411,-3.137,-3.131,-3.1252,-3.1232,-3.123,-3.121,-3.119,-3.119,-3.119,-3.119,-3.119,-3.119,-3.1151,-3.1075,0.0,-3.0576,-3.038,-3.0553,-3.1039,-3.1512,-3.1908,-3.1784,-3.1641,-3.1511,-3.1511,-3.1511,-3.1511,-3.0687,-3.0068,-2.9813,-2.8973,-2.8445,-2.8275,-2.7837,-2.7476,-2.7199,-2.6607,-2.6027,-2.5481,-2.5477,-2.5476,-2.5495,-2.5901,-2.6134,-2.6224,-2.6521,-2.6623,-2.6674,-2.6962,-2.7858,-2.9094,-2.9837,-3.0565,-3.119,-3.991,-3.9961,-4.0037,-4.007,-4.0096,-4.0096,-4.0096,-4.0096,-4.0096,-4.0096,-4.0096,-4.0096,-4.0096,-4.0096,-4.0096,-4.0096,-4.0096,-4.0096,-4.0096,-4.0096,-4.0096,-4.0096,-3.9656,-3.9259,-3.9005,-3.8082,-3.7337,-3.6795,-3.6282,-3.587,-3.5571,-3.5571,-3.5526,-3.5418,-3.5418,-3.5367,-3.5291,-3.5245,-3.5198,-3.5175,-3.5354,-3.5423,-3.5446,-3.5526,-3.4952,-3.4049,-3.3575,-3.2805,-3.195,-3.1441,-3.1351,-3.1445,-3.1404,-3.1423,-3.1445,-3.1404,-3.1402,-3.1402,-3.1402,-3.1329,0.0,-3.1254,-3.1232,-3.119,-3.119,-3.119,-3.119,-3.119,-3.119,-3.119,-3.119,-3.119,-3.119,-3.119,-3.119,-3.1151,0.0,-3.0736,-3.0611,-3.091,-3.0972,-3.1201,-3.1692,-3.1548,-3.1428,-3.1496,-3.1511,-3.1511,-3.1511,-3.0853,-3.025,-2.9744,-2.9068,-2.8494,-2.7989,-2.7254,-2.6726,-2.6408,-2.5764,-2.5174,-2.4614,-2.4895,-2.4993,-2.5013,-2.5511,-2.5789,-2.5919,-2.6294,-2.6468,-2.6503,-2.6607,-2.7417,-2.8634,-2.9431,-3.0345,-3.119,-3.9501,-3.9694,-3.9926,-4.0062,-4.007,-4.0096,-4.0096,-4.013,-4.0146,-4.0096,-4.013,-4.0146,-4.0096,-4.0096,-4.0096,-4.0096,-4.0096,-4.0096,-4.0096,-4.0096,-4.0096,-4.0096,-4.0096,-3.9774,-3.9056,-3.9005,-3.8294,-3.6891,-3.6823,-3.6348,-3.5519,-3.5486,-3.5314,-3.5065,-3.5065,-3.4994,-3.4851,-3.4715,-3.4739,-3.4875,-3.5152,-3.5245,-3.5268,-3.5423,-3.4594,-3.3364,-3.3385,-3.2439,-3.119,-3.119,-3.119,-3.119,-3.119,-3.119,-3.119,-3.119,-3.1173,-3.114,-3.114,-3.1106,-3.1089,-3.1089,-3.1089,0.0,-3.1089,-3.1106,-3.114,-3.114,-3.1173,-3.119,-3.119,-3.119,-3.119,-3.119,-3.119,-3.1151,-3.1015,-3.0952,-3.0958,-3.1144,-3.04,-3.0254,-3.1171,-3.0934,-3.0932,-3.1406,-3.1481,-3.1511,-3.1511,-3.0883,-3.0253,-2.9636,-2.8981,-2.8308,-2.76,-2.6393,-2.5824,-2.5871,-2.4676,-2.4162,-2.4281,-2.4487,-2.465,-2.4775,-2.5185,-2.5457,-2.5682,-2.6028,-2.6207,-2.6295,-2.6503,-2.706,-2.7852,-2.8737,-2.9974,-3.119,-3.9121,-3.9249,-3.9435,-3.9616,-3.991,-4.0096,-4.0096,-4.0561,-4.0713,-4.018,-4.0561,-4.0696,-4.0163,-4.0096,-4.0096,-4.0096,-4.0096,-4.0096,-4.0096,-4.0096,-4.0096,-4.0096,-4.0096,-4.0011,-3.9825,-3.9276,-3.877,-3.8301,-3.7195,-3.6438,-3.6016,-3.5355,-3.497,-3.4804,-3.4691,-3.4521,-3.43,-3.4275,-3.4226,-3.4176,-3.4448,-3.4635,-3.4715,-3.497,-3.4149,-3.2917,-3.3103,-3.2232,-3.0972,-3.0972,-3.1012,-3.1055,-3.1055,-3.1131,-3.119,-3.119,-3.0818,-3.0378,-3.0378,-2.9973,-2.9568,-2.9568,-2.9568,-2.9568,0.0,0.0,0.0,-3.0378,-3.0818,-3.119,-3.119,-3.119,-3.119,-3.119,-3.119,-3.119,-3.1151,-3.1012,-3.0857,-3.0691,-3.0041,-2.9911,-3.0701,-3.0976,-3.0973,-3.079,-3.1212,-3.1511,-3.1511,-3.1331,-3.0746,-2.9636,-2.9415,-2.8783,-2.76,-2.6393,-2.5816,-2.5809,-2.4598,-2.3988,-2.3946,-2.4073,-2.4156,-2.4219,-2.463,-2.4895,-2.5056,-2.5551,-2.5775,-2.5885,-2.6188,-2.7203,-2.8609,-2.9495,-3.0395,-3.119,-3.8674,-3.9007,-3.9341,-3.9648,-3.9971,-4.026,-4.0458,-4.0856,-4.0983,-4.0629,-4.0933,-4.0916,-4.018,-4.0096,-4.0096,-4.0096,-4.0096,-4.0096,-4.0096,-4.0096,-4.0096,-4.0096,-4.0096,-4.0096,-4.0096,-3.9706,-3.9252,-3.8799,-3.758,-3.6625,-3.5918,-3.5053,-3.4448,-3.4043,-3.3968,-3.379,-3.3533,-3.3585,-3.3585,-3.3559,-3.3958,-3.4126,0.0,-3.4448,-3.3596,-3.2226,-3.238,-3.1703,-3.0733,-3.0733,-3.0753,-3.0794,-3.0794,-3.0834,-3.0845,-3.0526,-3.0177,-2.9774,-2.9477,-2.9093,-2.8792,-2.8864,-2.8864,-2.8864,-2.8864,-2.9201,-2.9486,0.0,-3.0058,-3.06,0.0,-3.0873,-3.1052,-3.0992,-3.0992,-3.0955,-3.0895,-3.0794,-3.0609,-3.0316,-2.9848,-2.9591,-2.9661,-3.0006,-3.0303,-3.049,-3.0866,-3.1182,-3.1481,-3.1511,-3.0913,-2.9651,-2.9606,-2.8963,-2.76,-2.6345,-2.5708,-2.5693,-2.4445,-2.3797,-2.3717,-2.3861,-2.3903,-2.3925,-2.4245,-2.4451,-2.463,-2.5072,-2.5323,-2.5476,-2.5937,-2.7175,-2.8749,-2.928,-3.02,-3.119,-3.8384,-3.8888,-3.9405,-3.9838,-4.0097,-4.0426,-4.1007,-4.1211,-4.1266,-4.1212,-4.1288,-4.1018,-4.0197,-4.0096,-4.0096,-4.0096,-4.0096,-4.0096,-4.0096,-4.0096,-4.0096,-4.0096,-4.0096,-4.007,-4.007,-4.007,-3.964,-3.8833,-3.7878,-3.6779,-3.5582,-3.4599,-3.3764,-3.314,-3.3097,-3.2964,-3.2722,-3.2819,-3.2884,-3.2949,-3.3481,-3.3626,-3.3591,-3.3832,-3.2914,-3.1485,-3.1485,-3.1017,-3.0363,-3.0363,-3.0384,-3.0405,-3.0405,-3.0426,-3.0315,-2.9661,-2.938,-2.9168,-2.8486,-2.8241,-2.8194,-2.8321,-2.8375,-2.8375,-2.8356,-2.8423,-2.849,-2.8471,-2.9073,-2.9613,-2.9676,-3.0238,-3.0694,-3.0654,-3.0651,-3.0589,-3.0485,-3.0426,-3.03,-2.9995,-2.9677,0.0,-2.855,-2.8807,-2.9403,-3.031,-3.0462,-3.0806,-3.1466,-3.1511,-3.0913,-2.9651,-2.9606,-2.8918,-2.748,-2.6228,-2.557,-2.5442,-2.4208,-2.3595,-2.3595,-2.3717,-2.376,-2.3782,-2.3973,-2.4135,-2.4261,-2.4574,-2.4855,-2.5111,-2.5698,-2.692,-2.8403,-2.8567,-2.9657,-3.1072,-3.8601,-3.8809,-3.9062,-3.9437,-3.9668,-4.024,-4.1484,-4.2309,-4.2419,-4.1347,-4.1728,-4.1576,-4.0248,-4.0096,-4.0096,-4.0096,-4.0096,-4.0096,-4.0096,-4.0096,-4.0096,-4.0096,-4.0096,-4.0062,-3.9952,-3.9952,-3.961,-3.8976,-3.7534,-3.6405,-3.5566,-3.3974,-3.3029,-3.2695,-3.2602,-3.2453,-3.2287,-3.2219,-3.2247,-3.237,-3.259,-3.2711,-3.2819,-3.2964,-3.217,-3.0942,-3.0942,-3.0386,-2.9671,-2.9671,-2.9788,-2.9924,-2.9924,-3.0065,-3.0105,-2.9371,-2.8746,-2.8102,-2.7438,-2.6869,-2.6444,-2.6478,-2.6551,-2.6605,-2.6497,-2.6943,-2.7356,-2.7297,-2.7929,-2.8483,-2.8503,0.0,-2.9753,-3.0273,-3.0321,-3.0274,-3.0253,-3.0065,-2.9875,-2.97,-2.9189,-2.8724,-2.8453,-2.8872,-2.9336,-2.9738,-3.0223,-3.0806,-3.1466,0.0,-3.0913,0.0,-2.9606,0.0,0.0,0.0,-2.5307,-2.4769,-2.3984,-2.3595,-2.3595,-2.3616,-2.3653,-2.3653,-2.3782,-2.3882,-2.3925,-2.4141,-2.4456,-2.4895,-2.5323,-2.6464,-2.7858,-2.805,-2.9087,-3.0401,-3.89,-3.9016,-3.9199,-3.9608,-3.9881,-4.0341,-4.1378,-4.2313,-4.2667,-4.2065,-4.1936,-4.1597,-4.0669,-4.0222,-4.0037,-4.0096,-4.0096,-4.0096,-4.0096,-4.0096,-4.0096,-4.0096,-4.0037,-3.9935,-3.9781,-3.9635,-3.9276,-3.8805,-3.7492,-3.6302,-3.5215,-3.3928,-3.29,-3.2163,-3.2023,-3.1881,-3.184,-3.1883,-3.194,-3.2025,-3.2219,-3.2287,-3.2287,-3.2437,-3.1605,-3.0371,-3.0371,-2.967,-2.8756,-2.8997,-2.9143,-2.9219,-2.9219,-2.9325,-2.9272,-2.8568,-2.7881,-2.7198,-2.6583,-2.5934,-2.546,-2.557,-2.5645,-2.5647,-2.5607,-2.5867,-2.611,-2.6072,-2.6678,-2.7335,-2.7713,-2.8478,0.0,-2.9157,-2.9419,-2.9589,-2.9438,-2.9325,-2.9173,-2.9051,-2.874,-2.8438,-2.8226,-2.8353,-2.8798,-2.9532,-2.9864,-3.0462,-3.1451,0.0,-3.0913,0.0,0.0,0.0,-2.6617,0.0,-2.5247,-2.459,-2.3924,-2.3595,-2.3595,-2.3595,-2.3595,-2.3595,-2.3674,-2.3696,-2.3717,-2.3952,-2.4224,-2.4589,-2.4934,-2.601,-2.7384,-2.7586,-2.8511,-2.97,-3.9195,-3.9245,-3.9398,-3.9843,-4.0111,-4.0441,-4.104,-4.1757,-4.223,-4.2295,-4.1841,-4.1255,-4.0622,-4.0081,-3.979,-3.9893,-3.9918,-3.9918,-3.9918,-3.9918,-3.9918,-3.9918,-3.9807,-3.9677,-3.9504,-3.9222,-3.8827,-3.8343,-3.7291,-3.6115,-3.4891,-3.3882,-3.2804,-3.1727,-3.1568,-3.1511,-3.1511,0.0,-3.1727,-3.1756,-3.1953,-3.1981,-3.1912,-3.201,-3.1146,-2.9928,-2.9928,-2.904,-2.7965,-2.8343,-2.8535,-2.8583,-2.8583,-2.8606,-2.8505,-2.7813,-2.7129,-2.6489,-2.5942,-2.5298,-2.4839,-2.4997,-2.5056,-2.5075,-2.5036,-2.5036,-2.5036,-2.5017,-2.5481,-2.6145,-2.6892,-2.7624,0.0,-2.8015,-2.8415,-2.8708,-2.8638,-2.8606,-2.8559,-2.8455,-2.8356,-2.8177,-2.798,-2.7951,-2.8422,-2.9517,-2.9606,-3.0163,-3.1436,-3.1511,-3.0913,0.0,0.0,-2.8573,-2.6408,0.0,-2.5187,-2.438,-2.3864,-2.3595,-2.3595,-2.3595,-2.3595,-2.3595,-2.3595,-2.3595,-2.3616,-2.3861,-2.4051,-2.4234,-2.4688,-2.5665,-2.6869,-2.7237,-2.8047,-2.902,-3.9391,-3.9391,-3.9463,-3.9697,-3.9889,-4.0154,-4.0523,-4.0805,-4.0985,-4.105,-4.1173,-4.0715,-3.9341,-3.9228,-3.9259,-3.9286,-3.9286,-3.9286,-3.9286,-3.9286,-3.9286,-3.9286,-3.9259,-3.9169,-3.8887,-3.8733,-3.8286,-3.7506,-3.6485,-3.5653,-3.4942,-3.3471,-3.2314,-3.1539,-3.1511,-3.1511,0.0,-3.1511,-3.1539,-3.1539,-3.1568,-3.1568,-3.1568,-3.1553,-3.0773,-2.9633,-2.9633,-2.8764,-2.765,-2.7685,-2.7949,-2.8259,-2.8259,-2.8332,-2.8282,-2.755,-2.6857,-2.6202,-2.5531,-2.4967,-2.4539,-2.4544,-2.4605,-2.463,-2.4564,-2.458,-2.4523,-2.4405,-2.4529,-2.4916,-2.5712,-2.5842,-2.6209,0.0,-2.7597,-2.7751,-2.8352,-2.8332,-2.8244,-2.8235,-2.8014,-2.784,-2.7815,-2.8246,-2.8828,-2.9562,-2.9606,-3.0163,-3.1436,-3.1511,-3.0913,-2.9651,-2.9606,-2.8323,-2.5734,-2.5621,-2.4971,-2.3684,-2.3625,-2.3595,-2.3595,-2.3595,-2.3595,-2.3595,-2.3595,-2.3595,-2.3595,-2.376,-2.3839,-2.3927,-2.475,-2.5562,-2.6358,-2.7049,-2.7805,-2.8468,-3.9388,-3.9388,-3.9445,-3.9646,-3.9768,-3.993,-4.0285,-4.0389,-4.0359,-4.0086,-4.0114,-3.9944,-3.93,-3.8879,-3.8745,-3.8952,-3.8952,-3.8952,-3.8952,-3.8952,-3.8952,-3.8952,-3.8772,-3.8579,-3.8383,-3.7956,-3.7506,-3.6983,-3.6383,-3.5646,-3.4817,-3.4196,-3.3472,-3.2691,-3.2273,-3.2093,-3.2064,-3.1675,-3.1511,-3.1511,-3.1511,-3.1511,-3.1511,-3.1511,-3.0913,-3.0088,-2.9714,-2.9007,-2.8154,-2.7735,-2.77,-2.785,-2.785,-2.7875,-2.7854,-2.7567,-2.7022,-2.6356,-2.5758,-2.515,-2.4606,-2.4279,-2.4213,-2.4219,-2.4193,-2.4193,-2.4172,-2.413,-2.4198,-2.4353,-2.4629,-2.5035,-2.5575,-2.6382,-2.6824,-2.7239,-2.7849,-2.7875,-2.785,-2.785,-2.775,-2.7675,-2.7675,-2.8255,-2.8876,-2.9562,-2.9924,-3.0552,-3.1451,-3.1122,-3.0507,-2.9636,0.0,-2.7904,-2.563,-2.5615,-2.4941,-2.3595,-2.3595,-2.3595,-2.3595,-2.3595,-2.3595,-2.3595,-2.3595,-2.3595,-2.3595,-2.3674,-2.3674,-2.3756,-2.4601,-2.5349,-2.6054,-2.6839,-2.7509,-2.8054,-3.9388,-3.9388,-3.9445,-3.9589,-3.9625,-3.9681,-3.995,-3.997,-3.9812,-3.9329,-3.9106,-3.8968,-3.8914,-3.8299,-3.7969,-3.8226,-3.8226,-3.8226,-3.8226,-3.8226,-3.8226,-3.8226,-3.7998,-3.7841,-3.7695,-3.7238,-3.6831,-3.6492,-3.6211,-3.5684,-3.4946,-3.4736,-3.4237,-3.3469,-3.3006,-3.2796,-3.2766,-3.2064,-3.1795,-3.178,-3.1585,-3.1511,-3.1511,-3.1511,-3.1077,-3.0447,-3.0013,-2.931,-2.8532,-2.8064,-2.7764,-2.76,-2.76,-2.76,-2.76,-2.76,-2.7136,-2.6522,-2.6129,-2.5401,-2.4656,-2.4262,-2.4033,-2.3882,-2.3882,-2.3882,-2.3882,-2.3882,-2.3909,-2.3931,-2.3882,-2.434,-2.4947,-2.5619,0.0,-2.6714,-2.7505,-2.76,-2.76,-2.76,-2.76,-2.76,-2.76,-2.8368,-2.9086,-2.9577,-3.0163,-3.0717,-3.1182,-3.0776,0.0,0.0,0.0,0.0,-2.5914,-2.5704,-2.5031,-2.3894,-2.3684,-2.3595,-2.3595,-2.3595,-2.3595,-2.3595,-2.3595,-2.3595,-2.3595,-2.3595,-2.3595,-2.3684,-2.4672,-2.5326,-2.5875,-2.6829,-2.7423,-2.774,-3.9388,-3.9388,-3.9388,-3.9388,-3.9388,-3.9424,-3.9424,-3.9424,-3.9257,-3.8792,-3.8114,-3.7719,-3.7713,-3.725,-3.692,-3.692,-3.692,-3.692,-3.692,-3.692,-3.692,-3.692,-3.692,-3.6845,-3.6723,-3.6569,-3.6336,-3.6005,-3.5831,-3.5638,-3.5474,-3.4801,-3.4159,-3.3499,-3.3484,-3.3484,-3.344,-3.2781,-3.2497,-3.2437,-3.1765,-3.1511,-3.1511,-3.1511,-3.1077,-3.0507,-3.0492,-2.9684,-2.8607,-2.8592,-2.8154,-2.76,-2.76,-2.76,-2.76,-2.76,-2.7136,-2.6587,-2.6572,-2.563,-2.4605,-2.459,-2.4081,-2.3595,-2.3595,-2.3595,-2.3595,-2.3595,-2.3595,-2.3595,-2.3595,-2.361,-2.4044,-2.539,0.0,-2.6078,-2.7405,-2.76,-2.76,-2.76,-2.76,-2.76,-2.76,-2.8813,-2.9592,-2.9606,-3.0163,-3.0507,-3.0507,0.0,0.0,-2.8652,-2.8607,0.0,-2.6587,-2.5929,-2.5247,-2.459,-2.3924,-2.3595,-2.3595,-2.3595,-2.3595,-2.3595,-2.3595,-2.3595,-2.3595,-2.3595,-2.3595,-2.3729,-2.5076,-2.56,-2.5764,-2.7106,-2.7585,-2.76,-3.9388,-3.9388,-3.9388,-3.9388,-3.9388,-3.9388,-3.9388,-3.9388,-3.917,-3.8552,-3.7893,-3.7335,-3.6935,-3.6608,-3.6476,-3.6616,-3.6616,-3.6616,-3.6616,-3.6616,-3.6616,-3.6616,-3.6507,-3.6414,-3.6367,-3.6085,-3.5894,-3.5799,0.0,0.0,0.0,-3.528,-3.507,-3.4846,-3.4382,-3.4158,-3.4129,-3.2976,-3.2512,-3.2452,-3.1765,-3.1511,-3.1511,-3.1511,-3.1376,-3.1122,-3.0672,-3.0238,-2.9759,-2.8891,-2.8457,-2.8188,-2.775,-2.76,-2.76,-2.76,-2.745,-2.718,-2.6707,-2.5959,-2.5173,-2.4709,-2.4096,-2.3595,-2.3595,-2.3595,-2.3595,-2.3595,-2.3595,-2.3595,-2.3595,-2.3595,-2.4044,-2.539,-2.5615,0.0,-2.7405,-2.76,-2.76,-2.76,-2.76,-2.76,-2.76,-2.8408,-2.8906,-2.8906,-2.9505,-3.0058,0.0,0.0,0.0,0.0,-2.8169,0.0,-2.6602,-2.5944,-2.5247,-2.459,-2.3924,-2.3595,-2.3595,-2.3595,-2.3595,-2.3595,-2.3595,-2.3595,-2.3595,-2.3595,-2.3879,-2.4365,-2.5247,-2.5884,-2.6378,-2.727,-2.76,-2.76,-3.9388,-3.9388,-3.9388,-3.9388,-3.9388,-3.9388,-3.9388,-3.9388,-3.917,-3.8482,-3.7823,-3.718,-3.6552,-3.6157,0.0,-3.6115,-3.6115,-3.6115,-3.6115,-3.6115,-3.6115,-3.6115,-3.6005,-3.5941,-3.5941,-3.575,0.0,-3.5621,-3.5554,-3.5504,-3.5504,-3.5504,-3.5504,-3.5489,-3.5055,-3.4861,-3.4786,-3.3709,-3.3245,-3.317,-3.2243,-3.1869,-3.1854,-3.16,-3.1511,-3.1451,-3.1017,-3.0717,-3.0387,-2.9579,-2.916,-2.8846,-2.8199,-2.7989,-2.7929,-2.7675,-2.76,-2.751,-2.7091,-2.6482,-2.5809,-2.5128,-2.447,-2.3924,-2.3655,-2.3595,-2.3595,-2.3595,-2.3595,-2.3595,-2.3595,-2.3819,-2.4321,-2.5435,-2.5809,-2.6348,-2.745,-2.76,-2.76,-2.76,-2.76,-2.76,-2.76,-2.8203,-2.8607,-2.8607,-2.8981,-2.9385,0.0,0.0,0.0,-2.8218,-2.7824,0.0,-2.6986,-2.6303,-2.5644,-2.4963,-2.4044,-2.3595,-2.3595,-2.3595,-2.3595,-2.3595,-2.3595,-2.3744,-2.3984,-2.3984,-2.4365,-2.5038,-2.5719,-2.6228,-2.6686,-2.7345,-2.76,-2.76,-3.9373,-3.9388,-3.9388,-3.9388,-3.9388,-3.9388,-3.9388,-3.9388,-3.9155,-3.8422,-3.7793,-3.715,-3.6492,-3.5863,-3.5504,-3.5504,0.0,0.0,-3.5504,-3.5504,-3.5504,-3.5504,-3.5504,-3.5504,-3.5504,-3.5504,-3.5504,-3.5504,-3.5504,-3.5504,-3.5504,-3.5504,-3.5504,-3.5504,-3.5504,-3.5504,-3.5459,-3.4771,-3.4503,-3.4399,-3.3095,-3.2557,-3.2422,-3.1809,-3.154,-3.1511,-3.1511,-3.1092,-3.0567,-3.0522,-3.0118,-2.9562,-2.8876,-2.8667,-2.8532,-2.7809,-2.76,-2.76,-2.76,-2.7121,-2.6437,-2.5839,-2.5128,-2.4425,-2.3759,-2.3595,-2.3595,-2.3595,-2.3595,-2.361,-2.3655,-2.4171,-2.4829,-2.5555,-2.6183,-2.6811,-2.751,-2.76,-2.76,-2.76,0.0,0.0,-2.76,-2.8143,-2.8532,0.0,-2.8532,0.0,0.0,0.0,-2.8233,-2.7615,-2.76,-2.76,-2.76,-2.6941,-2.6258,-2.5576,-2.4343,-2.3744,-2.3744,-2.3744,-2.3744,-2.3744,-2.3744,-2.4081,-2.4679,-2.4679,-2.5053,-2.5734,-2.6363,-2.6641,-2.6761,-2.7375,-2.76,-2.76,0.0,0.0,-3.9228,-3.9373,-3.9388,-3.9388,-3.9388,-3.9388,-3.899,-3.7793,-3.7509,-3.6985,-3.5863,-3.5609,-3.5504,-3.5504,-3.5504,-3.5504,-3.5504,-3.5504,-3.5504,-3.5504,-3.5504,-3.5504,-3.5504,-3.5504,-3.5504,-3.5504,-3.5504,-3.5504,-3.5504,-3.5504,-3.5504,-3.5504,-3.5504,-3.5504,-3.5459,-3.4771,-3.4503,-3.4444,-3.3589,-3.2961,-3.2467,-3.2303,-3.1944,-3.1511,-3.1511,-3.1406,-3.1182,-3.0687,-3.0417,-3.0178,-2.9549,-2.934,-2.9142,-2.7944,-2.76,-2.76,-2.76,-2.7121,-2.6557,-2.6393,-2.5457,-2.4425,-2.3759,-2.3595,-2.3595,-2.3595,-2.3595,-2.3759,-2.4261,-2.4485,-2.4993,-2.6168,-2.6497,-2.6811,-2.751,-2.76,-2.76,0.0,-2.76,-2.76,-2.76,-2.775,-2.7839,0.0,0.0,-2.7839,-2.7839,-2.7839,-2.7764,-2.76,-2.76,-2.76,-2.76,-2.6941,-2.6258,-2.5615,-2.5285,-2.5136,-2.5136,-2.5136,-2.5136,-2.5136,-2.5136,-2.5226,-2.5352,-2.5352,-2.5764,-2.6378,-2.6527,-2.6926,-2.739,-2.754,-2.76,-2.76,-3.8612,-3.8833,-3.9017,-3.9228,-3.9337,-3.9388,-3.9388,-3.9388,-3.8931,-3.7584,-3.7404,-3.6926,-3.5654,-3.5504,-3.5504,-3.5504,-3.5504,-3.5504,-3.5504,-3.5504,-3.5504,-3.5504,-3.5504,-3.5504,-3.5504,-3.5504,-3.5504,-3.5504,-3.5504,-3.5504,-3.5504,-3.5504,-3.5504,-3.5504,-3.5504,-3.5504,-3.5489,-3.51,-3.4951,-3.4891,-3.4249,-3.3724,-3.335,-3.2736,-3.2258,-3.1914,-3.1615,-3.1511,-3.1451,-3.1077,-3.0943,-3.0866,-3.0208,-2.9998,-2.9804,-2.8813,-2.8304,-2.8004,-2.7675,-2.733,-2.6986,-2.6686,-2.5824,-2.4948,-2.4597,-2.4522,-2.4522,-2.4522,-2.4522,-2.4642,-2.4993,-2.5307,-2.5749,-2.6482,-2.6866,-2.718,-2.754,-2.76,-2.76,-2.76,-2.76,-2.76,-2.76,-2.76,-2.76,-2.76,-2.76,0.0,-2.76,-2.7524,-2.7524,-2.76,-2.76,-2.76,-2.76,-2.6941,-2.6408,-2.6048,-2.5749,-2.5615,-2.5615,-2.5615,-2.5615,-2.5615,-2.5615,-2.5779,-2.6063,-2.6063,-2.6437,-2.7061,-2.7061,-2.7285,-2.76,-2.76,-2.76,-2.76,-3.8014,-3.8352,-3.8686,-3.8943,-3.9141,-3.9265,-3.9352,-3.9337,-3.8925,-3.7719,-3.7464,-3.6956,-3.5789,-3.5564,-3.5504,-3.5504,-3.5504,-3.5504,-3.5504,-3.5504,-3.5504,-3.5504,-3.5504,-3.5504,-3.5504,-3.5504,-3.5504,-3.5504,-3.5504,-3.5504,-3.5504,-3.5504,-3.5504,-3.5504,-3.5504,-3.5504,-3.5504,-3.5504,-3.5504,-3.5459,-3.4861,-3.4593,-3.4384,-3.3245,-3.2751,-3.2572,-3.1884,-3.1645,-3.1645,-3.154,-3.1511,-3.1406,-3.0823,-3.0657,-3.0537,-2.9909,-2.9325,-2.8685,-2.7934,-2.7675,-2.7435,-2.6776,-2.6168,-2.5734,-2.563,-2.5615,-2.5615,-2.5615,-2.5615,-2.5606,-2.5702,-2.6204,-2.6637,-2.6782,-2.72,-2.7529,-2.7607,0.0,-2.7458,-2.7458,-2.7458,-2.7458,-2.7458,-2.7458,-2.7458,-2.7458,-2.7458,-2.7458,-2.7458,-2.7361,-2.7361,-2.7473,-2.7524,-2.7549,-2.7575,-2.7021,-2.6761,-2.6737,-2.6168,-2.5899,-2.5899,-2.5899,-2.5899,-2.5899,-2.5899,-2.6213,-2.6761,-2.6761,-2.7091,-2.76,-2.76,-2.76,-2.76,-2.76,-2.76,-2.76,-3.7289,-3.7649,-3.7953,-3.8478,-3.8627,-3.8738,-3.9104,-3.9141,-3.8945,-3.8297,-3.7749,-3.7135,-3.6417,-3.5833,-3.5504,-3.5504,-3.5504,-3.5504,-3.5504,-3.5504,-3.5504,-3.5504,-3.5504,-3.5504,-3.5504,-3.5504,-3.5504,-3.5504,-3.5504,-3.5504,-3.5504,-3.5504,-3.5504,-3.5504,-3.5504,-3.5504,-3.5504,-3.5504,-3.5504,-3.5489,-3.5385,-3.4996,-3.4488,-3.4279,-3.3829,-3.326,-3.2602,-3.2333,-3.2243,-3.169,-3.1511,-3.1481,-3.1376,-3.1346,-3.1212,-3.0552,-3.0214,-2.9803,-2.8745,-2.8034,-2.7435,-2.6776,-2.6512,-2.6303,-2.5734,-2.5615,-2.5615,-2.5615,-2.5615,-2.5732,-2.6178,-2.6347,-2.6703,-2.7559,-2.7372,-2.7231,-2.764,0.0,-2.6826,-2.6826,-2.6826,-2.6826,-2.6826,-2.6826,-2.6826,-2.6826,-2.6826,-2.6826,-2.6826,-2.6814,-2.6814,-2.6841,-2.7115,-2.731,-2.7412,-2.7445,-2.745,-2.7435,-2.7345,-2.7285,-2.7285,-2.7285,-2.7285,-2.7285,-2.7285,-2.7345,-2.745,-2.745,-2.751,-2.76,-2.76,-2.76,-2.76,-2.76,-2.76,-2.76,-3.6191,-3.6691,-3.7183,-3.7567,-3.7924,-3.8277,-3.8575,-3.8797,-3.8779,-3.8305,-3.8053,-3.7569,-3.6596,-3.6207,-3.5893,-3.5534,-3.5504,-3.5504,-3.5504,-3.5504,-3.5504,-3.5504,-3.5504,-3.5504,-3.5504,-3.5504,-3.5504,-3.5504,-3.5504,-3.5504,-3.5504,-3.5504,-3.5504,-3.5504,-3.5504,-3.5504,-3.5504,-3.5504,-3.5504,-3.5504,-3.5504,-3.531,-3.4996,-3.4653,-3.4324,-3.3933,-3.3275,-3.2826,-3.2437,-3.2123,-3.1795,-3.1511,-3.1511,-3.1511,-3.1451,-3.1021,-3.0145,-2.9112,-2.8409,-2.7761,-2.7185,-2.6758,-2.6644,-2.6611,-2.6406,-2.6347,-2.6357,-2.6456,-2.6406,-2.6425,-2.6684,-2.6586,-2.6709,-2.7492,-2.7076,0.0,0.0,-2.6874,-2.6484,-2.6484,-2.6484,-2.6484,-2.6484,-2.6484,-2.6484,-2.6484,-2.6484,-2.6484,-2.6484,-2.6365,-2.6258,-2.6258,-2.6817,-2.7119,-2.717,-2.7386,-2.7488,-2.7488,-2.7575,-2.76,-2.76,-2.76,-2.76,-2.76,-2.76,-2.76,-2.76,-2.76,-2.76,-2.76,-2.76,-2.76,-2.76,-2.76,-2.76,-2.76,-3.5113,-3.5683,-3.6255,-3.657,-3.7092,-3.7567,-3.7938,-3.8337,-3.851,-3.8242,-3.8284,-3.7948,-3.6977,-3.6638,-3.6282,-3.5774,-3.5594,-3.5504,-3.5504,-3.5504,-3.5504,-3.5504,-3.5504,-3.5504,-3.5504,-3.5504,-3.5504,-3.5504,-3.5504,-3.5504,-3.5504,-3.5504,-3.5504,-3.5504,-3.5504,-3.5504,-3.5504,-3.5504,-3.5504,-3.5504,-3.5504,-3.5504,-3.5444,-3.4921,-3.4711,-3.4622,-3.3963,-3.3395,-3.2916,-3.2617,-3.2153,-3.1705,-3.1526,-3.1438,-3.1409,-3.1234,-2.9907,-2.8414,-2.7902,-2.7426,-2.6994,-2.6674,-2.6616,-2.6657,-2.6791,-2.6832,-2.6884,-2.6959,-2.6922,-2.6832,-2.6753,-2.6539,-2.6512,-2.6987,0.0,0.0,0.0,-2.6272,-2.5864,-2.5864,-2.5864,-2.5864,-2.5864,-2.5864,-2.5864,-2.5864,-2.5864,-2.5864,-2.5864,-2.5701,-2.5578,-2.5578,-2.634,-2.6753,-2.6779,-2.7093,-2.7258,-2.7299,-2.7423,-2.7524,-2.7549,-2.7549,-2.7575,-2.76,-2.76,-2.76,-2.76,-2.76,-2.76,-2.76,-2.76,-2.76,-2.76,-2.76,-2.76,-2.76,-3.4397,-3.4675,-3.5032,-3.5669,-3.599,-3.6427,-3.725,-3.7711,-3.8098,-3.842,-3.8258,-3.8094,-3.7991,-3.7108,-3.6462,-3.6417,-3.5863,-3.5504,-3.5504,-3.5504,-3.5504,-3.5504,-3.5504,-3.5504,-3.5504,-3.5504,-3.5504,-3.5504,-3.5504,-3.5504,-3.5504,-3.5504,-3.5504,-3.5504,-3.5504,-3.5504,-3.5504,-3.5504,-3.5504,-3.5504,-3.5504,-3.5504,-3.5504,-3.5444,-3.5429,-3.534,-3.4651,-3.4399,-3.4174,-3.2916,-3.2482,-3.2303,-3.1529,-3.1307,-3.1248,-3.094,-2.9897,-2.8638,-2.7694,-2.7322,-2.7054,-2.6467,-2.6336,-2.6336,-2.6351,-2.6351,-2.6336,-2.6363,-2.6351,-2.627,-2.6029,-2.5948,-2.5952,-2.5981,0.0,0.0,-2.5571,-2.5041,-2.4624,-2.4624,-2.4624,-2.4624,-2.4624,-2.4624,-2.4624,-2.4624,-2.4624,-2.4624,-2.4624,-2.4595,-2.4595,-2.4595,-2.5495,-2.6029,-2.6179,-2.6551,-2.687,-2.7029,-2.717,-2.7284,-2.7427,-2.7427,-2.7488,-2.76,-2.76,-2.76,-2.76,-2.76,-2.76,-2.76,-2.76,-2.76,-2.76,-2.76,-2.76,-2.76,-3.3725,-3.4076,-3.4397,-3.4675,-3.5127,-3.5588,-3.6071,-3.6677,-3.726,-3.7711,-3.7872,-3.7879,-3.7579,-3.7183,-3.6617,-3.581,-3.5517,-3.5276,-3.5027,-3.4997,-3.5129,-3.5472,-3.5504,-3.5504,-3.5504,-3.5504,-3.5504,-3.5504,-3.5504,-3.5504,-3.5504,-3.5504,-3.5504,-3.5504,-3.5504,-3.5504,-3.5504,-3.5504,-3.5504,-3.5504,-3.5504,-3.5504,-3.5504,-3.5504,-3.5504,-3.5474,-3.5205,-3.4846,-3.4429,-3.3903,-3.3185,-3.2437,-3.205,-3.156,-3.097,-3.0266,-2.9313,-2.8332,-2.7492,-2.6829,-2.6239,-2.5847,-2.5463,-2.5245,-2.5453,-2.5481,-2.5536,-2.5715,-2.5605,-2.5467,-2.5356,-2.509,-2.5025,-2.5427,0.0,-2.4633,-2.5123,-2.4645,-2.4263,-2.4263,-2.4263,-2.4263,-2.4263,-2.4263,-2.4263,-2.4263,-2.4263,-2.4263,-2.4263,-2.4173,-2.4057,-2.3969,-2.4405,-2.4948,-2.5536,-2.5988,-2.6312,-2.6551,-2.6709,-2.6907,-2.7159,-2.7159,-2.7273,-2.7463,-2.7463,-2.7539,-2.76,-2.76,-2.76,-2.76,-2.76,-2.76,-2.76,-2.76,-2.76,-2.76,-3.3313,-3.3569,-3.3823,-3.3865,-3.4314,-3.4784,-3.5018,-3.5723,-3.6362,-3.673,-3.726,-3.7448,-3.7132,-3.7065,-3.6678,-3.5762,-3.5329,-3.4995,-3.4699,-3.4583,-3.4783,-3.5359,-3.5472,-3.5504,-3.5504,-3.5504,-3.5504,-3.5504,-3.5504,-3.5504,-3.5504,-3.5504,-3.5504,-3.5504,-3.5504,-3.5504,-3.5504,-3.5504,-3.5504,-3.5504,-3.5504,-3.5504,-3.5504,-3.5504,-3.5504,-3.5504,-3.5504,-3.5158,-3.4692,-3.4483,-3.3703,-3.2777,-3.2164,-3.1197,-3.0162,-2.9418,-2.8656,-2.7926,-2.7314,-2.6501,-2.5733,-2.5359,-2.4932,-2.4633,-2.4691,-2.4708,-2.4765,-2.4964,-2.4836,-2.4708,-2.4664,-2.4405,-2.4262,-2.4596,-2.4216,-2.3981,-2.4352,-2.4068,-2.378,-2.378,-2.378,-2.378,-2.378,-2.378,-2.378,-2.378,-2.378,-2.378,-2.378,-2.3717,-2.3582,-2.3437,-2.3641,-2.4041,-2.4679,-2.5272,-2.5688,-2.5974,-2.6095,-2.6324,-2.6674,-2.67,-2.6884,-2.7181,-2.7248,-2.7335,-2.7473,-2.7473,-2.7499,-2.7524,-2.7524,-2.7549,-2.76,-2.76,-2.76,-2.76,-3.3124,-3.3124,-3.3154,-3.3356,-3.3556,-3.3839,-3.4314,-3.4936,-3.5467,-3.5669,-3.6373,-3.6897,-3.6897,-3.6708,-3.6602,-3.6602,-3.5424,-3.4711,-3.4697,-3.4292,-3.4438,-3.5148,-3.5359,-3.5504,-3.5504,-3.5504,-3.5504,-3.5504,-3.5504,-3.5504,-3.5504,-3.5504,-3.5504,-3.5504,-3.5504,-3.5504,-3.5504,-3.5504,-3.5504,-3.5504,-3.5504,-3.5504,-3.5504,-3.5504,-3.5504,-3.5504,-3.5504,-3.5359,-3.5109,-3.4426,-3.3979,-3.3437,-3.1792,-3.0161,-2.8753,-2.8398,-2.7908,-2.7436,-2.7074,-2.6475,-2.5753,-2.507,-2.4905,-2.4749,-2.4233,-2.4115,-2.4115,-2.4115,-2.4102,-2.4057,-2.392,-2.3903,-2.3772,-2.3463,-2.3403,-2.333,-2.3138,-2.3108,-2.3108,-2.3108,-2.3108,-2.3108,-2.3108,-2.3108,-2.3108,-2.3108,-2.3108,-2.3108,-2.3108,-2.3108,-2.3108,-2.3108,-2.33,-2.3463,-2.3599,-2.4405,-2.492,-2.5202,-2.5328,-2.5564,-2.5893,-2.6029,-2.6312,-2.6709,-2.691,-2.7067,-2.7207,-2.7207,-2.7258,-2.7401,-2.7401,-2.7488,-2.76,-2.76,-2.76,-2.76,-3.3124,-3.3124,-3.3124,-3.3197,-3.3356,-3.3513,-3.3696,-3.416,-3.4564,-3.4758,-3.5114,-3.5426,-3.5548,-3.5506,-3.5314,-3.4893,-3.4145,-3.3469,-3.2913,-3.3297,-3.3652,-3.3859,-3.4433,-3.4798,-3.4931,-3.4931,-3.5063,-3.5294,-3.5294,-3.5359,-3.5504,-3.5504,-3.5504,-3.5504,-3.5504,-3.5504,-3.5504,-3.5504,-3.5504,-3.5504,-3.5504,-3.5504,-3.5504,-3.5504,-3.5504,-3.5504,-3.5504,-3.5359,-3.5151,-3.4812,-3.4167,-3.3202,-3.1664,-3.038,-2.9308,-2.8704,-2.8056,-2.7455,-2.693,-2.6565,-2.616,-2.5547,-2.5122,-2.4792,-2.4752,-2.4732,-2.4763,-2.4919,-2.4548,-2.4157,-2.4109,-2.3687,-2.33,-2.321,-2.3198,-2.3168,-2.3108,-2.3108,-2.3108,-2.3108,-2.3108,-2.3108,-2.3108,-2.3108,-2.3108,-2.3108,-2.3108,-2.3108,-2.3108,-2.3108,-2.3108,-2.3108,-2.3168,-2.3271,-2.3463,-2.3936,-2.4303,-2.458,-2.4595,-2.4865,-2.5286,-2.5425,-2.577,-2.6299,-2.6445,-2.663,-2.6841,-2.6841,-2.6867,-2.6893,-2.6893,-2.7026,-2.717,-2.717,-2.7299,-2.7463,-3.3124,-3.3124,-3.3124,-3.3124,-3.3197,-3.3283,-3.3283,-3.3611,-3.3865,-3.3979,-3.4272,-3.4522,-3.4634,-3.4716,-3.4612,-3.4269,-3.3489,-3.2785,-3.2142,-3.2323,-3.2497,-3.2569,-3.3009,-3.3618,-3.4317,-3.4433,-3.4568,-3.4754,-3.4835,-3.4949,-3.5063,-3.5063,-3.5096,-3.5177,-3.5177,-3.5276,-3.5359,-3.5359,-3.5439,-3.5504,-3.5504,-3.5504,-3.5504,-3.5504,-3.5504,-3.5504,-3.5407,-3.5228,-3.4949,-3.4668,-3.3667,-3.2345,-3.1192,-3.0111,-2.9192,-2.869,-2.8177,-2.7672,-2.7104,-2.6883,-2.6688,-2.6109,-2.5523,-2.5071,-2.4955,-2.4904,-2.4968,-2.5084,-2.4767,-2.4444,-2.4444,-2.3884,-2.3446,-2.3446,-2.3258,-2.3108,-2.3108,-2.3108,-2.3108,-2.3108,-2.3108,-2.3108,-2.3108,-2.3108,-2.3108,-2.3108,-2.3108,-2.3108,-2.3108,-2.3108,-2.3108,-2.3108,-2.3108,-2.3168,-2.3271,-2.348,-2.3747,-2.4015,-2.4015,-2.4218,-2.4563,-2.4765,-2.5104,-2.5591,-2.5783,-2.6001,-2.6203,-2.6203,-2.627,-2.6392,-2.6392,-2.6513,-2.6738,-2.6791,-2.6948,-2.7115,-3.3124,-3.3124,-3.3124,-3.3124,-3.3124,-3.3124,-3.3124,-3.3283,-3.3356,-3.3356,-3.3738,-3.3992,-3.3992,-3.416,-3.4272,-3.4272,-3.3323,-3.2502,-3.2016,-3.1502,-3.1286,-3.1405,-3.1442,-3.2123,-3.3506,-3.3796,-3.3968,-3.4051,-3.4216,-3.4312,-3.4332,-3.4332,-3.4448,-3.4616,-3.4631,-3.4817,-3.5115,-3.5115,-3.5213,-3.5407,-3.5407,-3.5439,-3.5439,-3.5439,-3.5439,-3.5439,-3.5228,-3.4931,-3.4563,-3.4128,-3.2737,-3.111,-3.0612,-2.9678,-2.8696,-2.8526,-2.8344,-2.8059,-2.7507,-2.7318,-2.719,-2.6688,-2.6135,-2.5548,-2.5039,-2.4938,-2.4938,-2.4938,-2.4888,-2.4863,-2.4863,-2.4443,-2.4067,-2.4067,-2.3559,-2.3183,-2.3183,-2.3133,-2.3108,-2.3108,-2.3108,-2.3108,-2.3108,-2.3108,-2.3108,-2.3108,-2.3108,-2.3108,-2.3108,-2.3108,-2.3108,-2.3108,-2.3108,-2.3108,-2.3108,-2.3108,-2.3258,-2.3569,-2.3569,-2.3671,-2.3861,-2.4115,-2.4421,-2.475,-2.5005,-2.5203,-2.5315,-2.5315,-2.5508,-2.5784,-2.5784,-2.5934,-2.6203,-2.6324,-2.6484,-2.6657,-3.3124,-3.3124,-3.3124,-3.3124,-3.3124,-3.3124,-3.3124,-3.3154,-3.3154,-3.3154,-3.324,-3.3326,-3.3326,-3.3368,-3.3368,-3.3368,-3.2873,-3.2169,-3.1199,-3.1306,-3.1278,-3.0887,-3.1011,-3.1259,-3.1579,-3.2223,-3.2832,-3.3465,-3.3514,-3.3687,-3.3948,-3.3948,-3.3948,-3.4016,-3.4153,-3.4254,-3.4356,-3.4501,-3.4616,-3.465,-3.4798,-3.4865,-3.4865,-3.4983,-3.5034,-3.5016,-3.4865,-3.4549,-3.4094,-3.3094,-3.2105,-3.1222,-3.0939,-3.0376,-2.9694,-2.9174,-2.8899,-2.8599,-2.8084,-2.7607,-2.7256,-2.7165,-2.6725,-2.6273,-2.6172,-2.6135,-2.6135,-2.6135,-2.5749,-2.5423,-2.5423,-2.4996,-2.4644,-2.4644,-2.4167,-2.3803,-2.3803,-2.3396,-2.3108,-2.3108,-2.3108,-2.3108,-2.3108,-2.3108,-2.3108,-2.3108,-2.3108,-2.3108,-2.3108,-2.3108,-2.3108,-2.3108,-2.3108,-2.3108,-2.3108,-2.3108,-2.3138,-2.3198,-2.3198,-2.3318,-2.3522,-2.3688,-2.3927,-2.4276,-2.4408,-2.458,-2.4709,-2.4709,-2.4738,-2.4794,-2.4794,-2.5006,-2.53,-2.53,-2.5633,-2.6123,-3.3124,-3.3124,-3.3124,-3.3124,-3.3124,-3.3124,-3.3124,-3.3124,-3.3124,-3.3124,-3.3124,-3.3124,-3.3124,-3.3124,-3.3124,-3.3124,-3.2638,-3.2113,-3.1574,-3.1472,-3.1352,-3.1032,-3.0893,-3.0868,-3.0933,-3.1066,-3.1529,-3.2282,-3.239,-3.2519,-3.2684,-3.2684,-3.2804,-3.2995,-3.3101,-3.3346,-3.3742,-3.3825,-3.3977,-3.4133,-3.4249,-3.4317,-3.4419,-3.4471,-3.4505,-3.4471,-3.4201,-3.3638,-3.2889,-3.2128,-3.1445,-3.0823,-3.0647,-3.0267,-2.9871,-2.9568,-2.9403,-2.9214,-2.8649,-2.8285,-2.8009,-2.7745,-2.7291,-2.6813,-2.6549,-2.6499,-2.6499,-2.6499,-2.6248,-2.6047,-2.6047,-2.5561,-2.5197,-2.5197,-2.4745,-2.4305,-2.4029,-2.374,-2.3409,-2.3133,-2.3108,-2.3108,-2.3108,-2.3108,-2.3108,-2.3108,-2.3108,-2.3108,-2.3108,-2.3108,-2.3108,-2.3108,-2.3108,-2.3108,-2.3108,-2.3108,-2.3108,-2.3108,-2.3108,-2.3168,-2.3271,-2.342,-2.3599,-2.3763,-2.3897,-2.4015,-2.4073,-2.4073,-2.4131,-2.4229,-2.4491,-2.4601,-2.4605,-2.4929,-2.5264,-2.5647,-3.3124,-3.3124,-3.3124,-3.3124,-3.3124,-3.3124,-3.3124,-3.3124,-3.3124,-3.3124,-3.3124,-3.3124,-3.3124,-3.3124,-3.3124,-3.3124,-3.2641,-3.2315,-3.2227,-3.1788,-3.1486,-3.1386,-3.0972,-3.0826,-3.0972,-3.0467,-3.0496,-3.1121,-3.127,-3.1381,-3.1405,-3.1405,-3.1603,-3.1909,-3.1946,-3.2309,-3.2938,-3.2974,-3.3136,-3.3402,-3.3471,-3.3624,-3.3762,-3.3831,-3.3865,-3.3796,-3.3402,-3.2577,-3.1626,-3.1296,-3.0823,-3.033,-3.0152,-2.9972,-2.9792,-2.9792,-2.9792,-2.9691,-2.9202,-2.8963,-2.8787,-2.836,-2.7833,-2.7306,-2.6876,-2.6625,-2.6499,-2.6499,-2.6499,-2.6499,-2.6499,-2.6097,-2.5737,-2.5737,-2.5297,-2.4795,-2.433,-2.4192,-2.3954,-2.3446,-2.3308,-2.3246,-2.3246,-2.3158,-2.3108,-2.3108,-2.3108,-2.3108,-2.3108,-2.3108,-2.3108,-2.3108,-2.3108,-2.3108,-2.3108,-2.3108,-2.3108,-2.3108,-2.3108,-2.3108,-2.3108,-2.3271,-2.336,-2.3373,-2.3582,-2.368,-2.3692,-2.3752,-2.3893,-2.4107,-2.4545,-2.4456,-2.4168,-2.4695,-2.4949,-2.5104,-3.3124,-3.3124,-3.3124,-3.3124,-3.3124,-3.3124,-3.3124,-3.3124,-3.3124,-3.3124,-3.3124,-3.3124,-3.3124,-3.3124,-3.3124,-3.3124,-3.3048,-3.2754,-3.224,-3.2139,-3.1888,-3.1411,-3.1323,-3.1286,-3.1326,-3.0811,-3.0609,-3.0761,-3.0798,-3.0911,-3.1048,-3.1048,-3.1086,-3.1161,-3.1283,-3.1368,-3.1479,-3.1663,-3.1759,-3.1833,-3.2187,-3.2345,-3.2403,-3.2761,-3.2868,-3.2832,-3.2439,-3.1763,-3.1086,-3.0836,-3.0508,-3.0152,-3.0113,-2.9972,-2.9792,-2.9792,-2.9792,-2.9779,-2.9691,-2.9315,-2.8875,-2.88,-2.8398,-2.7971,-2.7896,-2.7178,-2.6499,-2.6499,-2.6499,-2.6499,-2.6499,-2.6436,-2.6373,-2.6373,-2.5862,-2.5473,-2.5385,-2.4996,-2.465,-2.4575,-2.4167,-2.3879,-2.3879,-2.3396,-2.3108,-2.3108,-2.3108,-2.3108,-2.3108,-2.3108,-2.3108,-2.3108,-2.3108,-2.3108,-2.3108,-2.3108,-2.3108,-2.3108,-2.3108,-2.3108,-2.3108,-2.3138,-2.3138,-2.3163,-2.3696,-2.3941,-2.3978,-2.4469,-2.4658,-2.4702,-2.4778,-2.4545,-2.4185,-2.409,-2.421,-2.4465,-3.3124,-3.3124,-3.3124,-3.3124,-3.3124,-3.3124,-3.3124,-3.3124,-3.3124,-3.3124,-3.3124,-3.3124,-3.3124,-3.3124,-3.3124,-3.3124,-3.3124,-3.3011,-3.2717,-3.2692,-3.2591,-3.234,-3.2026,-3.1851,-3.1851,-3.1323,-3.0903,-3.0635,-3.0317,-3.0241,-3.0318,-3.0318,-3.0381,-3.0495,-3.0545,-3.0697,-3.0936,-3.0998,-3.111,-3.1259,-3.1408,-3.1505,-3.1603,-3.1773,-3.1846,-3.1809,-3.1445,-3.0973,-3.0495,-3.0381,-3.0164,-2.9934,-2.9934,-2.9869,-2.9792,-2.9792,-2.9792,-2.9792,-2.9792,-2.9603,-2.9415,-2.9415,-2.8988,-2.8561,-2.8561,-2.7946,-2.7329,-2.7014,-2.6713,-2.6499,-2.6499,-2.6499,-2.6499,-2.6499,-2.6285,-2.5996,-2.5636,-2.5398,-2.5146,-2.4825,-2.4575,-2.4456,-2.4456,-2.4199,-2.3923,-2.364,-2.3584,-2.3446,-2.312,-2.3108,-2.3108,-2.3108,-2.3108,-2.3258,-2.3615,-2.3584,-2.3747,-2.4048,-2.4048,-2.3885,-2.3584,-2.3584,-2.376,-2.4061,-2.4311,-2.4456,-2.4481,-2.4687,-2.4788,-2.4813,-2.5146,-2.4965,-2.452,-2.4167,-2.3987,-2.3969]},{"header":{"parameterUnit":"m.s-1","parameterCategory":1,"la1":30.6,"la2":28.766,"lo1":-90.7593,"lo2":-88.6598,"dy":0.0162,"dx":0.0183,"nx":116,"ny":114,"refTime":"2024-06-19T12:00:00:Z","depth":0,"parameterNumber":3,"parameterNumberName":"V-component_of_WINDS"},"data":[0.0,0.0,0.0,0.0,0.0,0.0,0.0,0.0,0.0,0.0,0.0,0.0,0.0,0.0,0.0,0.0,0.0,0.0,0.0,0.0,0.0,0.0,0.0,0.0,0.0,0.0,0.0,0.0,0.0,0.0,0.0,0.0,0.0,0.0,0.0,0.0,0.0,0.0,0.0,0.0,0.0,0.0,0.0,0.0,0.0,0.0,0.0,0.0,0.0,0.0,0.0,0.0,0.0,0.0,0.0,0.0,0.0,0.0,0.0,0.0,0.0,0.0,0.0,0.0,0.0,0.0,0.0,0.0,0.0,0.0,0.0,0.0,0.0,0.0,0.0,0.0,0.0,0.0,0.0,0.0,0.0,0.0,0.0,0.0,0.0,0.0,0.0,0.0,0.0,0.0,0.0,0.0,0.0,0.0,0.0,0.0,0.0,0.0,0.0,0.0,0.0,0.0,0.0,0.0,0.0,0.0,0.0,0.0,0.0,0.0,0.0,0.0,0.0,0.0,0.0,0.0,0.0,0.0,0.0,0.0,0.0,0.0,0.0,0.0,0.0,0.0,0.0,0.0,0.0,0.0,0.0,0.0,0.0,0.0,0.0,0.0,0.0,0.0,0.0,0.0,0.0,0.0,0.0,0.0,0.0,0.0,0.0,0.0,0.0,0.0,0.0,0.0,0.0,0.0,0.0,0.0,0.0,0.0,0.0,0.0,0.0,0.0,0.0,0.0,0.0,0.0,0.0,0.0,0.0,0.0,0.0,0.0,0.0,0.0,0.0,0.0,0.0,0.0,0.0,0.0,0.0,0.0,0.0,0.0,0.0,0.0,0.0,0.0,0.0,0.0,0.0,0.0,0.0,0.0,0.0,0.0,0.0,0.0,0.0,0.0,0.0,0.0,0.0,0.0,0.0,0.0,0.0,0.0,0.0,0.0,0.0,0.0,0.0,0.0,0.0,0.0,0.0,0.0,0.0,0.0,0.0,0.0,0.0,0.0,0.0,0.0,0.0,0.0,0.0,0.0,0.0,0.0,0.0,0.0,0.0,0.0,0.0,0.0,0.0,0.0,0.0,0.0,0.0,0.0,0.0,0.0,0.0,0.0,0.0,0.0,0.0,0.0,0.0,0.0,0.0,0.0,0.0,0.0,0.0,0.0,0.0,0.0,0.0,0.0,0.0,0.0,0.0,0.0,0.0,0.0,0.0,0.0,0.0,0.0,0.0,0.0,0.0,0.0,0.0,0.0,0.0,0.0,0.0,0.0,0.0,0.0,0.0,0.0,0.0,0.0,0.0,0.0,0.0,0.0,0.0,0.0,0.0,0.0,0.0,0.0,0.0,0.0,0.0,0.0,0.0,0.0,0.0,0.0,0.0,0.0,0.0,0.0,0.0,0.0,0.0,0.0,0.0,0.0,0.0,0.0,0.0,0.0,0.0,0.0,0.0,0.0,0.0,0.0,0.0,0.0,0.0,0.0,0.0,0.0,0.0,0.0,0.0,0.0,0.0,0.0,0.0,0.0,0.0,0.0,0.0,0.0,0.0,0.0,0.0,0.0,0.0,0.0,0.0,0.0,0.0,0.0,0.0,0.0,0.0,0.0,0.0,0.0,0.0,0.0,0.0,0.0,0.0,0.0,0.0,0.0,0.0,0.0,0.0,0.0,0.0,0.0,0.0,0.0,0.0,0.0,0.0,0.0,0.0,0.0,0.0,0.0,0.0,0.0,0.0,0.0,0.0,0.0,0.0,0.0,0.0,0.0,0.0,0.0,0.0,0.0,0.0,0.0,0.0,0.0,0.0,0.0,0.0,0.0,0.0,0.0,0.0,0.0,0.0,0.0,0.0,0.0,0.0,0.0,0.0,0.0,0.0,0.0,0.0,0.0,0.0,0.0,0.0,0.0,0.0,0.0,0.0,0.0,0.0,0.0,0.0,0.0,0.0,0.0,0.0,0.0,0.0,0.0,0.0,0.0,0.0,0.0,0.0,0.0,0.0,0.0,0.0,0.0,0.0,0.0,0.0,0.0,0.0,0.0,0.0,0.0,0.0,0.0,0.0,0.0,0.0,0.0,0.0,0.0,0.0,0.0,0.0,0.0,0.0,0.0,0.0,0.0,0.0,0.0,0.0,0.0,0.0,0.0,0.0,0.0,0.0,0.0,0.0,0.0,0.0,0.0,0.0,0.0,0.0,0.0,0.0,0.0,0.0,0.0,0.0,0.0,0.0,0.0,0.0,0.0,0.0,0.0,0.0,0.0,0.0,0.0,0.0,0.0,0.0,0.0,0.0,0.0,0.0,0.0,0.0,0.0,0.0,0.0,0.0,0.0,0.0,0.0,0.0,0.0,0.0,0.0,0.0,0.0,0.0,0.0,0.0,0.0,0.0,0.0,0.0,0.0,0.0,0.0,0.0,0.0,0.0,0.0,0.0,0.0,0.0,0.0,0.0,0.0,0.0,0.0,0.0,0.0,0.0,0.0,0.0,0.0,0.0,0.0,0.0,0.0,0.0,0.0,0.0,0.0,0.0,0.0,0.0,0.0,0.0,0.0,0.0,0.0,0.0,0.0,0.0,0.0,0.0,0.0,0.0,0.0,0.0,0.0,0.0,0.0,0.0,0.0,0.0,0.0,0.0,0.0,0.0,0.0,0.0,0.0,0.0,0.0,0.0,0.0,0.0,0.0,0.0,0.0,0.0,0.0,0.0,0.0,0.0,0.0,0.0,0.0,0.0,0.0,0.0,0.0,0.0,0.0,0.0,0.0,0.0,0.0,0.0,0.0,0.0,0.0,0.0,0.0,0.0,0.0,0.0,0.0,0.0,0.0,0.0,0.0,0.0,0.0,0.0,0.0,0.0,0.0,0.0,0.0,0.0,0.0,0.0,0.0,0.0,0.0,0.0,0.0,0.0,0.0,0.0,0.0,0.0,0.0,0.0,0.0,0.0,0.0,0.0,0.0,0.0,0.0,0.0,0.0,0.0,0.0,0.0,0.0,0.0,0.0,0.0,0.0,0.0,0.0,0.0,0.0,0.0,0.0,0.0,0.0,0.0,0.0,0.0,0.0,0.0,0.0,0.0,0.0,0.0,0.0,0.0,0.0,0.0,0.0,0.0,0.0,0.0,0.0,0.0,0.0,0.0,0.0,0.0,0.0,0.0,0.0,0.0,0.0,0.0,0.0,0.0,0.0,0.0,0.0,0.0,0.0,0.0,0.0,0.0,0.0,0.0,0.0,0.0,0.0,0.0,0.0,0.0,0.0,0.0,0.0,0.0,0.0,0.0,0.0,0.0,0.0,0.0,0.0,0.0,0.0,0.0,0.0,0.0,0.0,0.0,0.0,0.0,0.0,0.0,0.0,0.0,0.0,0.0,0.0,0.0,0.0,0.0,0.0,0.0,0.0,0.0,0.0,0.0,0.0,0.0,0.0,0.0,0.0,0.0,0.0,0.0,0.0,0.0,0.0,0.0,0.0,0.0,0.0,0.0,0.0,0.0,0.0,0.0,0.0,0.0,0.0,0.0,0.0,0.0,0.0,0.0,0.0,0.0,0.0,0.0,0.0,0.0,0.0,0.0,0.0,0.0,0.0,0.0,0.0,0.0,0.0,0.0,0.0,0.0,0.0,0.0,0.0,0.0,0.0,0.0,0.0,0.0,0.0,0.0,0.0,0.0,0.0,0.0,0.0,0.0,0.0,0.0,0.0,0.0,0.0,0.0,0.0,0.0,0.0,0.0,0.0,0.0,0.0,0.0,0.0,0.0,0.0,0.0,0.0,0.0,0.0,0.0,0.0,0.0,0.0,0.0,0.0,0.0,0.0,0.0,0.0,0.0,0.0,0.0,0.0,0.0,0.0,0.0,0.0,0.0,0.0,0.0,0.0,0.0,0.0,0.0,0.0,0.0,0.0,0.0,0.0,0.0,0.0,0.0,0.0,0.0,0.0,0.0,0.0,0.0,0.0,0.0,0.0,0.0,0.0,0.0,0.0,0.0,0.0,0.0,0.0,0.0,0.0,0.0,0.0,0.0,0.0,0.0,0.0,0.0,0.0,0.0,0.0,0.0,0.0,0.0,0.0,0.0,0.0,0.0,0.0,0.0,0.0,0.0,0.0,0.0,0.0,0.0,0.0,0.0,0.0,0.0,0.0,0.0,0.0,0.0,0.0,0.0,0.0,0.0,0.0,0.0,0.0,0.0,0.0,0.0,0.0,0.0,0.0,0.0,0.0,0.0,0.0,0.0,0.0,0.0,0.0,0.0,0.0,0.0,0.0,0.0,0.0,0.0,0.0,0.0,0.0,0.0,0.0,0.0,0.0,0.0,0.0,0.0,0.0,0.0,0.0,0.0,0.0,0.0,0.0,0.0,0.0,0.0,0.0,0.0,0.0,0.0,0.0,0.0,0.0,0.0,0.0,0.0,0.0,0.0,0.0,0.0,0.0,0.0,0.0,0.0,0.0,0.0,0.0,0.0,0.0,0.0,0.0,0.0,0.0,0.0,0.0,0.0,0.0,0.0,0.0,0.0,0.0,0.0,0.0,0.0,0.0,0.0,0.0,0.0,0.0,0.0,0.0,0.0,0.0,0.0,0.0,0.0,0.0,0.0,0.0,0.0,0.0,0.0,0.0,0.0,0.0,0.0,0.0,0.0,0.0,0.0,0.0,0.0,0.0,0.0,0.0,0.0,0.0,0.0,0.0,0.0,0.0,0.0,0.0,0.0,0.0,0.0,0.0,0.0,0.0,0.0,0.0,0.0,0.0,0.0,0.0,0.0,0.0,0.0,0.0,0.0,0.0,0.0,0.0,0.0,0.0,0.0,0.0,0.0,0.0,0.0,0.0,0.0,0.0,0.0,0.0,0.0,0.0,0.0,0.0,0.0,0.0,0.0,0.0,0.0,0.0,0.0,0.0,0.0,0.0,0.0,0.0,0.0,0.0,0.0,0.0,0.0,0.0,0.0,0.0,0.0,0.0,0.0,0.0,0.0,0.0,0.0,0.0,0.0,0.0,0.0,0.0,0.0,0.0,0.0,0.0,0.0,0.0,0.0,0.0,0.0,0.0,0.0,0.0,0.0,0.0,0.0,0.0,0.0,0.0,0.0,0.0,0.0,0.0,0.0,0.0,0.0,0.0,0.0,0.0,0.0,0.0,0.0,0.0,0.0,0.0,0.0,0.0,0.0,0.0,0.0,0.0,0.0,0.0,0.0,0.0,0.0,0.0,0.0,0.0,0.0,0.0,0.0,0.0,0.0,0.0,0.0,0.0,0.0,0.0,0.0,0.0,0.0,0.0,0.0,0.0,0.0,0.0,0.0,0.0,0.0,0.0,0.0,0.0,0.0,0.0,0.0,0.0,0.0,0.0,0.0,0.0,0.0,0.0,0.0,0.0,0.0,0.0,0.0,0.0,0.0,0.0,0.0,0.0,0.0,0.0,0.0,0.0,0.0,0.0,0.0,0.0,0.0,0.0,0.0,0.0,0.0,0.0,0.0,0.0,0.0,0.0,0.0,0.0,0.0,0.0,0.0,0.0,0.0,0.0,0.0,0.0,0.0,0.0,0.0,0.0,0.0,0.0,0.0,0.0,0.0,0.0,0.0,0.0,0.0,0.0,0.0,0.0,0.0,0.0,0.0,0.0,0.0,0.0,0.0,0.0,0.0,0.0,0.0,0.0,0.0,0.0,0.0,0.0,0.0,0.0,0.0,0.0,0.0,0.0,0.0,0.0,0.0,0.0,0.0,0.0,0.0,0.0,0.0,0.0,0.0,0.0,0.0,0.0,0.0,0.0,0.0,0.0,0.0,0.0,0.0,0.0,0.0,0.0,0.0,0.0,0.0,0.0,0.0,0.0,0.0,0.0,0.0,0.0,0.0,0.0,0.0,0.0,0.0,0.0,0.0,0.0,0.0,0.0,0.0,0.0,0.0,0.0,0.0,0.0,0.0,0.0,0.0,0.0,0.0,0.0,0.0,0.0,0.0,0.0,0.0,0.0,0.0,0.0,0.0,0.0,0.0,0.0,0.0,0.0,0.0,0.0,0.0,0.0,0.0,0.0,0.0,0.0,0.0,0.0,0.0,0.0,0.0,0.0,0.0,0.0,0.0,0.0,0.0,0.0,0.0,0.0,-0.0959,-0.1917,0.0,0.0,0.0,0.0,0.0,0.0,0.0,0.0,0.0,0.0,0.0,0.0,0.0,0.0,0.0,0.0,0.0,0.0,0.0,0.0,0.0,0.0,0.0,0.9853,1.0194,1.0558,1.082,1.1015,1.1083,1.085,1.0567,1.0228,1.0073,0.9931,0.9708,0.9583,0.9481,0.9396,0.9332,0.9249,0.9088,0.8276,0.7307,0.6191,0.0,0.0,0.0,0.0,0.0,0.0,0.0,0.0,0.0,0.0,0.0,0.0,0.0,0.0,0.0,0.0,0.0,0.0,0.0,0.0,0.0,0.0,0.0,0.0,0.0,0.0,0.0,0.0,0.0,0.0,0.0,0.0,0.0,0.0,0.0,0.0,0.0,0.0,0.0,0.0,0.0,0.0,0.0,0.0,0.0,0.0,0.0,0.0,0.0,0.0,0.0,0.0,0.0,0.0,0.0,0.0,0.0,0.0,0.0,0.0,0.0,0.0,0.0,0.0,0.0,0.0,0.0,0.0,0.0,0.0,-0.0558,-0.1363,0.0,0.0,0.0,0.0,0.0,0.0,0.0,0.0,0.0,0.0,0.0,0.0,0.0,0.0,0.0,0.0,0.0,0.0,0.0,0.0,0.0,0.9697,1.0183,1.0556,1.0899,1.1196,1.1555,1.1747,1.1747,1.1716,1.1567,1.1255,1.1248,1.1152,1.0915,1.0885,1.0797,1.0689,1.0689,1.0579,1.0373,0.9929,0.897,0.76,0.71,0.0,0.0,0.0,0.0,0.0,0.0,0.0,0.0,0.0,0.0,0.0,0.0,0.0,0.0,0.0,0.0,0.0,0.0,0.0,0.0,0.0,0.0,0.0,0.0,0.0,0.0,0.0,0.0,0.0,0.0,0.0,0.0,0.0,0.0,0.0,0.0,0.0,0.0,0.0,0.0,0.0,0.0,0.0,0.0,0.0,0.0,0.0,0.0,0.0,0.0,0.0,0.0,0.0,0.0,0.0,0.0,0.0,0.0,0.0,0.0,0.0,0.0,0.0,0.0,0.0,0.0,0.0,0.0,0.0,-0.0255,-0.081,-0.1613,-0.2671,0.0,0.0,0.0,0.0,0.0,0.0,0.0,0.0,0.0,0.0,0.0,0.0,0.0,0.0,0.0,0.0,0.0,0.0,0.0,1.0035,1.0329,1.0997,1.1475,1.1777,1.2162,1.239,1.239,1.2112,1.1934,1.1889,1.1889,1.1866,1.1821,1.1608,1.1456,1.1456,1.1456,1.1511,1.158,1.1207,1.0694,0.997,0.8314,0.7343,0.6928,0.0,0.0,0.0,0.0,0.0,0.0,0.0,0.0,0.0,0.0,0.0,0.0,0.0,0.0,0.0,0.0,0.0,0.0,0.0,0.0,0.0,0.0,0.0,0.0,0.0,0.0,0.0,0.0,0.0,0.0,0.0,0.0,0.0,0.0,0.0,0.0,0.0,0.0,0.0,0.0,0.0,0.6901,0.6795,0.0,0.0,0.0,0.0,0.0,0.0,0.0,0.0,0.0,0.0,0.0,0.0,0.0,0.0626,0.0371,0.0106,0.0,0.0,0.0,0.0,0.0,0.0,0.0,0.0,-0.0052,0.0,-0.1313,-0.2422,0.0,0.0,0.0,0.0,0.0,0.0,0.0,0.0,0.0,0.0,0.0,0.0,0.0,0.0,0.0,0.0,0.0,0.0,0.0,0.0,0.0,1.1902,1.2363,1.2726,1.3122,1.3338,1.3338,1.3216,1.3117,1.3117,1.3117,1.3117,1.3117,1.2997,1.2944,1.2944,1.2944,1.2868,1.275,1.2405,1.1934,1.1274,1.0076,0.8986,0.8022,0.7531,0.0,0.0,0.0,0.0,0.0,0.0,0.0,0.0,0.0,0.0,0.0,0.0,0.0,0.0,0.0,0.0,0.0,0.0,0.0,0.0,0.0,0.0,0.0,0.0,0.0,0.0,0.0,0.0,0.0,0.0,0.0,0.0,0.0,0.0,0.0,0.0,0.0,0.0,0.0,0.7178,0.7276,0.7178,0.6804,0.6226,0.0,0.0,0.0,0.0,0.0,0.0,0.0,0.0,0.0,0.2052,0.158,0.1005,0.0427,0.0108,0.0,0.0,0.0,0.0,0.0,0.0,0.0,0.0,0.0,-0.0308,-0.0808,-0.1766,-0.2572,-0.3376,0.0,0.0,0.0,0.0,-0.6854,-0.73,0.0,0.0,0.0,0.0,0.0,0.0,0.0,0.0,0.0,0.0,0.0,0.0,1.23,1.2715,1.3168,1.3662,1.4035,1.428,1.4401,1.4389,1.4359,1.4359,1.433,1.43,1.43,1.421,1.416,1.4121,1.4121,1.4001,1.3752,1.3411,1.2956,1.2413,1.1763,1.0584,0.9143,0.8711,0.8163,0.7541,0.0,0.0,0.0,0.0,0.0,0.0,0.0,0.0,0.0,0.0,0.0,0.0,0.0,0.0,0.0,0.0,0.0,0.0,0.0,0.0,0.0,0.0,0.0,0.0,0.0,0.0,0.0,0.0,0.0,0.0,0.0,0.0,0.0,0.0,0.0,0.0,0.0,0.7485,0.7614,0.7563,0.7381,0.6991,0.0,0.0,0.0,0.0,0.0,0.0,0.4113,0.412,0.3839,0.3103,0.2251,0.1451,0.0649,0.0219,0.0,0.0,0.0,0.0,0.0,0.0,0.0,0.0,0.0,-0.0104,-0.0356,-0.1112,-0.1715,-0.232,-0.3374,-0.4176,-0.4778,-0.5534,-0.6234,-0.6839,0.0,0.0,0.0,0.0,0.0,0.0,0.0,0.0,0.0,0.0,0.0,1.2372,1.273,1.3117,1.3691,1.4466,1.4743,1.5046,1.5496,1.54,1.5323,1.5323,1.5206,1.5147,1.5147,1.4824,1.4588,1.4469,1.4469,1.4469,1.444,1.4121,1.3851,1.367,1.3017,1.1841,1.0358,0.9697,0.9129,0.8592,0.8242,0.0,0.0,0.0,0.0,0.0,0.0,0.0,0.0,0.0,0.0,0.0,0.0,0.0,0.0,0.0,0.0,0.0,0.0,0.0,0.0,0.0,0.0,0.0,0.0,0.0,0.0,0.0,0.0,0.0,0.0,0.0,0.0,0.0,0.0,0.0,0.0,0.0,0.0,0.7961,0.7733,0.0,0.0,0.0,0.0,0.6177,0.5938,0.5832,0.5932,0.5415,0.4874,0.4303,0.2947,0.1871,0.1287,0.0448,0.0,0.0,0.0,0.0,0.0,0.0,0.0,0.0,0.0,0.0,-0.0052,-0.0611,-0.1161,-0.1664,-0.2017,-0.2621,-0.3374,-0.393,-0.4784,-0.5787,0.0,0.0,0.0,0.9006,0.9619,1.0237,1.0798,1.1402,1.2049,1.2662,1.2914,1.3132,1.342,1.3867,1.429,1.4582,1.493,1.5233,1.5388,1.5355,1.5461,1.5756,1.5738,1.5825,1.6104,1.5758,1.5584,1.5526,1.5061,1.4782,1.4687,1.4091,1.3661,1.3407,1.3127,1.2581,1.1812,1.0985,1.0292,0.9687,0.9229,0.8683,0.0,0.0,0.0,0.0,0.0,0.0,0.0,0.0,0.0,0.0,0.0,0.0,0.0,0.0,0.0,0.0,0.0,0.0,0.0,0.0,0.0,0.0,0.0,0.0,0.0,0.0,0.0,0.0,0.0,0.0,0.0,0.0,0.0,0.0,0.0,0.0,0.0,0.7971,0.8029,0.0,0.7674,0.7548,0.7361,0.6991,0.6997,0.6945,0.6687,0.6266,0.5532,0.4508,0.3182,0.2072,0.1026,0.0338,0.0,0.0,0.0,0.0,0.0,0.0,0.0,0.0,0.0,0.0,0.0,-0.0204,-0.0505,-0.0858,-0.1312,-0.1866,-0.252,-0.3225,-0.418,-0.5186,0.7885,0.8275,0.0,0.9123,0.9888,1.0628,1.1173,1.196,1.2651,1.3202,1.3505,1.38,1.4129,1.4538,1.486,1.5121,1.5427,1.5654,1.5844,1.5855,1.5986,1.6293,1.6378,1.6542,1.6786,1.657,1.6317,1.5992,1.5482,1.5049,1.4698,1.4125,1.3693,1.3413,1.3273,1.3083,1.2896,1.2198,1.1481,1.0755,1.0303,0.9863,0.9449,0.0,0.0,0.0,0.0,0.0,0.0,0.0,0.0,0.0,0.0,0.0,0.0,0.0,0.0,0.0,0.0,0.0,0.0,0.0,0.0,0.0,0.0,0.0,0.0,0.0,0.0,0.0,0.0,0.0,0.0,0.0,0.0,0.0,0.0,0.7952,0.8024,0.7978,0.8177,0.8217,0.8057,0.8138,0.8085,0.7815,0.7927,0.788,0.7517,0.7018,0.6165,0.4818,0.3484,0.2172,0.1092,0.0341,0.0,0.0,0.0,0.0,0.0,0.0,0.0,0.0,0.0,0.0,0.0,0.0,-0.0101,-0.0303,-0.0657,-0.106,-0.1564,-0.2368,-0.3275,-0.4282,0.744,0.7987,0.8537,0.8935,1.0176,1.1211,1.1562,1.2517,1.3362,1.3763,1.4069,1.4408,1.4858,1.5028,1.5418,1.6139,1.6174,1.6385,1.6841,1.6864,1.6864,1.6888,1.715,1.7262,1.7191,1.7174,1.6741,1.5825,1.571,1.5276,1.4503,1.4208,1.4012,1.3851,1.3548,1.347,1.3562,1.3246,1.2619,1.1818,1.149,1.0986,1.0463,0.0,0.0,0.0,0.0,0.0,0.0,0.0,0.0,0.0,0.0,0.0,0.0,0.0,0.0,0.0,0.0,0.0,0.0,0.0,0.0,0.0,0.0,0.0,0.0,0.0,0.0,0.0,0.0,0.0,0.0,0.0,0.0,0.0,0.8408,0.8339,0.8333,0.8038,0.818,0.833,0.833,0.8411,0.8557,0.8706,0.8716,0.8614,0.8478,0.772,0.6707,0.5453,0.3732,0.2336,0.1439,0.046,0.0,0.0,0.0,0.0,0.0,0.0,0.0,0.0,0.0,0.0,0.0,0.0,0.0,0.0,0.0,-0.0152,-0.0505,-0.1261,-0.2118,-0.3127,0.7718,0.8234,0.8765,0.9268,1.0494,1.1463,1.1715,1.2825,1.3729,1.4035,1.4547,1.4983,1.53,1.5491,1.5696,1.5884,1.5918,1.5955,1.6086,1.6098,1.6277,1.6681,1.6987,1.7153,1.7127,1.6834,1.6509,1.617,1.5448,1.4894,1.449,1.3766,1.3402,1.3317,1.334,1.3261,1.3162,1.3168,1.3155,1.3058,1.2432,1.1927,1.156,0.0,0.0,0.0,0.0,0.0,0.0,0.0,0.0,0.0,0.0,0.0,0.0,0.0,0.0,0.0,0.0,0.0,0.0,0.0,0.0,0.0,0.0,0.0,0.0,0.0,0.0,0.0,0.0,0.0,0.0,0.0,1.1733,1.0872,0.9421,0.8894,0.8577,0.8333,0.8367,0.8425,0.8425,0.8659,0.8828,0.8817,0.8821,0.8617,0.8152,0.761,0.6627,0.5251,0.3886,0.2612,0.1463,0.0686,0.0169,0.0,0.0,0.0,0.0,0.0,0.0,0.0,0.0,0.0,0.0,0.0,0.0,0.0,0.0,-0.0152,-0.0455,-0.0858,-0.1917,-0.3275,0.7884,0.8378,0.8949,0.9634,1.0733,1.1663,1.215,1.3165,1.401,1.4373,1.4915,1.5379,1.5691,1.5913,1.6044,1.6088,1.6088,1.6088,1.6088,1.6088,1.631,1.6826,1.7049,1.7183,1.7314,1.7094,1.6731,1.6253,1.5641,1.5009,1.4438,1.3769,1.3334,1.3138,1.3199,1.3179,1.3138,1.321,1.3358,1.3513,1.3272,1.3044,1.2842,1.2842,1.2842,1.2818,1.2674,1.2721,1.2852,1.2852,0.0,0.0,0.0,0.0,0.0,0.0,0.0,0.0,0.0,0.0,0.0,0.0,0.0,0.0,0.0,0.0,0.0,0.0,0.0,0.0,0.0,0.0,0.0,0.0,1.2858,1.2059,1.0921,0.9805,0.897,0.8482,0.8453,0.8482,0.8482,0.876,0.8885,0.8885,0.8885,0.8716,0.8211,0.772,0.6846,0.5464,0.4296,0.3079,0.1865,0.1144,0.0565,0.0168,0.0168,0.0112,0.0,0.0,0.0,0.0,0.0,0.0,0.0,0.0,0.0,0.0,0.0,0.0,0.0,0.0,-0.1614,-0.2821,0.8033,0.8577,0.9247,1.0074,1.0972,1.1866,1.2683,1.3504,1.4197,1.4651,1.5198,1.5669,1.6001,1.6262,1.6436,1.65,1.65,1.65,1.65,1.65,1.6695,1.7095,1.7119,1.7228,1.7459,1.7483,1.7039,1.6209,1.5986,1.538,1.4466,1.4046,1.3634,1.3242,1.3138,1.316,1.325,1.325,1.3337,1.3523,1.3923,1.4057,1.3978,1.4052,1.407,1.407,1.407,1.4319,1.4649,1.4649,0.0,0.0,0.0,0.0,0.0,0.0,0.0,0.0,0.0,0.0,0.0,0.0,0.0,0.0,0.0,0.0,0.0,0.0,0.0,0.0,0.0,0.0,0.0,0.0,1.3773,1.3098,1.2516,1.089,0.9464,0.8581,0.8491,0.8465,0.8479,0.8743,0.8865,0.8881,0.8885,0.8771,0.854,0.8054,0.0,0.0,0.0,0.3786,0.2526,0.1836,0.1195,0.0561,0.0505,0.0336,0.0112,0.0112,0.0055,0.0055,0.0054,0.0053,0.0,0.0,0.0,0.0,0.0,0.0,-0.0051,-0.0556,-0.1211,-0.1967,0.8735,0.95,1.0259,1.0816,1.1631,1.236,1.2746,1.3678,1.4443,1.48,1.5379,1.5859,1.6122,1.6349,1.65,1.65,1.65,1.65,1.65,1.65,1.655,1.662,1.6641,1.6648,1.6704,1.665,1.649,1.6193,1.5835,1.5427,1.4949,1.4385,1.3918,1.3515,1.3234,1.3052,1.2973,1.2973,1.3361,1.398,1.4067,1.3988,1.3876,1.4262,1.441,1.441,1.441,1.4653,1.5,1.5,1.5305,1.5707,1.5707,1.5885,0.0,0.0,0.0,0.0,0.0,0.0,0.0,0.0,0.0,0.0,0.0,0.0,0.0,0.0,0.0,0.0,0.0,0.0,0.0,1.528,1.4746,1.3962,1.2786,1.1624,1.0408,0.9183,0.8606,0.8357,0.8472,0.8648,0.8804,0.8875,0.8885,0.8771,0.854,0.8229,0.7675,0.6643,0.5976,0.5062,0.3788,0.306,0.2361,0.1514,0.1234,0.0,0.0714,0.0714,0.0599,0.0321,0.0316,0.0208,0.0,0.0,0.0,0.0,0.0,0.0,-0.0051,-0.0354,-0.0707,-0.1161,0.958,1.0123,1.0651,1.1282,1.1924,1.253,1.3029,1.377,1.4432,1.4835,1.5424,1.5903,1.6178,1.6371,1.65,1.65,1.65,1.65,1.65,1.65,1.65,1.65,1.65,1.65,1.65,1.6479,1.6392,1.6297,1.6022,1.5691,1.5289,1.48,1.4246,1.3692,1.3392,1.3113,1.2915,1.3105,1.3437,1.3831,1.426,1.4387,1.4336,1.4781,1.4942,1.4942,1.4942,1.5217,1.5645,1.5832,1.6224,1.6636,1.6845,1.7011,1.7129,0.0,0.0,0.0,0.0,0.0,0.0,0.0,0.0,0.0,0.0,0.0,0.0,0.0,0.0,1.5536,1.5417,0.0,1.5611,1.5663,1.5118,1.4394,1.3414,1.2209,1.0855,0.9385,0.8783,0.8481,0.8521,0.8621,0.8774,0.8871,0.8885,0.8826,0.8712,0.85,0.803,0.741,0.6901,0.6057,0.4983,0.4496,0.3751,0.2688,0.2445,0.2094,0.1531,0.1463,0.123,0.0789,0.0678,0.0465,0.0205,0.0051,0.0,0.0,0.0,0.0,0.0,-0.0152,-0.0354,-0.0657,1.023,1.0589,1.1012,1.1729,1.2194,1.2672,1.3287,1.3823,1.4339,1.48,1.5379,1.5859,1.6122,1.6349,1.65,1.65,1.65,1.65,1.65,1.65,1.65,1.65,1.65,1.65,1.65,1.65,1.6479,1.6414,1.6275,1.5969,1.5558,1.5074,1.449,1.381,1.3515,1.324,1.3052,1.3359,1.3603,1.3818,1.4512,1.4834,1.4941,1.5283,1.541,1.541,1.541,1.5693,1.6153,1.6484,1.6953,1.7474,1.7783,1.7939,1.8008,1.8008,1.8008,0.0,0.0,0.0,0.0,0.0,0.0,0.0,0.0,1.7371,1.7207,1.6151,1.5962,1.5908,1.5531,1.5671,1.5784,1.5784,1.5261,1.464,1.4052,1.2791,1.1336,0.9776,0.9052,0.8699,0.8573,0.8647,0.8743,0.8868,0.8885,0.8885,0.8885,0.8712,0.8429,0.81,0.7654,0.7041,0.6146,0.5871,0.5139,0.4007,0.3845,0.3319,0.2541,0.24,0.2047,0.1497,0.1084,0.0717,0.0404,0.0152,0.0051,0.0,0.0,0.0,0.0,0.0,-0.0152,-0.0354,1.0269,1.1123,1.1883,1.2322,1.273,1.3112,1.3362,1.3739,1.4197,1.4651,1.5198,1.5669,1.6001,1.6262,1.6436,1.65,1.65,1.65,1.65,1.65,1.65,1.65,1.65,1.65,1.65,1.65,1.65,1.65,1.6297,1.6035,1.5748,1.5062,1.4456,1.3954,1.3457,1.3303,1.3437,1.3486,1.3945,1.4648,1.4774,1.501,1.5352,1.5391,1.541,1.541,1.541,1.5693,1.6105,1.6153,1.6721,1.7425,1.7441,1.7705,1.8008,1.8008,1.8008,1.8008,1.7974,1.8247,1.8741,1.9717,1.9847,1.9654,0.0,1.9125,1.8617,1.701,1.6785,1.664,1.5873,1.5758,1.5784,1.5784,1.5594,1.5159,1.4346,1.3516,1.2446,1.1145,0.9682,0.883,0.8832,0.866,0.8628,0.8861,0.8885,0.8885,0.8885,0.8881,0.8712,0.8429,0.8374,0.8042,0.7382,0.7157,0.6438,0.5362,0.5132,0.4614,0.3904,0.364,0.3192,0.2581,0.157,0.0861,0.0404,0.0354,0.0202,0.0,0.0,0.0,0.0,0.0,0.0,-0.0101,1.0256,1.1141,1.1902,1.2298,1.2725,1.3051,1.321,1.3536,1.3962,1.4466,1.5028,1.5546,1.5944,1.6284,1.6479,1.65,1.65,1.65,1.65,1.65,1.65,1.65,1.65,1.65,1.65,1.65,1.6479,1.6436,1.6275,1.5991,1.5603,1.5062,1.461,1.4223,1.3881,1.3761,1.386,1.4141,1.4463,1.4805,1.5049,1.5254,1.541,1.541,1.541,1.541,1.5546,1.5693,0.0,1.6227,1.6534,1.6817,1.7074,1.7393,1.7646,1.7646,1.7822,1.8057,1.8276,1.8831,1.9438,1.9793,2.0378,2.0643,2.0018,1.9966,1.9622,1.8033,1.7556,1.7145,1.6211,1.617,1.6285,1.6134,1.5886,1.5548,1.5069,1.4195,1.3178,1.217,1.1095,1.0074,0.9201,0.8909,0.8774,0.8916,0.8885,0.8885,0.8885,0.8885,0.8826,0.8712,0.8712,0.8546,0.8156,0.7913,0.7466,0.665,0.6353,0.5924,0.5321,0.4963,0.4262,0.3228,0.2472,0.1716,0.1059,0.0757,0.0455,0.0202,0.0051,0.0,0.0,0.0,0.0,0.0,1.0161,1.1057,1.1828,1.2175,1.2603,1.2954,1.3085,1.3344,1.3729,1.428,1.4835,1.54,1.6001,1.6328,1.65,1.65,1.65,1.65,1.65,1.65,1.65,1.65,1.65,1.65,1.65,1.6479,1.6489,1.6551,1.6343,1.608,1.5776,1.5288,1.4882,1.453,1.4226,1.4142,1.4255,1.451,1.4781,1.5051,1.5264,1.5419,1.5507,1.5507,1.5459,1.5439,1.5643,1.5701,1.5751,1.6187,1.6337,1.6406,1.6755,1.7147,1.7471,1.7471,1.7709,1.8135,1.8637,1.9268,1.9787,2.0004,2.0718,2.1224,2.0442,2.0443,2.0162,1.8774,1.8064,1.7455,1.648,1.645,1.6477,1.6308,1.612,1.5924,1.5637,1.4868,1.4062,1.3236,1.2446,1.1448,1.0205,0.9501,0.9087,0.903,0.8937,0.8885,0.8885,0.8885,0.8885,0.8885,0.8844,0.8763,0.8536,0.8399,0.8094,0.7517,0.7324,0.6955,0.6457,0.6022,0.5183,0.4029,0.3478,0.2723,0.1865,0.1363,0.0909,0.0505,0.0202,0.0051,0.0,0.0,0.0,0.0,0.9961,1.0922,1.1803,1.2051,1.2554,1.2954,1.3085,1.3272,1.361,1.4129,1.4605,1.5243,1.61,1.6371,1.65,1.65,1.65,1.65,1.65,1.65,1.65,1.65,1.65,1.65,1.65,1.6436,1.6566,1.6892,1.656,1.6419,1.6443,1.5789,1.5272,1.4867,1.4324,1.4274,1.456,1.4251,1.4693,1.5548,1.5383,1.5506,1.5781,1.5781,1.5642,1.5439,1.5643,1.5701,1.5711,1.5876,1.6186,1.6507,1.6518,1.7015,1.7582,1.7582,1.7799,1.8193,1.9043,1.9287,1.9609,2.0839,2.1181,2.1115,2.0838,2.0656,2.0139,1.8838,1.8168,1.7546,1.672,1.6366,1.6232,1.6274,1.6273,1.6175,1.5918,1.5624,1.5127,1.4376,1.354,1.278,1.2068,1.0515,0.9522,0.942,0.9103,0.8885,0.8885,0.8885,0.8885,0.8885,0.8794,0.8716,0.8716,0.8567,0.831,0.7862,0.7853,0.7626,0.7141,0.6637,0.5934,0.5129,0.458,0.3728,0.2725,0.2169,0.1514,0.0758,0.0505,0.0253,0.0,0.0,0.0,0.0,0.9943,1.0922,1.1778,1.2051,1.2529,1.2929,1.2954,1.3214,1.3552,1.4001,1.4903,0.0,0.0,0.0,0.0,0.0,1.65,1.65,1.65,1.65,1.65,1.65,1.65,1.6697,1.7087,1.6988,1.7022,1.7231,1.6846,1.6388,1.5833,1.533,1.5046,1.4933,1.4687,1.4757,1.5074,1.4951,1.5011,1.5214,1.5255,1.5455,1.569,1.5804,1.5768,1.57,0.0,1.5861,1.5885,1.6144,1.6236,1.6283,1.6606,1.7001,1.7436,1.7916,1.8542,1.9114,1.9245,1.9734,2.0282,2.0674,2.1016,2.1149,2.0929,2.091,2.0633,1.9385,1.896,1.8364,1.6989,1.6899,1.6905,1.6612,1.656,1.6627,1.672,1.6336,1.587,1.5407,1.4808,1.4103,1.3325,1.1536,1.0228,0.9695,0.9379,0.9113,0.8794,0.8788,0.874,0.8638,0.8584,0.856,0.856,0.8414,0.8316,0.8163,0.8009,0.7788,0.7444,0.7291,0.6842,0.6239,0.5687,0.4935,0.4081,0.3175,0.2319,0.1514,0.0909,0.0505,0.0253,0.0051,0.0,0.0,0.9935,1.0846,1.1669,1.2051,1.2505,0.0,0.0,0.0,0.0,0.0,0.0,0.0,0.0,0.0,0.0,0.0,0.0,1.65,1.65,1.65,1.65,1.65,1.6722,1.6977,1.7307,1.7347,1.7362,1.744,1.6975,1.6439,1.5775,1.5464,1.5221,1.505,1.4888,1.4872,1.5,1.4772,1.4718,1.4871,1.4871,1.5136,1.5564,1.576,1.5876,0.0,1.6185,1.6255,1.6307,1.6304,1.6323,1.641,1.6765,1.7155,1.7636,1.8161,1.8785,1.9354,1.9321,1.9795,2.041,2.0566,2.0781,2.0917,2.0727,2.0809,2.057,1.9545,1.917,1.8592,1.7161,1.6961,1.6992,1.6726,1.6707,1.6807,1.7159,1.6892,1.6519,1.6208,1.5797,1.521,1.4462,1.2976,1.1585,1.0355,0.976,0.9301,0.8875,0.8712,0.8584,0.8486,0.8431,0.8408,0.8408,0.8262,0.8187,0.8187,0.8039,0.7892,0.7743,0.7743,0.7494,0.7045,0.6642,0.5989,0.5135,0.418,0.3224,0.2369,0.1564,0.101,0.0657,0.0253,0.0152,0.0152,0.9909,1.0694,1.1477,0.0,0.0,0.0,0.0,0.0,0.0,0.0,0.0,0.0,0.0,0.0,0.0,0.0,0.0,0.0,1.65,1.65,1.6513,1.6538,1.7064,1.7345,1.7248,1.7482,1.7589,1.7508,1.6957,1.6542,1.6265,1.6019,1.5638,1.5129,1.4857,1.4617,1.4404,1.3782,1.3914,1.4529,1.421,1.4581,1.5376,1.5596,1.59,1.6226,1.6577,1.6811,1.6914,1.6353,1.6452,1.6889,1.7019,1.7574,1.8222,1.8315,1.8661,1.9027,1.9281,1.9629,2.0049,2.0507,2.0605,2.0566,2.0342,2.0303,2.0095,1.9389,1.887,1.8262,1.7288,1.6759,1.6535,1.6715,1.6707,1.6814,1.7179,1.7226,1.7123,1.6769,1.6497,1.6131,1.5589,1.4756,1.3457,1.1383,1.0247,0.9563,0.9237,0.8765,0.8518,0.8511,0.8381,0.831,0.831,0.8113,0.7988,0.7988,0.7988,0.7988,0.7988,0.7988,0.7842,0.7596,0.7341,0.6789,0.5992,0.5188,0.423,0.3224,0.242,0.1766,0.1212,0.0656,0.0455,0.0404,0.0,0.0,0.0,0.0,0.0,0.0,0.0,0.0,0.0,0.0,0.0,0.0,0.0,0.0,0.0,0.0,0.0,0.0,1.65,1.6457,1.6614,1.6993,1.6973,1.7311,1.8081,1.7816,1.7716,1.7797,1.7093,1.6377,1.5613,1.4948,1.4528,1.4301,1.3958,1.3896,1.3967,1.3798,1.3744,1.3799,1.3856,1.4249,1.486,1.5205,1.5703,1.6247,1.6468,1.6661,1.6794,1.6908,1.7296,1.7756,1.7819,1.8541,1.9301,1.9047,1.9489,2.0035,1.9801,2.0068,2.0458,2.0576,2.0605,2.0605,2.0527,2.0527,2.0323,1.9647,1.9615,1.9221,1.7755,1.756,1.7497,1.7054,1.7021,1.7096,1.7454,1.7521,1.7475,1.737,1.7114,1.6825,1.6405,1.5666,1.4677,1.3477,1.1665,1.031,0.9659,0.9024,0.8575,0.8452,0.8216,0.8099,0.8099,0.8008,0.7988,0.7988,0.7988,0.7988,0.7988,0.7988,0.7942,0.7892,0.7593,0.7291,0.6839,0.6039,0.5286,0.4578,0.3575,0.2874,0.2322,0.1564,0.1161,0.0909,0.0,0.0,0.0,0.0,0.0,0.0,0.0,0.0,0.0,0.0,0.0,0.0,0.0,0.0,0.0,0.0,0.0,0.0,0.0,1.7092,1.7196,1.7368,1.7411,1.7604,1.7989,1.7865,1.7668,1.7412,1.6814,1.6007,1.5089,1.4514,1.4082,1.3776,1.3507,1.3456,1.3513,1.3361,1.3258,0.0,0.0,1.3651,1.431,1.4768,1.5415,1.6176,1.6652,1.7016,1.7324,1.7698,1.8028,1.8306,1.8532,1.9137,1.9742,1.9444,1.9862,2.0317,1.9997,2.0234,2.0605,2.0605,2.0605,2.0605,2.0605,2.0605,2.0411,1.9764,1.9815,1.953,1.807,1.7895,1.7837,1.7337,1.717,1.7231,1.7554,1.7582,1.7582,1.7582,1.7483,1.7272,1.6955,1.6253,1.5539,1.4757,1.2708,1.1159,1.0407,0.9564,0.8922,0.8581,0.8333,0.8137,0.7988,0.7988,0.7988,0.7988,0.7988,0.7988,0.7988,0.7988,0.7988,0.7988,0.7842,0.7643,0.7341,0.6739,0.6187,0.5632,0.468,0.4029,0.3578,0.2621,0.2118,0.1817,0.0,0.0,0.0,0.0,0.0,0.0,0.0,0.0,0.0,1.4084,1.4693,1.5349,1.6126,1.655,0.0,0.0,0.0,0.0,0.0,0.0,1.7811,1.763,1.7915,1.7871,1.7514,1.7682,1.7412,1.6722,1.6257,1.5555,1.4656,1.4298,1.3854,1.3384,1.3191,1.3112,1.3046,1.2709,1.2673,1.2826,1.2636,1.3032,1.3796,0.0,1.5073,1.6044,1.6925,1.7554,1.8032,1.8393,1.8523,1.8642,1.9103,1.9534,1.9849,1.9723,1.9967,2.0256,2.0048,2.0273,2.0605,2.0605,2.0605,2.0605,2.0605,2.0605,2.0411,1.9833,1.991,1.97,1.8442,1.8169,1.8011,1.7597,1.7335,1.7261,1.7501,1.7555,1.7569,1.7528,1.7522,1.7463,1.7167,1.662,1.6092,1.5488,1.3718,1.2292,1.135,1.0352,0.946,0.8825,0.8531,0.8283,0.7988,0.7988,0.7988,0.7988,0.7988,0.7988,0.7988,0.7988,0.7988,0.7988,0.7988,0.7892,0.7646,0.7341,0.6986,0.6487,0.5732,0.5231,0.4883,0.3827,0.3275,0.2924,0.0,0.0,0.0,0.0,0.0,0.0,0.0,0.0,0.0,0.0,1.4535,1.5271,1.618,1.6449,0.0,0.0,0.0,0.0,0.0,0.0,0.0,1.7659,1.7416,1.7353,1.75,1.7185,1.6779,1.6381,1.5826,1.5177,1.4538,1.3653,1.3084,1.2815,1.2366,1.2255,1.2452,1.2378,1.2378,1.2415,1.2378,1.2746,1.3339,1.3796,1.4625,0.0,1.7012,1.7588,1.7794,1.8018,1.8429,1.8909,1.9376,1.9932,2.0346,2.0133,2.0412,2.0749,2.0536,2.0546,2.0605,2.0605,2.0605,2.0605,2.0605,2.0605,2.0527,2.0225,2.0588,2.0588,1.9375,1.9384,1.9182,1.7919,1.7731,1.7581,1.7329,1.7481,1.7548,1.7306,1.728,1.7128,1.683,1.6467,1.6135,1.5834,1.5078,1.3989,1.2499,1.1253,1.006,0.8825,0.8531,0.8283,0.7988,0.7988,0.7988,0.7988,0.7988,0.7988,0.7988,0.7988,0.7988,0.7988,0.7988,0.7992,0.7892,0.7643,0.7494,0.7344,0.6742,0.6337,0.6034,0.5179,0.468,0.4321,0.0,0.0,0.0,0.0,0.0,0.0,0.0,1.3182,1.3645,1.4089,1.4612,1.5238,1.5948,1.6321,1.6692,0.0,0.0,0.0,0.0,0.0,0.0,1.7603,1.7411,1.7224,1.705,1.6733,1.6506,1.6295,0.0,1.5378,1.4938,1.3998,1.3354,1.2939,1.2415,1.2211,1.2305,1.2305,1.2305,1.2305,1.2305,1.2526,1.2936,1.3448,1.4517,0.0,1.683,1.7417,1.7779,1.8183,1.8502,1.8778,1.9003,1.9587,2.0185,2.0072,2.0387,2.0731,2.0644,2.0605,2.0605,2.0605,2.0605,2.0605,2.0605,2.0605,2.0527,2.0342,2.0857,2.1024,1.9954,2.0026,1.9837,1.8561,1.8134,1.7824,1.7395,1.7482,1.7464,1.7219,1.7199,1.7085,1.6734,1.6474,1.6229,1.6133,1.5593,1.4722,1.3406,1.1835,1.0605,0.9669,0.9225,0.8882,0.8638,0.8638,0.8485,0.8187,0.8187,0.8137,0.7988,0.7988,0.7988,0.7988,0.7988,0.7988,0.7988,0.7842,0.7793,0.7793,0.7394,0.7144,0.6942,0.6287,0.58,0.5396,0.0,0.0,0.0,0.0,0.0,0.0,1.248,1.2957,1.3525,1.4138,1.4627,1.5148,1.5751,1.6271,1.6692,0.0,0.0,0.0,0.0,0.0,0.0,0.0,1.7368,1.7078,1.6524,0.0,0.0,1.6246,1.6009,0.0,0.0,0.0,0.0,0.0,1.2643,1.2348,1.2305,1.2305,1.2305,0.0,0.0,1.2415,1.2673,0.0,0.0,0.0,0.0,1.7097,1.7695,1.8205,1.8436,1.8461,1.8461,1.9056,1.9805,1.9883,2.0156,2.0488,2.0576,2.0605,2.0605,2.0605,2.0605,2.0605,2.0605,2.0605,2.0566,2.0381,2.1028,2.1326,2.0428,2.0553,2.0451,1.9216,1.8624,1.8137,1.7651,1.7574,1.7442,1.7127,1.7062,1.6948,1.6547,1.6313,1.6179,1.6179,1.5767,1.501,1.395,1.2452,1.1336,1.0654,1.0167,0.9772,0.948,0.9381,0.913,0.8676,0.8528,0.8333,0.8088,0.8038,0.7988,0.7988,0.7988,0.7988,0.7988,0.7988,0.7988,0.7992,0.7743,0.7696,0.764,0.7111,0.6735,0.6343,0.0,0.0,0.0,0.0,0.0,0.0,1.1927,1.2736,1.3376,1.3557,1.4251,1.5007,1.5727,1.6367,1.6757,0.0,0.0,0.0,0.0,0.0,0.0,0.0,0.0,0.0,0.0,0.0,0.0,1.6125,1.6134,0.0,0.0,0.0,0.0,0.0,0.0,1.2348,1.2305,1.2305,0.0,0.0,0.0,0.0,0.0,0.0,0.0,0.0,0.0,1.6568,1.7304,1.7651,1.791,1.8066,1.8066,1.8652,1.9424,1.9805,1.9941,2.0059,2.0498,2.0605,2.0605,2.0605,2.0605,2.0605,2.0605,2.0605,2.0605,2.0566,2.1269,2.1627,2.089,2.1197,2.1123,1.9671,1.9262,1.8789,1.7896,1.7767,1.7499,1.6841,1.6758,1.6538,1.5939,1.5838,1.5872,1.5872,1.5648,1.501,1.395,1.327,1.2495,1.1536,1.1194,1.0806,1.0314,1.0068,0.9768,0.946,0.9019,0.8627,0.8333,0.8088,0.7988,0.7988,0.7988,0.7988,0.7988,0.7988,0.7988,0.7988,0.7992,0.7942,0.7925,0.7498,0.7343,0.7199,0.0,0.0,0.0,0.0,0.0,0.0,1.1469,1.2228,1.2867,1.3223,1.4031,1.4865,1.56,1.6247,1.6665,1.683,0.0,0.0,0.0,0.0,0.0,0.0,0.0,0.0,0.0,0.0,1.6544,1.6887,1.6666,0.0,0.0,0.0,0.0,0.0,0.0,1.2969,1.282,1.2562,0.0,0.0,0.0,0.0,0.0,0.0,0.0,0.0,0.0,0.0,1.7506,1.8221,1.8427,1.8354,1.8354,1.8588,1.8984,1.9414,1.9717,2.001,2.0488,2.0605,2.0605,2.0605,2.0605,2.0605,2.0605,2.0605,2.0605,2.0605,2.1269,2.1761,2.1326,2.1691,2.1748,2.0583,2.0212,1.9734,1.8767,1.8538,1.8197,1.7452,1.7099,1.6642,1.6103,1.5879,1.5784,1.5784,1.573,1.5445,1.4867,1.419,1.3565,1.2985,1.2743,1.2349,1.1814,1.158,1.1096,1.0306,0.9768,0.9278,0.8882,0.8435,0.8237,0.8233,0.8088,0.7988,0.7988,0.7988,0.7934,0.7902,0.7902,0.7848,0.7719,0.7566,0.7486,0.7346,0.0,0.0,0.0,0.0,0.0,1.0318,1.0778,1.15,1.2131,1.2564,1.3418,1.439,1.538,1.5905,1.6466,1.7135,1.7086,0.0,0.0,0.0,0.0,0.0,0.0,0.0,0.0,0.0,1.6916,1.7383,1.7135,1.6998,0.0,0.0,1.5311,1.4748,0.0,0.0,0.0,0.0,0.0,0.0,0.0,0.0,0.0,0.0,0.0,0.0,0.0,0.0,0.0,0.0,0.0,1.8792,1.8792,1.8792,1.8851,1.9199,1.958,2.001,2.0488,2.0605,2.0605,2.0605,2.0605,2.0605,2.0605,2.0605,2.0644,2.0732,2.1357,2.1841,2.1707,2.2141,2.2264,2.1454,2.1087,2.0624,1.9728,1.9349,1.8887,1.809,1.7519,1.701,1.6482,1.6123,1.5879,1.5832,1.5784,1.573,1.5588,1.5064,1.4586,1.4148,1.3956,1.3661,1.3167,1.2888,1.2311,1.1482,1.0801,1.0167,0.9673,0.9027,0.8676,0.8478,0.8233,0.8088,0.7985,0.7941,0.7909,0.7807,0.7767,0.7689,0.7594,0.755,0.7465,0.7366,0.0,0.0,0.0,0.0,0.0,0.9666,0.9788,1.0511,1.1148,1.1459,1.2268,1.3436,1.5024,1.538,1.6099,1.7552,1.7498,0.0,0.0,0.0,0.0,0.0,0.0,0.0,0.0,0.0,1.7517,1.7383,1.7465,1.7392,1.7166,1.6254,1.5586,1.5161,0.0,0.0,0.0,0.0,0.0,0.0,0.0,0.0,1.2936,0.0,0.0,0.0,0.0,0.0,0.0,0.0,0.0,0.0,0.0,1.9277,1.9277,1.9287,1.958,2.001,2.0488,2.0605,2.0605,2.0605,2.0605,2.0605,2.0605,2.0605,2.0693,2.1093,2.1582,2.197,2.2144,2.2515,2.2627,2.2185,2.1847,2.1427,2.0682,2.0175,1.953,1.8527,1.7971,1.752,1.7026,1.6508,1.6076,1.5832,1.5784,1.5784,1.5784,1.5778,1.5452,1.4688,1.4688,1.4544,1.4298,1.3757,1.3366,1.3071,1.2068,1.1292,1.0752,0.9957,0.9316,0.8775,0.8531,0.8237,0.7978,0.7875,0.7814,0.7797,0.7655,0.76,0.7584,0.7431,0.7419,0.735,0.0,0.0,0.0,0.0,0.0,0.0,0.9484,1.0142,1.073,1.1156,1.214,1.326,1.4507,1.512,1.5891,1.706,1.7173,0.0,0.0,0.0,0.0,0.0,0.0,0.0,0.0,1.7334,1.7586,1.7812,1.7692,1.7554,1.7392,1.683,1.6403,1.6149,1.5578,1.5267,0.0,0.0,0.0,0.0,1.3375,1.3309,1.3346,0.0,0.0,0.0,0.0,0.0,0.0,0.0,0.0,0.0,0.0,0.0,0.0,1.9717,1.9814,2.001,2.0488,2.0605,2.0605,2.0605,2.0605,2.0605,2.0605,2.0801,2.1064,2.1161,2.1765,2.2311,2.2405,2.2732,2.2925,2.2627,2.253,2.2255,2.1687,2.1221,2.0664,1.9994,1.8758,1.766,1.6824,1.6407,1.6076,1.5825,1.5784,1.5784,1.5784,1.5784,1.5689,1.5445,1.5452,1.5356,1.5112,1.4783,1.4255,1.3643,1.2786,1.2072,1.1542,1.0578,0.9932,0.9567,0.886,0.8376,0.8126,0.7777,0.7604,0.7506,0.7461,0.738,0.7233,0.7231,0.7214,0.7207,0.0,0.0,0.0,0.0,0.0,0.0,0.9133,0.9715,1.025,1.0594,1.1621,1.2708,1.3801,1.4521,1.5429,1.6678,1.6994,0.0,0.0,0.0,0.0,0.0,0.0,0.0,1.7373,1.7539,1.7744,1.8008,1.7784,1.7647,1.7564,1.7176,1.6968,1.6821,1.6394,1.6158,0.0,0.0,0.0,0.0,1.4292,1.4219,1.413,0.0,0.0,0.0,0.0,0.0,0.0,0.0,0.0,0.0,0.0,0.0,0.0,0.0,2.0156,2.0225,2.0537,2.0605,2.0605,2.0605,2.0605,2.0605,2.0605,2.0908,2.1239,2.1445,2.2031,2.2568,2.2715,2.2916,2.3057,2.2925,2.2925,2.2794,2.2407,2.2043,2.149,2.0673,1.9446,1.8257,1.7239,1.6784,1.6366,1.5974,1.5879,1.5784,1.5784,1.5784,1.5731,1.5671,1.5772,1.5677,1.5477,1.5201,1.4771,1.417,1.3466,1.2863,1.2341,1.1407,1.0688,1.0136,0.9255,0.864,0.0,0.7807,0.7547,0.7412,0.7309,0.7224,0.7095,0.7095,0.7095,0.7095,0.0,0.0,0.0,0.0,0.0,0.0,0.0,0.9305,0.9744,0.9882,1.0836,1.1911,1.2945,1.3645,1.4728,1.6359,1.6882,0.0,0.0,0.0,0.0,0.0,0.0,0.0,1.7432,1.7812,1.8008,1.8008,1.7818,1.7706,1.7706,1.7407,1.727,1.7235,1.7038,1.683,0.0,0.0,0.0,0.0,1.561,1.5454,0.0,0.0,0.0,0.0,0.0,0.0,0.0,0.0,0.0,0.0,0.0,0.0,0.0,0.0,0.0,0.0,0.0,2.0605,2.0605,2.0605,2.0605,2.0615,2.0644,2.0957,0.0,2.1846,2.2266,2.2676,2.3023,2.3091,2.3091,2.3091,2.3091,2.3047,2.2847,2.2574,2.1989,2.0817,2.0039,1.9217,1.8218,1.7481,1.6838,1.6272,1.5974,1.5825,1.5784,1.5764,1.5671,1.5404,1.5638,1.5638,1.5364,1.5127,1.4839,1.4603,1.407,1.3574,1.3115,1.2381,1.1518,1.0565,0.9815,0.9068,0.8353,0.7914,0.7622,0.7434,0.7241,0.7139,0.7139,0.7143,0.7139,0.7139,0.0,0.0,0.0,0.0,0.0,0.0,0.0,0.0,0.0,0.0,1.0921,1.1865,1.2417,1.3304,1.4312,0.0,0.0,0.0,0.0,0.0,0.0,0.0,0.0,0.0,1.7861,1.7959,1.8008,1.8008,1.794,1.793,1.793,1.7872,1.7794,1.7803,1.7613,1.727,0.0,0.0,0.0,0.0,1.6401,1.63,0.0,0.0,0.0,0.0,1.5921,1.643,0.0,0.0,0.0,0.0,0.0,0.0,0.0,0.0,2.0605,2.0605,2.0605,0.0,2.0605,2.0605,2.0605,2.0693,0.0,2.1416,2.1855,2.2275,2.2705,2.2974,2.3081,2.3091,2.3091,2.3091,2.3091,2.3091,2.3057,2.2838,2.2344,2.1311,2.0718,1.9894,1.875,1.7971,1.7232,1.6541,1.6265,1.6028,1.5832,1.5618,1.5471,1.5398,1.5251,1.5182,1.5109,1.5018,1.4821,1.4535,1.4228,1.3913,1.3541,1.2845,1.2192,1.1569,1.0531,0.965,0.8956,0.8329,0.7952,0.7775,0.7735,0.772,0.7676,0.7503,0.7415,0.737,0.0,0.0,0.0,0.0,0.0,0.0,0.0,0.0,0.0,0.0,1.0911,1.1669,1.1976,1.2841,1.3844,0.0,0.0,0.0,0.0,0.0,0.0,0.0,0.0,1.7896,1.8008,1.8008,1.8008,1.8008,1.8008,1.8008,1.8008,1.8008,1.8008,1.8008,1.7896,1.7588,0.0,0.0,1.7514,1.7239,1.7425,0.0,0.0,0.0,0.0,0.0,1.6202,1.6586,0.0,1.7672,1.8511,1.9326,0.0,0.0,0.0,0.0,2.0605,2.0605,2.0605,2.0605,2.0654,2.082,2.0869,2.0986,2.1435,2.1865,2.2236,2.2471,2.2808,2.3091,2.3091,2.3091,2.3091,2.3091,2.3091,2.3091,2.3091,2.3013,2.2706,2.2122,2.1481,2.0709,1.9712,1.8742,1.7917,1.7138,1.6683,1.6203,1.5832,1.5531,1.5271,1.5003,1.4843,1.4763,1.4763,1.4763,1.4616,1.4322,1.4193,1.3972,1.37,1.3231,1.2695,1.2154,1.131,1.046,0.9664,0.9073,0.8636,0.8332,0.8245,0.8201,0.8204,0.794,0.7808,0.7764,0.0,0.0,0.0,0.0,0.0,0.0,0.0,0.0,0.0,0.0,0.0,0.0,0.0,0.0,0.0,0.0,0.0,0.0,0.0,0.0,0.0,0.0,1.7976,1.7852,1.8008,1.8008,1.8008,1.8008,1.8008,1.8008,1.8008,1.8008,1.8008,1.8018,1.8042,1.7909,1.7612,1.808,1.8137,1.7929,1.8242,0.0,0.0,0.0,0.0,0.0,0.0,0.0,0.0,1.7545,1.8424,1.9287,1.9287,0.0,0.0,0.0,0.0,0.0,2.0605,2.0654,2.0762,2.1103,2.1239,2.1445,2.1885,2.2256,2.2529,2.2598,2.2847,2.3091,2.3091,2.3091,2.3091,2.3091,2.3091,2.3091,2.3091,2.3091,2.3013,2.2838,2.2201,2.1526,2.0808,1.9712,1.8703,1.7917,1.7188,1.65,1.5932,1.5593,1.5165,1.4579,1.4519,1.4449,1.4456,1.4456,1.4329,1.4088,1.4088,1.3997,1.3737,1.3519,1.3137,1.2534,1.2063,0.0,1.0467,1.0033,0.9593,0.9152,0.8982,0.8894,0.8851,0.8592,0.842,0.8332,0.0,0.0,0.0,0.0,0.0,0.0,0.0,0.0,0.0,0.0,0.0,0.0,0.0,0.0,0.0,0.0,0.0,0.0,0.0,0.0,0.0,1.8265,1.8244,1.8135,1.7983,1.8008,1.8008,1.8008,1.8008,1.8008,1.8008,1.8008,1.8008,1.8027,1.8234,1.8213,1.801,1.81,1.8207,1.8296,1.8398,0.0,0.0,0.0,0.0,0.0,0.0,0.0,0.0,1.7569,1.8424,1.9287,1.9287,0.0,0.0,0.0,0.0,0.0,2.0605,2.084,2.1112,2.1181,2.1514,2.1894,2.2314,2.2471,2.2617,2.2925,2.3052,2.3091,2.3091,2.3091,2.3091,2.3091,2.3091,2.3091,2.3091,2.3091,2.3013,2.2838,2.2485,2.2033,2.1356,2.0546,1.9683,1.8703,1.7896,1.7136,1.6415,1.5814,1.5308,1.484,1.4568,1.4347,1.4155,1.4155,1.4128,1.4088,1.4088,1.4088,1.4046,1.3779,1.3519,1.3222,0.0,1.2149,1.1456,1.1154,1.0766,1.0328,1.0332,1.0289,1.0246,0.9816,0.951,0.9209,0.0,0.0,0.0,0.0,0.0,0.0,0.0,0.0,0.0,0.0,0.0,0.0,0.0,0.0,0.0,0.0,0.0,0.0,0.0,0.0,1.7037,1.7778,1.7904,1.8029,1.8151,1.8056,1.8008,1.8008,1.8008,1.8008,1.8018,1.8208,1.8477,1.8711,1.8701,1.8608,1.8436,1.8415,1.8397,1.8404,0.0,0.0,0.0,0.0,0.0,0.0,0.0,0.0,0.0,0.0,1.8689,1.9326,1.9561,0.0,0.0,0.0,0.0,0.0,2.0605,2.0889,2.1249,2.1523,2.1904,2.2334,2.2711,2.2808,2.2867,2.3052,2.3091,2.3091,2.3091,2.3091,2.3091,2.3091,2.3091,2.3091,2.3091,2.3091,2.3057,2.2969,2.275,2.2441,2.1989,2.132,2.0496,1.951,1.8636,1.7765,1.6917,1.6218,1.564,1.5177,1.4769,1.4482,1.4237,1.4166,1.4088,1.4088,1.4088,1.4088,1.4088,1.3955,1.3779,1.3568,0.0,1.2918,1.2448,1.2186,1.1886,1.1542,1.1413,1.1365,1.1278,1.0722,1.012,0.9471,0.0,0.0,0.0,0.0,0.0,0.0,0.0,0.0,0.0,0.0,0.0,0.0,0.0,0.0,0.0,0.0,0.0,0.0,0.0,1.5726,1.6475,1.72,1.74,1.7715,1.8157,1.8016,1.793,1.793,1.7974,1.8057,1.8164,1.8559,1.8965,1.9287,1.9147,1.9001,1.8825,1.8653,1.85,1.847,0.0,0.0,0.0,0.0,0.0,0.0,0.0,0.0,0.0,0.0,0.0,0.0,0.0,0.0,0.0,2.0605,2.0605,2.0605,2.0605,2.0889,2.1318,2.1691,2.2171,2.2627,2.3003,2.3144,2.3188,2.3188,2.3232,2.3232,2.3188,2.3144,2.3091,2.3091,2.3091,2.3091,2.3091,2.3091,2.3091,2.3091,2.2969,2.275,2.253,2.1906,2.1129,2.0324,1.9346,1.8446,1.755,1.6907,1.6289,1.565,1.5193,1.4776,1.4482,1.4286,1.4166,1.4088,1.4088,1.4088,1.4088,1.4088,1.3997,1.3779,1.3779,1.3568,1.3222,1.3009,1.2833,1.2619,1.2406,1.2314,1.2186,1.1542,1.0814,0.999,0.0,0.0,0.0,0.0,0.0,0.0,0.0,0.0,0.0,0.0,0.0,0.0,0.0,0.0,0.0,0.0,0.0,0.0,0.0,1.4986,1.5776,1.6723,1.6821,1.7132,1.7719,1.7719,1.7706,1.7706,1.7896,1.8178,1.8568,1.9043,1.9258,1.9307,1.9268,1.925,1.9212,1.8466,1.835,1.8656,1.8233,0.0,0.0,0.0,0.0,0.0,0.0,0.0,0.0,0.0,0.0,0.0,0.0,0.0,2.0605,2.0605,2.0605,2.0605,2.0605,2.0889,2.124,2.146,2.2018,2.2627,2.3003,2.3276,2.346,2.346,2.3624,2.3667,2.3503,2.3276,2.3091,2.3091,2.3091,2.3091,2.3091,2.3091,2.3091,2.3091,2.3101,2.3013,2.2794,2.2144,2.1553,2.1065,2.0024,1.912,1.8446,1.7877,1.7196,1.6353,1.5858,1.5318,1.4692,1.4482,1.4279,1.4088,1.4088,1.4088,1.4088,1.4088,1.4088,1.4088,1.4088,1.3913,1.3652,1.3652,1.3519,1.3307,1.3307,1.3179,1.2966,1.2491,1.1977,1.1413,0.0,0.0,0.0,0.0,0.0,0.0,0.0,0.0,0.0,0.0,0.0,0.0,0.0,0.0,0.0,0.0,0.0,0.0,0.0,1.4105,1.4764,1.5478,1.5679,1.6104,1.6701,1.7276,1.7623,1.7706,1.7896,1.8359,1.9043,1.9209,1.957,2.0088,1.9995,1.9908,1.9869,1.9286,1.9104,1.925,1.8913,1.8351,0.0,0.0,0.0,0.0,0.0,0.0,0.0,0.0,1.8578,1.8936,1.9209,1.9549,1.9803,1.9803,1.9961,2.0156,2.0156,2.0566,2.1194,2.195,2.2544,2.2999,2.3285,2.3649,2.398,2.409,2.4166,2.4166,2.398,2.3851,2.3677,2.3406,2.3373,2.3276,2.3135,2.3091,2.3091,2.3091,2.3091,2.295,2.2654,2.2265,2.1736,2.1027,2.0318,1.9715,1.9227,1.8624,1.8055,1.7391,1.6722,1.5982,1.5318,1.4817,1.4482,1.4279,1.4166,1.4088,1.4088,1.4088,1.4088,1.4088,1.4088,1.4039,1.3955,1.3955,1.3913,1.3828,1.3828,1.3701,1.344,1.3137,1.2705,1.2192,0.0,0.0,0.0,0.0,0.0,0.0,0.0,0.0,0.0,0.0,0.0,0.0,0.0,0.0,0.0,0.0,0.0,0.0,1.2974,1.3404,1.3959,1.4599,1.485,1.5298,1.597,1.6723,1.7245,1.7535,1.7963,1.8574,1.9287,1.9424,1.9835,2.0489,2.0255,2.0032,1.9801,1.9471,1.9216,1.9028,1.8939,1.8578,0.0,0.0,0.0,0.0,0.0,0.0,0.0,0.0,1.849,1.8656,1.8984,1.918,1.9316,1.9443,1.9725,2.0017,2.0164,2.062,2.1347,2.2381,2.3079,2.3671,2.4228,2.4535,2.4775,2.4925,2.4925,2.4882,2.4786,2.4572,2.4325,2.397,2.3797,2.3677,2.345,2.3201,2.3036,2.3036,2.2865,2.2627,2.2344,2.2071,2.1658,2.1059,2.0564,2.0165,1.9852,1.935,1.8856,1.8336,1.7529,1.6763,1.6023,1.536,1.4859,1.4482,1.4279,1.4166,1.4088,1.4088,1.4088,1.4088,1.4088,1.4088,1.4088,1.4088,1.4088,1.4088,1.4088,1.3997,1.3786,1.3568,1.3307,1.2918,0.0,0.0,0.0,0.0,0.0,0.0,0.0,0.0,0.0,0.0,0.0,0.0,0.0,0.0,0.0,0.0,0.0,0.0,1.2764,1.2974,1.3418,1.4162,1.4395,1.4844,1.5667,1.6119,1.6621,1.721,1.8139,1.8822,1.9307,1.9717,2.0032,2.0264,2.001,1.9472,1.879,1.8721,1.8342,1.7822,1.7966,1.8039,1.8044,0.0,0.0,0.0,0.0,0.0,0.0,0.0,1.8256,1.8598,1.8598,1.8936,1.9365,1.9785,2.0053,2.0311,2.0777,2.1215,2.173,2.2688,2.3584,2.4574,2.591,2.6058,2.5893,2.5935,2.5935,2.5935,2.5893,2.5359,2.4903,2.4903,2.4529,2.4206,2.4196,2.3436,2.2911,2.2901,2.2316,2.1885,2.1885,2.1484,2.119,2.119,2.082,2.0489,2.0303,2.0069,1.9627,1.9042,1.8376,1.7602,1.673,1.6064,1.536,1.4692,1.4482,1.4279,1.4088,1.4088,1.4088,1.4088,1.4088,1.4088,1.4088,1.4088,1.4088,1.4088,1.4088,1.4088,1.4039,1.3822,1.3688,1.3646,0.0,0.0,0.0,0.0,0.0,0.0,0.0,0.0,0.0,0.0,0.0,0.0,0.0,0.0,0.0,0.0,0.0,0.0,1.2425,1.2506,1.2696,1.306,1.3416,1.3954,1.4711,1.6295,1.7427,1.8046,1.8408,1.8968,1.9727,1.9551,1.9632,1.986,1.9307,1.8807,1.8377,1.8214,1.793,1.7678,1.7972,1.7893,1.7692,0.0,0.0,0.0,0.0,0.0,0.0,0.0,0.0,0.0,1.851,1.8695,1.8916,1.9346,1.9826,2.0339,2.0998,2.1804,2.2811,2.419,2.5174,2.6086,2.707,2.7059,2.6887,2.7191,2.7244,2.7162,2.6887,2.664,2.631,2.5684,2.5485,2.5115,2.4231,2.3783,2.3338,2.2878,2.2398,2.1963,2.1657,2.1349,2.1064,2.0791,2.0674,2.0566,2.0489,2.0303,2.0029,1.9627,1.9024,1.8336,1.7602,1.6804,1.6154,1.5665,1.5166,1.4622,1.4088,1.4088,1.4088,1.4088,1.4088,1.4088,1.4088,1.4088,1.4088,1.4088,1.4088,1.3961,1.3733,1.365,1.3518,1.3305,0.0,0.0,0.0,0.0,0.0,0.0,0.0,0.0,0.0,0.0,1.2305,1.2305,0.0,0.0,0.0,1.2305,1.2305,0.0,1.2305,1.2305,1.2378,1.2599,1.2973,1.3762,1.4977,1.6654,1.7898,1.878,1.9015,1.929,1.9668,1.958,1.9442,1.9295,1.8815,1.823,1.7614,1.747,1.7107,1.6658,1.6949,1.6958,1.6821,0.0,0.0,0.0,0.0,0.0,0.0,0.0,0.0,0.0,1.8724,1.8896,1.8984,1.9414,1.995,2.0587,2.1507,2.2495,2.3669,2.5281,2.6285,2.7136,2.8211,2.8131,2.7943,2.8263,2.8251,2.8131,2.7874,2.7713,2.7429,2.6887,2.6401,2.5828,2.5123,2.4269,2.3587,2.3085,2.246,2.1889,2.1549,2.1253,2.0987,2.0751,2.0644,2.0605,2.0605,2.0498,2.0294,2.0069,1.9439,1.8789,1.818,1.7282,1.6588,1.5997,1.5506,1.494,1.4309,1.4219,1.4201,1.4201,1.4124,1.4088,1.4088,1.4088,1.4088,1.4075,1.3955,1.376,1.3586,1.3473,1.332,1.3174,0.0,0.0,1.1913,1.194,0.0,0.0,0.0,0.0,0.0,1.2305,1.2305,1.2305,0.0,0.0,0.0,1.2305,1.2305,1.2305,1.2305,1.2305,1.2378,1.2562,1.3038,1.4197,1.609,1.7081,1.814,1.9316,1.9677,1.9699,1.9404,1.9717,1.9462,1.8719,1.8432,1.767,1.6666,1.6587,1.6005,1.5133,1.5339,1.5511,1.5608,1.5463,0.0,0.0,0.0,0.0,0.0,0.0,0.0,0.0,1.9209,1.9346,1.9424,1.9844,2.0321,2.1004,2.2216,2.3246,2.4371,2.6125,2.7105,2.79,2.9151,2.9157,2.8922,2.9131,2.9,2.8882,2.887,2.853,2.8215,2.8187,2.7221,2.6426,2.6341,2.4892,2.3749,2.3514,2.2554,2.1845,2.1617,2.1244,2.0984,2.0945,2.0731,2.0605,2.0605,2.0605,2.0518,2.0285,1.964,1.9041,1.845,1.7587,1.6809,1.6057,1.5765,1.5312,1.4777,1.4513,1.4358,1.4316,1.4127,1.4008,1.4008,1.4008,1.4008,1.3981,1.3666,1.3547,1.3487,1.3267,1.3153,1.3126,0.0,0.0,1.198,1.2171,0.0,0.0,0.0,0.0,1.2305,1.2305,1.2305,1.2305,1.2305,1.2305,0.0,1.2305,1.2305,1.2305,1.2305,1.2305,1.2335,1.2378,1.3459,1.4842,1.6466,1.745,1.847,1.9554,1.9631,1.9897,2.0321,1.9697,1.9265,1.8902,1.7903,1.7066,1.6369,1.577,1.5105,1.4486,1.453,1.4471,1.4419,1.4696,1.512,0.0,0.0,0.0,0.0,0.0,0.0,0.0,1.9574,1.9775,1.9863,2.0341,2.0995,2.1826,2.2773,2.4052,2.5489,2.6904,2.8136,2.9114,2.9586,2.9663,2.9585,2.9624,2.9624,2.9534,2.9314,2.8878,2.8402,2.8094,2.7493,2.6772,2.603,2.5324,2.4662,2.4104,2.3279,2.2665,2.2478,2.1959,2.1474,2.1177,2.0935,2.078,2.0605,2.0605,2.041,1.9992,1.9668,1.925,1.863,1.8072,1.7644,1.7298,1.6771,1.6353,1.6057,1.4935,1.4139,1.3687,1.3474,1.34,1.34,1.34,1.34,1.3394,1.3327,1.3153,1.2971,1.2904,1.2737,1.2498,0.0,0.0,0.0,0.0,0.0,0.0,0.0,0.0,1.2305,1.2305,1.2305,1.2305,1.2305,1.2305,0.0,0.0,1.2305,1.2305,1.2305,1.2305,1.2402,1.2662,1.3684,1.4918,1.6372,1.7392,1.8461,1.9606,1.9694,1.9937,2.0244,1.9795,1.9372,1.8949,1.7958,1.7174,1.6581,1.552,1.4661,1.4029,1.3734,1.3503,1.3354,1.3652,1.4096,1.4639,1.5279,0.0,0.0,0.0,0.0,0.0,0.0,0.0,2.0158,2.0498,2.1055,2.1765,2.2737,2.4054,2.5627,2.7634,2.8752,2.947,2.974,2.9792,2.9716,2.944,2.9377,2.9339,2.9199,2.8712,2.8301,2.8076,2.7508,2.6944,2.6445,2.5817,2.5229,2.4766,2.4107,2.357,2.3298,2.2628,2.2063,2.1655,2.1282,2.0874,2.0417,2.033,2.0059,1.9629,1.9304,1.8954,1.8581,1.8092,1.7729,1.7478,1.7153,1.6709,1.6207,1.5057,1.4287,1.3777,1.3588,1.3476,1.3476,1.3397,1.3351,1.3298,1.3085,1.2924,1.2764,1.2623,1.2438,1.2305,0.0,0.0,0.0,0.0,0.0,0.0,0.0,0.0,0.0,1.2378,1.2338,1.2305,1.2305,1.2305,1.2305,0.0,0.0,0.0,1.2305,1.2305,1.255,1.3082,1.3857,1.4803,1.6031,1.7224,1.835,1.9455,1.9795,1.9995,2.0029,1.9951,1.9615,1.9128,1.8324,1.7631,1.7018,1.5627,1.4601,1.3796,1.3149,1.2753,1.2562,1.2783,1.3185,1.3761,1.462,1.5466,1.6331,1.7629,0.0,0.0,0.0,0.0,2.0043,2.0275,2.0641,2.1223,2.2289,2.3805,2.5588,2.7917,2.8876,2.9353,2.9585,2.9588,2.9465,2.895,2.8888,2.8863,2.8762,2.8335,2.7959,2.7959,2.7387,2.6905,2.6905,2.6204,2.5641,2.55,2.4933,2.4433,2.3979,2.3275,2.2578,2.2057,2.1467,2.085,2.015,1.9954,1.9656,1.9189,1.8792,1.8508,1.8318,1.7943,1.7613,1.7339,1.7279,1.6855,1.614,1.5287,1.4644,1.4159,1.3927,1.3811,1.3772,1.3539,1.3462,1.3395,1.2957,1.2786,1.2714,1.2429,1.2305,1.2305,0.0,0.0,0.0,0.0,0.0,0.0,0.0,0.0,0.0,0.0,1.2496,1.2305,1.2305,1.2305,1.2305,1.2305,1.2305,1.2305,1.2305,0.0,0.0,1.3082,1.3959,1.4801,1.5498,1.729,1.8417,1.8836,1.9771,2.0352,2.0507,2.0088,1.9845,1.9739,1.8934,1.8144,1.7351,1.6195,1.5041,1.3985,1.3222,1.2673,1.2378,1.2562,1.2783,1.3119,1.3732,1.4633,1.5648,1.6531,1.7358,0.0,0.0,0.0,1.8816,1.9141,1.9662,2.0383,2.1451,2.3855,2.6223,2.7101,2.8098,2.8882,2.8922,2.8827,2.8736,2.8661,2.8762,2.875,2.8298,2.777,2.7394,2.7394,2.6929,2.6565,2.6565,2.6308,2.6097,2.6097,2.5688,2.5096,2.4247,2.3629,2.2823,2.1672,2.1058,2.0499,1.9885,1.9713,1.9334,1.8705,1.8627,1.8422,1.8071,1.8003,1.794,1.7906,1.7598,1.722,1.6769,1.6113,1.5364,1.4499,1.3997,1.3814,1.3785,1.3388,1.3248,1.3204,1.2792,1.2624,1.258,1.2392,1.2305,1.2305,0.0,0.0,0.0,0.0,0.0,0.0,0.0,0.0,0.0,0.0,0.0,1.2365,1.2569,1.2405,1.2305,1.2305,1.2305,1.2305,1.2305,1.2305,1.2476,1.2923,1.3641,1.4414,1.5211,1.6699,1.7758,1.8357,1.9392,2.0024,2.0205,2.0518,2.0518,2.0273,1.9669,1.8976,1.8072,1.6618,1.5422,1.4471,1.3636,1.304,1.2716,1.286,1.2927,1.3023,1.3651,1.4191,1.4759,1.5671,1.63,1.6817,1.7523,0.0,0.0,0.0,1.8972,1.9809,2.1477,2.3068,2.4681,2.6193,2.7076,2.7597,2.7924,2.8043,2.7971,2.7607,2.7704,2.7812,2.7682,2.7228,2.6851,2.6851,2.665,2.6499,2.6499,2.643,2.6361,2.6361,2.6119,2.562,2.4784,2.4209,2.3364,2.2205,2.142,2.061,1.9777,1.9379,1.8907,1.8301,1.8247,1.8159,1.8008,1.8008,1.8008,1.8008,1.7725,1.751,1.7339,1.689,1.6175,1.5251,1.4796,1.4589,1.4553,1.415,1.3905,1.3768,1.3302,1.2973,1.2746,1.2526,1.2415,1.2305,0.0,0.0,0.0,0.0,0.0,0.0,0.0,0.0,0.0,0.0,0.0,1.2536,1.2757,0.0,0.0,0.0,1.2305,1.2305,1.2305,1.2305,1.2405,0.0,1.3395,1.4116,1.4813,1.6246,1.7312,1.7935,1.9126,1.9733,1.9932,2.0781,2.0996,2.0576,2.034,1.9758,1.8854,1.7241,1.5993,1.5052,1.4153,1.3543,1.3149,1.3198,1.3144,1.3117,1.3623,1.3825,1.3992,1.4865,1.5234,1.5454,1.6229,1.6567,0.0,0.0,0.0,1.9238,2.0935,2.1966,2.2978,2.4765,2.5577,2.6102,2.6624,2.6946,2.7043,2.6639,2.667,2.6856,2.7067,2.6776,2.6499,2.6499,2.6499,2.6499,2.6499,2.6499,2.6499,2.6499,2.6361,2.5928,2.5065,2.4529,2.3722,2.2506,2.1654,2.0751,1.9776,1.9287,1.8734,1.8086,1.8076,1.8042,1.8008,1.8008,1.8008,1.8008,1.7862,1.7784,1.7784,1.7476,1.695,1.6254,1.5762,1.5551,1.5515,1.5073,1.4796,1.4525,1.3956,1.3484,1.3156,1.2936,1.2716,1.2599,0.0,0.0,0.0,0.0,0.0,0.0,0.0,0.0,0.0,0.0,0.0,1.2764,1.2784,1.277,1.265,1.2325,1.2305,1.2305,1.2305,1.2305,0.0,0.0,1.3374,0.0,1.4154,1.6323,1.7493,1.7523,1.9095,1.9874,1.9932,2.0781,2.0996,2.0625,2.0797,2.0421,1.9562,1.8312,1.6961,1.5611,1.4794,1.4055,1.3442,1.3272,1.32,1.3226,1.3423,1.3528,1.3593,1.4098,1.4183,1.4193,1.4832,1.5032,1.5174,0.0,0.0,0.0,1.9013,2.0512,2.2035,2.2326,2.3496,2.4668,2.4865,2.5276,2.5701,2.6069,2.6185,2.6308,2.6502,2.6512,2.6499,2.6499,2.6499,2.6499,2.6499,2.6499,2.6499,2.6499,2.6499,2.597,2.4755,2.441,2.3652,2.2075,2.1426,2.0712,1.9846,1.9473,1.8965,1.8303,1.8269,1.8202,1.8008,1.8008,1.8008,1.8008,1.7974,1.7974,1.7974,1.7784,1.7638,1.7569,1.6846,1.6533,1.6499,1.5974,1.563,1.5355,1.4561,1.4165,1.3985,1.3601,1.3455,1.3419,0.0,0.0,0.0,0.0,0.0,0.0,0.0,0.0,0.0,0.0,0.0,0.0,0.0,1.3018,1.2737,1.2636,1.2412,1.2305,1.2305,1.2305,0.0,0.0,1.3189,1.3821,1.4093,1.5832,1.6848,1.711,1.8416,1.9238,1.9531,2.04,2.0869,2.0966,2.0942,2.049,1.9756,1.853,1.7497,1.6571,1.5782,1.5179,1.4726,1.4592,1.4341,1.4008,1.3926,1.3642,1.3331,1.3399,1.3408,1.3395,1.3726,1.4011,1.4402,1.5542,1.6527,1.7437,1.8379,1.9225,2.0155,2.1504,2.2227,2.285,2.3548,2.404,2.445,2.4915,2.5218,2.5606,2.6188,2.6396,2.6499,2.6499,2.6499,2.6499,2.6499,2.6499,2.6499,2.6499,2.6499,2.6163,2.5331,2.5079,2.4357,2.2834,2.2273,2.1512,2.0388,1.9868,1.9375,1.8841,1.8573,1.8279,1.8008,1.8008,1.8008,1.8008,1.8008,1.8008,1.8008,1.793,1.7896,1.7896,1.7623,1.7382,1.7141,1.6821,1.6508,1.6158,1.5586,1.5081,1.4589,1.4294,1.4049,1.3884,0.0,0.0,0.0,1.8029,0.0,1.6722,1.603,1.5521,1.5039,1.4555,0.0,0.0,0.0,0.0,1.3045,1.2951,1.2719,1.2559,1.2458,1.2489,0.0,0.0,1.3083,1.3674,1.4093,1.5534,1.649,1.6908,1.8043,1.8754,1.9082,1.9805,2.0303,2.0547,2.0411,2.0332,2.0161,1.9081,1.8205,1.7514,1.6836,1.6232,1.5775,1.5517,1.5121,1.4718,1.4326,1.385,1.3327,1.3231,1.306,1.2972,1.3073,1.3455,1.4013,1.5089,1.5833,1.6552,1.7528,1.8139,1.8822,2.0199,2.0744,2.1193,2.2161,2.2702,2.3229,2.3995,2.4504,2.5004,2.5758,2.6119,2.6349,2.6499,2.6499,2.6499,2.6499,2.6499,2.6499,2.6499,2.6499,2.6273,2.5649,2.5532,2.4884,2.3487,2.3051,2.2268,2.0999,2.0484,1.9901,1.9131,1.8674,1.8279,1.8008,1.8008,1.8008,1.8008,1.8008,1.8008,1.8008,1.8008,1.8008,1.8008,1.8008,1.7872,1.7632,1.7442,1.7201,1.6855,1.6473,1.5974,1.5436,1.5242,1.5037,1.4832,2.0675,2.0732,2.0526,1.9525,1.9035,1.8404,1.7398,1.6365,1.5521,1.5006,0.0,0.0,0.0,0.0,0.0,1.3233,1.3213,1.308,1.2817,1.279,1.2656,1.2345,1.3104,1.3725,1.4124,1.5551,1.6508,1.6927,1.8034,1.8588,1.8617,1.9072,1.9277,1.9287,1.9287,1.9867,2.0803,1.9935,1.9103,1.829,1.7821,1.7247,1.656,1.5906,1.5526,1.5261,1.4648,1.4103,1.3613,1.3606,1.3253,1.2842,1.2974,1.3354,1.3869,1.4418,1.5133,1.5868,0.0,0.0,0.0,1.8344,1.9001,1.9813,2.0642,2.1287,2.1979,2.3264,2.3963,2.4517,2.511,2.5569,2.599,2.6405,2.6487,2.6499,2.6499,2.6499,2.6499,2.6499,2.6499,2.6273,2.5674,2.5624,2.5106,2.3853,2.3608,2.2972,2.1706,2.1293,2.0484,1.9164,1.8607,1.8212,1.8008,1.8008,1.8008,1.8008,1.8008,1.8008,1.8008,1.8008,1.8008,1.8008,1.8008,1.8008,1.7974,1.7784,1.7613,1.747,1.7081,1.6795,1.6603,1.6411,1.6306,1.6271,2.1693,2.1526,2.1216,2.0942,2.0208,1.9416,1.8804,1.7951,1.7,0.0,0.0,0.0,1.4275,1.3843,1.3487,1.3233,1.3213,1.3173,1.3086,1.2911,1.2851,1.2953,1.3537,1.4163,1.4828,1.6038,1.6884,1.733,1.789,1.8305,1.8598,1.8724,1.8984,1.9287,1.9287,1.9446,1.9721,1.9335,1.9114,1.8971,1.8466,1.7962,1.7498,1.7016,1.6479,1.5884,1.5233,1.462,1.4123,1.3707,1.3493,1.3313,1.3065,1.3063,1.3258,1.3833,1.4453,1.5098,1.5939,0.0,0.0,0.0,0.0,0.0,1.9803,2.0183,2.0648,2.1621,2.2083,2.2635,2.3465,2.4242,2.4897,2.5398,2.6052,2.6499,2.6499,2.6499,2.6499,2.6499,2.6499,2.6436,2.6273,2.6248,2.5891,2.4979,2.4561,2.3833,2.2814,2.1597,2.0528,1.9616,1.8998,1.8506,1.8202,1.8076,1.8008,1.8008,1.8008,1.8008,1.8008,1.8008,1.8008,1.8008,1.8008,1.8008,1.8008,1.794,1.7794,1.7647,1.751,1.7304,1.7028,1.6985,1.6846,1.6716,2.2039,2.2102,2.2092,2.1931,2.1367,2.0699,2.0076,1.9295,1.8435,0.0,0.0,0.0,1.4901,1.4397,1.3971,1.3601,1.3574,1.3527,1.34,1.322,1.3179,1.3312,1.3874,1.456,1.5335,1.6475,1.7369,1.7861,1.8308,1.8574,1.8598,1.8598,1.8646,1.875,1.875,1.8848,1.9007,1.8992,1.9107,1.9266,1.9092,1.8787,1.8372,1.7853,1.7243,1.6502,1.5688,1.5014,1.4455,1.4082,1.3782,1.354,1.3049,1.2928,1.3024,1.3331,1.3833,1.4418,1.5196,1.5947,1.671,1.7439,0.0,0.0,1.9059,1.9372,1.9743,2.0567,2.0998,2.1514,2.2263,2.3097,2.3891,2.4653,2.5379,2.5996,2.6427,2.6499,2.6499,2.6499,2.6499,2.6499,2.6499,2.6499,2.6226,2.5549,2.519,2.4484,2.3259,2.187,2.0752,1.9933,1.9264,1.8707,1.8303,1.811,1.8008,1.8008,1.8008,1.8008,1.8008,1.8008,1.8008,1.8008,1.8008,1.8008,1.8008,1.8008,1.793,1.7828,1.7828,1.7725,1.752,1.752,1.7451,1.7358,0.0,2.2598,2.2974,2.2646,2.2378,2.1959,2.1156,2.0464,1.9699,0.0,1.7964,1.6993,1.5684,1.5252,1.4874,1.4331,1.4262,1.4092,1.3749,1.3702,1.3696,1.3691,1.4241,1.4985,1.5831,1.6999,1.7894,1.8471,1.9014,1.9092,1.8676,1.8676,1.8451,1.8076,1.8076,1.8227,1.8559,1.8827,1.9104,1.9336,1.9682,1.9598,1.9188,1.8528,1.7854,1.7169,1.6171,1.5401,1.4824,1.4566,1.4124,1.3547,1.3091,1.2973,1.3006,1.297,1.3338,1.3885,1.4436,1.5229,1.6009,1.6429,1.7088,0.0,1.8426,1.8724,1.9069,1.9829,2.0276,2.0709,2.1246,2.1968,2.281,2.3835,2.4448,2.5159,2.6321,2.6465,2.6465,2.6499,2.6499,2.6499,2.6499,2.6499,2.6285,2.5737,2.5636,2.4925,2.3335,2.2171,2.1149,2.0237,1.9551,1.8898,1.8371,1.8144,1.8008,1.8008,1.8008,1.8008,1.8008,1.7959,1.7939,1.7939,1.7891,1.79,1.7939,1.7939,1.7969,1.8008,1.8008,1.8008,1.8008,1.8008,1.8008,1.7974,2.2324,2.275,2.3071,2.2984,2.2701,2.232,2.1978,2.1367,2.0629,1.9742,1.8405,1.7347,1.6864,1.6462,1.5937,1.5369,1.5297,1.5078,1.4504,1.4426,1.454,1.4765,1.538,1.6031,1.6742,1.7657,1.8395,1.8891,1.9158,1.9248,1.916,1.916,1.8926,1.8481,1.8481,1.8344,1.812,1.8514,1.8906,1.9335,1.9724,1.9748,1.9479,1.903,1.8409,1.7735,1.6828,1.6203,1.5748,1.5166,1.4496,1.3892,1.381,1.3499,1.3185,1.3345,1.3498,1.379,1.4342,1.4912,1.548,1.5974,1.6577,0.0,1.7634,1.785,1.81,1.8566,1.8835,1.9097,1.9649,2.0451,2.1262,2.208,2.3222,2.4538,2.6045,2.627,2.6339,2.6499,2.6499,2.6499,2.6499,2.6499,2.6449,2.6336,2.585,2.5023,2.3652,2.3038,2.2126,2.0944,2.0096,1.9353,1.8707,1.8414,1.8168,1.8008,1.8008,1.8008,1.7998,1.7656,1.75,1.749,1.7139,1.7187,1.75,1.75,1.7705,1.8008,1.8008,1.8008,1.8008,1.8008,1.8008,1.7974,2.2432,2.2808,2.3091,2.3091,2.2916,2.2736,2.2529,2.2208,2.1773,2.1083,1.9877,1.875,1.8013,1.7635,1.7142,1.646,1.6386,1.6159,1.5657,1.5614,1.5692,1.5899,1.6263,1.6903,1.7844,1.847,1.9086,1.9668,1.984,1.9814,1.96,1.96,1.9375,1.8965,1.8965,1.8721,1.8325,1.8968,1.9277,1.9346,1.9753,1.9907,1.9912,1.9597,1.9063,1.8416,1.774,1.6968,1.6154,1.5492,1.4744,1.4157,1.4157,1.3788,1.3391,1.3627,1.3684,1.3741,1.4156,1.4574,1.5026,1.548,1.6184,0.0,0.0,1.7545,1.7784,1.81,1.8269,1.8506,1.8831,1.9408,2.0143,2.1019,2.1913,2.3005,2.439,2.5428,2.6131,2.6339,2.643,2.6499,2.6499,2.6499,2.6499,2.6499,2.5925,2.5181,2.4188,2.3484,2.2532,2.1273,2.0387,1.9616,1.8975,1.8506,1.8212,1.8008,1.8008,1.79,1.7686,1.748,1.7266,1.7051,1.6794,1.6824,1.7061,1.7061,1.7314,1.7715,1.793,1.8008,1.8008,1.8008,1.8008,1.8008,2.2539,2.2867,2.3091,2.3091,2.3091,2.3057,2.2882,2.2838,2.2715,2.223,2.1365,2.0425,1.9321,1.9011,1.8588,1.7751,1.7719,1.749,1.7017,1.7087,1.7091,1.7064,1.7343,1.7921,1.8785,1.9222,1.9706,2.0303,2.0489,2.0429,2.0039,2.0039,1.9814,1.9404,1.9404,1.917,1.8773,1.9502,1.9648,1.9434,1.9775,2.0061,2.0342,2.0059,1.9627,1.9112,1.8625,1.7649,1.6497,1.5916,1.5168,1.4477,1.4436,1.4099,1.3738,1.3942,1.3916,1.3823,1.405,1.4324,1.4713,1.5133,1.5877,1.6638,0.0,0.0,0.0,1.794,1.8144,1.8303,1.8438,1.8741,1.9212,2.0117,2.0683,2.1352,2.2432,2.4159,2.5455,2.5911,2.6264,2.6465,2.6499,2.6499,2.6499,2.6499,2.6059,2.5502,2.4813,2.3964,2.2923,2.1741,2.083,1.9998,1.9297,1.8764,1.8371,1.8144,1.7988,1.7738,1.7439,1.7239,1.6934,1.657,1.6482,1.6492,1.657,1.657,1.6865,1.7305,1.7725,1.7939,1.8008,1.8008,1.8008,1.8008,2.2867,2.3062,2.3091,2.3091,2.3091,2.3101,2.3057,2.3057,2.2882,2.2441,2.1882,2.1463,2.1114,2.0881,2.0365,1.9552,1.9518,1.9181,1.8415,1.8742,1.8829,1.8412,1.8974,1.9264,1.9231,1.9627,1.999,2.0303,2.0489,2.0576,2.0537,2.0537,2.0254,1.9844,1.9844,1.9609,1.9219,1.9316,1.9541,1.9844,1.9893,2.0176,2.0527,2.0342,2.0059,1.9706,1.9112,1.8206,1.7234,1.699,1.6133,1.5164,1.4962,1.4628,1.4294,1.4333,1.4269,1.4201,1.4373,1.4529,1.4748,1.5319,1.5815,1.6342,1.7028,0.0,1.7598,1.794,0.0,1.8076,1.8303,0.0,0.0,1.8946,1.9693,2.0454,2.1062,2.2241,2.3588,2.5053,2.5809,2.6305,2.6499,2.6499,2.6499,2.6499,2.6436,2.6147,2.5515,2.4825,2.3956,2.2859,2.1811,2.0837,1.9998,1.9441,1.9021,1.8707,1.8005,1.7622,1.7553,1.6656,1.6222,1.6144,1.5732,1.5781,1.6173,1.6173,1.6406,1.6824,1.7285,1.7686,1.8008,1.8008,1.8008,1.8008,2.2974,2.3091,2.3091,2.3091,2.3091,2.3091,2.3091,2.3091,2.3013,2.2662,2.2476,2.2211,2.1865,2.1731,2.1436,2.0962,2.09,2.0686,2.0147,2.0302,2.026,1.994,1.9962,2.0086,2.0221,2.0183,2.0225,2.045,2.0566,2.0605,2.0605,2.0605,2.0507,2.0293,2.0293,2.0049,1.9668,1.9959,1.998,1.9932,2.0195,2.0439,2.0605,2.0489,2.0342,2.0031,1.9279,1.8572,1.7881,1.7299,1.6337,1.5411,1.5618,1.531,1.4873,1.5311,1.5284,1.5083,1.5157,1.5259,1.5382,1.57,1.6167,1.6691,1.7254,1.7486,1.7691,1.794,0.0,0.0,0.0,0.0,0.0,0.0,1.887,1.9354,1.9904,2.094,2.2388,2.4388,2.5169,2.5828,2.6427,2.6499,2.6499,2.6499,2.6499,2.6248,2.5624,2.4945,2.4151,2.3159,2.2068,2.1155,2.0399,1.9868,1.9282,1.8682,1.8151,1.7668,1.7225,1.6597,1.6258,1.6087,1.5742,1.5684,1.5851,1.5753,1.5947,1.6357,1.6574,1.7073,1.7676,1.792,1.8008,1.8008,2.3013,2.3091,2.3091,2.3091,2.3091,2.3091,2.3091,2.3091,2.3047,2.2882,2.2882,2.275,2.2397,2.2362,2.2264,2.1998,2.2008,2.1878,2.1537,2.1596,2.1506,2.1264,2.1046,2.0935,2.098,2.072,2.0576,2.0605,2.0605,2.0605,2.0605,2.0605,2.0605,2.0605,2.0605,2.0429,2.0117,2.0468,2.0381,2.0117,2.0478,2.0605,2.0605,2.0605,2.0411,2.012,1.9459,1.8891,1.8283,1.761,1.6666,1.5853,1.6203,1.5909,1.5516,1.6055,1.6057,1.5883,1.592,1.5977,1.6079,1.6289,1.6647,1.7072,1.7461,1.7613,1.775,1.7974,1.8008,0.0,0.0,0.0,1.8042,1.8202,0.0,1.8607,1.9021,1.986,2.1263,2.3416,2.4507,2.5453,2.6346,2.6465,2.6499,2.6499,2.6499,2.6311,2.585,2.5098,2.4322,2.3614,2.2498,2.1608,2.1051,2.0362,1.9693,1.9008,1.8344,1.7749,1.7174,1.6724,1.6401,1.6142,1.5865,1.573,1.5672,1.5478,1.5596,1.5928,1.6046,1.6564,1.7256,1.7686,1.791,1.8008,2.3013,2.3091,2.3091,2.3091,2.3091,2.3091,2.3091,2.3091,2.3091,2.3101,2.3101,2.3091,2.3057,2.3057,2.3013,2.2803,2.2759,2.2662,2.2378,2.2599,2.2548,2.2178,2.231,2.2038,2.121,2.1181,2.0996,2.0605,2.0605,2.0605,2.0605,2.0605,2.0605,2.0605,2.0605,2.0595,2.0586,2.0595,2.0595,2.0586,2.0595,2.0605,2.0605,2.0605,2.0303,1.9894,1.9884,1.9248,1.8356,1.814,1.7539,0.0,1.6639,1.6447,1.6254,1.6307,1.6298,1.6324,1.6517,1.6577,1.6673,1.7063,1.7166,1.727,1.7604,1.7706,1.775,1.7974,1.8008,1.8008,1.8008,1.8008,1.8008,1.8008,1.8178,0.0,0.0,1.8998,2.0029,2.186,2.3848,2.5385,2.6151,2.6396,2.6499,2.6499,2.6499,2.6487,2.6461,2.541,2.4723,2.4549,2.3337,2.2494,2.2154,2.1096,2.0389,2.0036,1.8592,1.7832,1.7653,1.6916,1.6477,1.6296,1.6028,1.5826,1.5672,1.5478,1.542,1.5478,1.5928,1.6348,1.6775,1.7246,1.7666,1.8008,2.3062,2.3091,2.3091,2.3091,2.3091,2.3091,2.3091,2.3091,2.3091,2.3091,2.3091,2.3091,2.3091,2.3091,2.3057,2.3013,2.3013,2.2969,2.2872,2.2969,2.2955,2.2809,2.2623,2.2373,2.209,2.1483,2.1122,2.1006,2.0752,2.0605,2.0605,2.0605,2.0605,2.0605,2.0605,2.0654,2.0819,2.0819,2.0896,2.1012,2.0858,2.0819,2.078,2.0644,2.0293,1.9883,1.96,1.9032,0.0,1.7963,1.753,1.7107,1.7176,1.7063,1.6915,1.7063,1.7107,1.7107,0.0,0.0,1.7364,1.7501,1.7613,1.7759,1.7862,1.7896,1.794,1.7974,1.8008,1.8008,1.8008,1.8008,1.8008,1.8008,1.8076,1.8168,0.0,1.8921,1.9776,2.1097,2.3231,2.4953,2.5896,2.6201,2.6374,2.6499,2.6499,2.6499,2.6499,2.5749,2.5119,2.4631,2.3777,2.3034,2.234,2.1408,2.0657,2.008,1.8935,1.8266,1.8091,1.7551,1.7346,1.7318,1.674,1.641,1.6267,1.5778,1.5604,1.5595,1.5645,1.6084,1.6755,1.7227,1.7646,1.8008,2.345,2.3363,2.3232,2.3135,2.3091,2.3091,2.3091,2.3091,2.3091,2.3091,2.3091,2.3091,2.3091,2.3091,2.3091,2.3091,2.3091,2.3091,2.3091,2.3091,2.3091,2.3091,2.2838,2.2666,2.2519,2.1931,2.1502,2.119,2.0947,2.0762,2.0693,2.0693,2.077,2.0915,2.0915,2.1041,2.1205,2.1282,2.1359,2.1397,2.1138,2.1022,2.0984,2.077,2.0281,1.9658,1.9385,1.8844,1.8215,1.7924,1.7647,1.752,1.7632,1.7598,1.752,1.7632,1.7676,1.7676,1.7676,1.7725,0.0,1.7818,1.7896,1.8008,1.8008,1.8008,1.8008,1.8008,1.8008,1.8008,1.8008,1.8008,1.8008,1.8008,1.8008,1.8076,0.0,1.8697,1.9454,2.0605,2.2399,2.405,2.5322,2.5719,2.608,2.6487,2.6499,2.6499,2.6499,2.5946,2.5327,2.4683,2.4122,2.3437,2.2665,2.1679,2.0928,2.0447,1.9326,1.8713,1.8548,1.817,1.8034,1.8007,1.7329,1.6948,1.6712,1.6153,1.5904,1.5807,1.5594,1.5949,1.6615,1.6992,1.7519,1.8008,2.4206,2.3851,2.346,2.3188,2.3135,2.3091,2.3091,2.311,2.312,2.3091,2.311,2.312,2.3091,2.3091,2.3091,2.3091,2.3091,2.3091,2.3091,2.3091,2.3091,2.3091,2.3091,2.2906,2.2549,2.2519,2.2109,2.1299,2.126,2.1144,2.0975,2.0955,2.1167,2.154,2.154,2.1655,2.1883,2.2063,2.2025,2.1845,2.1436,2.1282,2.1244,2.1022,2.0276,1.936,1.9323,1.8776,1.8008,1.8008,1.8008,1.8008,1.8008,1.8008,1.8008,1.8008,1.7998,1.7978,1.7978,1.7959,1.7949,1.7949,1.7949,0.0,1.7949,1.7959,1.7978,1.7978,1.7998,1.8008,1.8008,1.8008,1.8008,1.8008,1.8008,1.8076,1.8269,1.8414,1.8971,2.0177,2.1385,2.2747,2.4408,2.505,2.5669,2.6411,2.6474,2.6499,2.6499,2.5971,2.5385,2.4813,2.4318,2.3753,2.3108,2.1902,2.1241,2.1091,1.9805,1.9133,1.9013,1.8747,1.8533,1.8333,1.7799,1.7374,1.7039,1.6542,1.6257,1.6114,1.5846,1.5979,1.6365,1.6633,1.7262,1.8008,2.4743,2.4466,2.4166,2.398,2.345,2.3091,2.3091,2.3418,2.3506,2.314,2.3418,2.3496,2.313,2.3091,2.3091,2.3091,2.3091,2.3091,2.3091,2.3091,2.3091,2.3091,2.3091,2.3042,2.2935,2.2676,2.2497,2.2448,2.1746,2.1571,2.1855,2.1665,2.1693,2.1959,2.2101,2.2365,2.2703,2.274,2.2815,2.2889,2.2478,2.2225,2.2063,2.1693,2.0978,2.0073,1.9841,1.9128,1.8381,1.8381,1.8313,1.8202,1.8202,1.811,1.8008,1.8008,1.7793,1.7539,1.7539,1.7305,1.7028,1.7028,1.7028,1.7028,0.0,0.0,0.0,1.7539,1.7793,1.8008,1.8008,1.8008,1.8008,1.8008,1.8008,1.8008,1.8076,1.8313,1.8724,1.9364,2.0358,2.1732,2.3611,2.4529,2.525,2.5778,2.6248,2.6499,2.6499,2.6348,2.5799,2.4813,2.4682,2.4098,2.3108,2.1902,2.1281,2.1228,1.9963,1.9382,1.9434,1.9277,1.9172,1.9093,1.856,1.817,1.7913,1.7234,1.6899,1.6729,1.6324,1.6426,1.6852,1.7115,1.7549,1.8008,2.6209,2.5818,2.5305,2.4895,2.4374,2.3893,2.3595,2.3767,2.3781,2.3457,2.3633,2.3623,2.314,2.3091,2.3091,2.3091,2.3091,2.3091,2.3091,2.3091,2.3091,2.3091,2.3091,2.3091,2.3091,2.2867,2.2834,2.2911,2.2247,2.217,2.2608,2.2331,2.2478,2.3016,2.3128,2.3386,2.3754,2.368,2.368,2.3717,2.3176,2.2964,0.0,2.2478,2.1817,2.1129,2.0928,1.9955,1.8741,1.8741,1.8707,1.864,1.864,1.8573,1.8442,1.8251,1.7998,1.7758,1.7494,1.7223,1.7002,1.6918,1.6918,1.6918,1.6918,1.7115,1.7325,0.0,1.7662,1.7935,0.0,1.8049,1.8245,1.8347,1.8347,1.8371,1.8472,1.864,1.8942,1.9407,2.0085,2.1107,2.2657,2.3708,2.4649,2.5528,2.59,2.6223,2.6474,2.6499,2.5996,2.4825,2.4788,2.4249,2.3108,2.1959,2.1381,2.1369,2.0151,1.9617,1.9682,1.9539,1.9486,1.946,1.9028,1.8762,1.856,1.7925,1.7567,1.7346,1.6684,1.6734,1.7189,1.729,1.7612,1.8008,2.808,2.7547,2.6767,2.6119,2.5791,2.5384,2.47,2.4396,2.4187,2.3854,2.3838,2.3682,2.3149,2.3091,2.3091,2.3091,2.3091,2.3091,2.3091,2.3091,2.3091,2.3091,2.3091,2.3135,2.3135,2.3135,2.3175,2.316,2.2816,2.2926,2.3384,2.3064,2.3423,2.4299,2.4324,2.4504,2.4826,2.4731,2.4612,2.4492,2.3827,2.3655,2.374,2.3361,2.2833,2.2252,2.2252,2.0971,1.9297,1.9297,1.9264,1.9231,1.9231,1.9198,1.9081,1.8579,1.8403,1.8226,1.7585,1.7349,1.7277,1.7143,1.7092,1.7092,1.7123,1.7163,1.7203,1.7234,1.7598,1.7837,1.7656,1.8124,1.858,1.8831,1.8875,1.8975,1.9142,1.9198,1.9396,1.99,2.0302,0.0,2.1858,2.2863,2.4023,2.5377,2.5561,2.585,2.6461,2.6499,2.5996,2.4825,2.4788,2.4211,2.3007,2.2008,2.1455,2.1395,2.0313,1.9798,1.9798,1.9682,1.963,1.9604,1.937,1.9198,1.904,1.8602,1.8224,1.787,1.705,1.7068,1.7533,1.7378,1.7688,1.8212,2.9486,2.9244,2.8839,2.8325,2.8034,2.7656,2.7134,2.6054,2.4924,2.3932,2.4092,2.4004,2.3179,2.3091,2.3091,2.3091,2.3091,2.3091,2.3091,2.3091,2.3091,2.3091,2.3091,2.3188,2.3416,2.3416,2.38,2.4533,2.3854,2.3982,2.4903,2.4346,2.4384,2.4862,2.5016,2.5241,2.5453,2.5571,2.5535,2.5347,2.5064,2.4874,2.4731,2.4504,2.3804,2.3001,2.3001,2.1875,2.0345,2.0345,2.0139,1.9901,1.9901,1.9758,1.9411,1.8892,1.849,1.8119,1.7564,1.7076,1.6725,1.6707,1.6591,1.6504,1.6678,1.6959,1.7219,1.7348,1.7665,1.7885,1.7854,0.0,1.8727,1.9147,1.9363,1.9473,1.9506,1.9758,2.0009,2.0269,2.0965,2.1596,2.208,2.2812,2.3703,2.4843,2.536,2.585,2.6461,0.0,2.5996,0.0,2.4788,0.0,0.0,0.0,2.1282,2.083,2.0125,1.9798,1.9798,1.9773,1.9759,1.9759,1.9604,1.9512,1.946,1.916,1.8724,1.817,1.7567,1.7767,1.8351,1.8129,1.8575,1.9274,3.0598,3.0482,3.0214,2.9644,2.9309,2.8908,2.8173,2.7544,2.6662,2.5213,2.5011,2.4625,2.3777,2.3457,2.3232,2.3091,2.3091,2.3091,2.3091,2.3091,2.3091,2.3091,2.3232,2.3406,2.3667,2.3874,2.4423,2.52,2.4816,2.5008,2.5762,2.5335,2.5302,2.5641,2.5816,2.599,2.6072,2.605,2.598,2.5875,2.5571,2.5453,2.5453,2.5229,2.4582,2.3782,2.3782,2.287,2.162,2.1262,2.1028,2.089,2.089,2.0773,2.0544,2.005,1.9568,1.9044,1.8356,1.7783,1.7335,1.7207,1.7095,1.7056,1.7151,1.7325,1.7488,1.7545,1.7868,1.8221,1.843,1.876,0.0,1.9713,2.0125,2.0431,2.0613,2.0773,2.0953,2.1155,2.1608,2.2068,2.2402,2.2806,2.3529,2.4725,2.5059,2.5561,2.6449,0.0,2.5996,0.0,0.0,0.0,2.2334,0.0,2.1232,2.0679,2.0075,1.9798,1.9798,1.9798,1.9798,1.9798,1.9734,1.9708,1.9682,1.9396,1.9054,1.8614,1.8116,1.8425,1.9086,1.8827,1.9412,2.0269,3.1669,3.1639,3.1479,3.085,3.0501,3.0062,2.9206,2.9171,2.8552,2.6557,2.5955,2.5343,2.4468,2.3964,2.3614,2.344,2.3396,2.3396,2.3396,2.3396,2.3396,2.3396,2.3624,2.3841,2.409,2.4509,2.5094,2.5863,2.581,2.6119,2.6652,2.6234,2.6152,2.627,2.643,2.6499,2.6499,0.0,2.627,2.6236,2.5933,2.5898,2.6015,2.5863,2.5222,2.4398,2.4398,2.3726,2.2696,2.2094,2.1846,2.1784,2.1784,2.1753,2.1627,2.115,2.063,2.0052,1.9284,1.8677,1.8213,1.7995,1.7913,1.7886,1.7941,1.7941,1.7941,1.7968,1.8259,1.8606,1.9005,1.9253,0.0,2.0354,2.0834,2.1292,2.1678,2.1753,2.1815,2.1982,2.2204,2.2463,2.2708,2.299,2.3586,2.4713,2.4788,2.531,2.6436,2.6499,2.5996,0.0,0.0,2.3923,2.2159,0.0,2.1182,2.0503,2.0024,1.9798,1.9798,1.9798,1.9798,1.9798,1.9798,1.9798,1.9773,1.9539,1.9303,1.9105,1.8774,1.9165,1.9837,1.9698,2.0377,2.123,3.2907,3.2907,3.2821,3.2506,3.2302,3.194,3.1376,3.1169,2.9983,2.6977,2.6357,2.5876,2.4943,2.4572,2.4413,2.437,2.437,2.437,2.437,2.437,2.437,2.437,2.4413,2.4594,2.5073,2.5274,2.5946,2.7062,2.6936,2.7296,2.8107,2.7286,2.6756,2.6465,2.6499,2.6499,0.0,2.6499,2.6465,2.6465,2.643,2.643,2.643,2.6418,2.5707,2.4755,2.4755,2.4029,2.3047,2.2975,2.2684,2.2328,2.2328,2.2235,2.2046,2.1524,2.0983,2.0425,1.9857,1.9245,1.8744,1.8706,1.8625,1.856,1.8679,1.8691,1.8732,1.8854,1.8822,1.8861,1.92,1.9385,1.9839,0.0,2.1176,2.1487,2.2051,2.2235,2.2316,2.2359,2.2635,2.2848,2.2878,2.3492,2.4136,2.475,2.4788,2.531,2.6436,2.6499,2.5996,2.4825,2.4788,2.3766,2.1594,2.1546,2.0953,1.9874,1.9823,1.9798,1.9798,1.9798,1.9798,1.9798,1.9798,1.9798,1.9798,1.963,1.9565,1.955,1.9775,2.0197,2.0733,2.1086,2.1577,2.2092,3.3124,3.3124,3.3025,3.2754,3.2636,3.2407,3.1901,3.1769,3.1109,2.9392,2.835,2.726,2.6012,2.5551,2.5221,2.4935,2.4935,2.4935,2.4935,2.4935,2.4935,2.4935,2.5179,2.5474,2.5768,2.6393,2.7062,2.7805,2.7981,2.8227,2.8447,2.8127,2.7777,2.7431,2.714,2.6989,2.6964,2.6637,2.6499,2.6499,2.6499,2.6499,2.6499,2.6499,2.5996,2.5247,2.4933,2.4286,2.3572,2.3221,2.2987,2.2805,2.2805,2.2775,2.2707,2.2473,2.2029,2.1486,2.0858,2.0275,1.9704,1.9269,1.9131,1.9093,1.9158,1.9158,1.9184,1.9237,1.9119,1.9112,1.9329,1.9603,2.0117,2.108,2.1528,2.2009,2.2652,2.2775,2.2805,2.2805,2.2927,2.3017,2.3017,2.3603,2.423,2.475,2.5109,2.5636,2.6449,2.6172,2.5598,2.4813,0.0,2.3414,2.1506,2.1493,2.0928,1.9798,1.9798,1.9798,1.9798,1.9798,1.9798,1.9798,1.9798,1.9798,1.9798,1.9734,1.9734,1.9758,2.0145,2.0619,2.1145,2.1541,2.2078,2.2616,3.3124,3.3124,3.3025,3.2853,3.281,3.2711,3.2351,3.2295,3.2024,3.1284,3.0143,2.8835,2.7375,2.6755,2.634,2.5966,2.5966,2.5966,2.5966,2.5966,2.5966,2.5966,2.6299,2.6558,2.6764,2.7429,2.8007,2.8447,2.8803,2.8961,2.8936,2.8761,2.8475,2.8084,2.7695,2.7519,2.7494,2.6964,2.6738,2.6725,2.6562,2.6499,2.6499,2.6499,2.6135,2.5548,2.5184,2.4594,2.3941,2.3496,2.3246,2.3108,2.3108,2.3108,2.3108,2.3108,2.2719,2.2205,2.1731,2.1079,2.0416,1.9911,1.9636,1.9512,1.9512,1.9512,1.9512,1.9512,1.9448,1.9422,1.9512,1.9754,2.0247,2.1213,0.0,2.2218,2.2977,2.3108,2.3108,2.3108,2.3108,2.3108,2.3108,2.3803,2.4406,2.4763,2.531,2.5774,2.6223,2.5824,0.0,0.0,0.0,0.0,2.1744,2.1568,2.1004,2.0049,1.9874,1.9798,1.9798,1.9798,1.9798,1.9798,1.9798,1.9798,1.9798,1.9798,1.9798,1.9874,2.0519,2.1016,2.1425,2.2018,2.2556,2.2969,3.3124,3.3124,3.3124,3.3124,3.3124,3.3081,3.3081,3.3081,3.2794,3.1978,3.1419,3.0544,2.9135,2.8262,2.7758,2.7758,2.7758,2.7758,2.7758,2.7758,2.7758,2.7758,2.7758,2.7891,2.8179,2.8379,2.8709,2.9091,2.9275,2.9509,2.9767,2.9202,2.8599,2.8109,2.8097,2.8097,2.8059,2.7507,2.7268,2.7218,2.6713,2.6499,2.6499,2.6499,2.6135,2.5598,2.5586,2.4908,2.4004,2.3991,2.3572,2.3108,2.3108,2.3108,2.3108,2.3108,2.2719,2.2309,2.2297,2.1506,2.0691,2.0679,2.0251,1.9798,1.9798,1.9798,1.9798,1.9798,1.9798,1.9798,1.9798,1.9811,2.0175,2.1305,0.0,2.1882,2.2945,2.3108,2.3108,2.3108,2.3108,2.3108,2.3108,2.4123,2.4775,2.4788,2.531,2.5598,2.5598,0.0,0.0,2.4042,2.4004,0.0,2.2309,2.1757,2.1232,2.0679,2.0075,1.9798,1.9798,1.9798,1.9798,1.9798,1.9798,1.9798,1.9798,1.9798,1.9798,1.9911,2.1041,2.1481,2.1619,2.2694,2.3095,2.3108,3.3124,3.3124,3.3124,3.3124,3.3124,3.3124,3.3124,3.3124,3.2867,3.2206,3.1655,3.0982,3.0177,2.912,2.8435,2.8287,2.8287,2.8287,2.8287,2.8287,2.8287,2.8287,2.8395,2.8514,2.8605,2.8961,2.9197,2.9314,0.0,0.0,0.0,2.9603,2.9428,2.9239,2.885,2.8662,2.8574,2.767,2.7281,2.7231,2.6713,2.6499,2.6499,2.6499,2.6386,2.6172,2.5737,2.5372,2.4971,2.4243,2.3879,2.3653,2.3233,2.3108,2.3108,2.3108,2.2982,2.2757,2.241,2.1782,2.1169,2.0779,2.0264,1.9798,1.9798,1.9798,1.9798,1.9798,1.9798,1.9798,1.9798,1.9798,2.0175,2.1305,2.1493,0.0,2.2945,2.3108,2.3108,2.3108,2.3108,2.3108,2.3108,2.3785,2.4255,2.4255,2.4757,2.5222,0.0,0.0,0.0,0.0,2.3584,0.0,2.2322,2.1769,2.1232,2.0679,2.0075,1.9798,1.9798,1.9798,1.9798,1.9798,1.9798,1.9798,1.9798,1.9798,2.0037,2.049,2.1232,2.1719,2.2133,2.2832,2.3108,2.3108,3.3124,3.3124,3.3124,3.3124,3.3124,3.3124,3.3124,3.3124,3.2867,3.229,3.1738,3.1198,3.067,2.9739,0.0,2.8986,2.8986,2.8986,2.8986,2.8986,2.8986,2.8986,2.9091,2.917,2.917,2.9404,0.0,2.956,2.9702,2.9792,2.9792,2.9792,2.9792,2.9779,2.9415,2.9252,2.9189,2.8285,2.7896,2.7833,2.7115,2.6801,2.6788,2.6575,2.6499,2.6449,2.6084,2.5774,2.5498,2.482,2.4469,2.4205,2.3609,2.3434,2.3384,2.317,2.3108,2.3032,2.2681,2.2221,2.1656,2.1131,2.0578,2.0075,1.9849,1.9798,1.9798,1.9798,1.9798,1.9798,1.9798,1.9987,2.0453,2.1343,2.1656,2.2108,2.2982,2.3108,2.3108,2.3108,2.3108,2.3108,2.3108,2.3665,2.4004,2.4004,2.4318,2.4657,0.0,0.0,0.0,2.3678,2.3296,0.0,2.2594,2.2071,2.1518,2.0993,2.0175,1.9798,1.9798,1.9798,1.9798,1.9798,1.9798,1.9924,2.0125,2.0125,2.049,2.1056,2.1581,2.2008,2.2343,2.2895,2.3108,2.3108,3.3111,3.3124,3.3124,3.3124,3.3124,3.3124,3.3124,3.3124,3.2855,3.224,3.1712,3.1173,3.062,3.0093,2.9792,2.9792,0.0,0.0,2.9792,2.9792,2.9792,2.9792,2.9792,2.9792,2.9792,2.9792,2.9792,2.9792,2.9792,2.9792,2.9792,2.9792,2.9792,2.9792,2.9792,2.9792,2.9754,2.9176,2.8888,2.88,2.777,2.7318,2.7266,2.6751,2.6524,2.6499,2.6499,2.6147,2.5649,2.5611,2.5272,2.475,2.423,2.4054,2.3941,2.3283,2.3108,2.3108,2.3108,2.2706,2.2184,2.1681,2.1131,2.0541,1.9936,1.9798,1.9798,1.9798,1.9798,1.9811,1.9849,2.0327,2.088,2.1443,2.197,2.2498,2.3032,2.3108,2.3108,2.3108,0.0,0.0,2.3108,2.3615,2.3941,0.0,2.3941,0.0,0.0,0.0,2.369,2.312,2.3108,2.3108,2.3108,2.2556,2.2033,2.1509,2.0426,1.9924,1.9924,1.9924,1.9924,1.9924,1.9924,2.0251,2.0754,2.0754,2.1069,2.1594,2.2121,2.2305,2.2406,2.292,2.3108,2.3108,0.0,0.0,3.3283,3.3111,3.3124,3.3124,3.3124,3.3124,3.2717,3.1712,3.1474,3.1035,3.0093,2.988,2.9792,2.9792,2.9792,2.9792,2.9792,2.9792,2.9792,2.9792,2.9792,2.9792,2.9792,2.9792,2.9792,2.9792,2.9792,2.9792,2.9792,2.9792,2.9792,2.9792,2.9792,2.9792,2.9754,2.9176,2.8888,2.8838,2.8185,2.7657,2.7304,2.7165,2.6864,2.6499,2.6499,2.6411,2.6223,2.5749,2.5523,2.5322,2.4795,2.4619,2.4399,2.3396,2.3108,2.3108,2.3108,2.2706,2.2284,2.2146,2.1408,2.0541,1.9936,1.9798,1.9798,1.9798,1.9798,1.9936,2.0402,2.0591,2.1018,2.1958,2.2234,2.2498,2.3032,2.3108,2.3108,0.0,2.3108,2.3108,2.3108,2.3233,2.3308,0.0,0.0,2.3308,2.3308,2.3308,2.3246,2.3108,2.3108,2.3108,2.3108,2.2556,2.2033,2.1493,2.1217,2.1091,2.1091,2.1091,2.1091,2.1091,2.1091,2.1167,2.132,2.132,2.1619,2.2133,2.2259,2.2543,2.2932,2.3058,2.3108,2.3108,3.3937,3.3683,3.3471,3.3283,3.3154,3.3124,3.3124,3.3124,3.2667,3.1537,3.1386,3.0984,2.9917,2.9792,2.9792,2.9792,2.9792,2.9792,2.9792,2.9792,2.9792,2.9792,2.9792,2.9792,2.9792,2.9792,2.9792,2.9792,2.9792,2.9792,2.9792,2.9792,2.9792,2.9792,2.9792,2.9792,2.9779,2.9453,2.9327,2.9277,2.8675,2.8298,2.7984,2.7469,2.7128,2.6839,2.6587,2.6499,2.6449,2.6135,2.6021,2.59,2.5347,2.5172,2.5008,2.4123,2.3697,2.3446,2.317,2.2882,2.2594,2.2343,2.1669,2.0981,2.0639,2.0577,2.0577,2.0577,2.0577,2.0677,2.1018,2.1282,2.1606,2.2221,2.2493,2.2757,2.3058,2.3108,2.3108,2.3108,2.3108,2.3108,2.3108,2.3108,2.3108,2.3108,2.3108,0.0,2.3108,2.3198,2.3198,2.3108,2.3108,2.3108,2.3108,2.2556,2.2159,2.1857,2.1606,2.1493,2.1493,2.1493,2.1493,2.1493,2.1493,2.1631,2.187,2.187,2.2184,2.2656,2.2656,2.2844,2.3108,2.3108,2.3108,2.3108,3.4605,3.423,3.3852,3.3556,3.3356,3.324,3.3167,3.3154,3.2734,3.165,3.1436,3.1009,3.003,2.9842,2.9792,2.9792,2.9792,2.9792,2.9792,2.9792,2.9792,2.9792,2.9792,2.9792,2.9792,2.9792,2.9792,2.9792,2.9792,2.9792,2.9792,2.9792,2.9792,2.9792,2.9792,2.9792,2.9792,2.9792,2.9792,2.9754,2.9252,2.8963,2.8787,2.7896,2.7482,2.7331,2.6813,2.6612,2.6612,2.6524,2.6499,2.6411,2.5921,2.5724,2.5624,2.5096,2.4607,2.4123,2.3439,2.317,2.297,2.2418,2.1958,2.1594,2.1506,2.1493,2.1493,2.1493,2.1493,2.1534,2.1662,2.2036,2.2401,2.2623,2.2976,2.3253,2.3371,0.0,2.3245,2.3245,2.3245,2.3245,2.3245,2.3245,2.3245,2.3245,2.3245,2.3245,2.3245,2.342,2.342,2.3258,2.3198,2.3168,2.3138,2.2673,2.2406,2.2435,2.1958,2.1732,2.1732,2.1732,2.1732,2.1732,2.1732,2.1995,2.2406,2.2406,2.2681,2.3108,2.3108,2.3108,2.3108,2.3108,2.3108,2.3108,3.5386,3.5031,3.4701,3.4118,3.3949,3.3823,3.3398,3.3356,3.3043,3.2206,3.1675,3.116,3.0557,3.0068,2.9792,2.9792,2.9792,2.9792,2.9792,2.9792,2.9792,2.9792,2.9792,2.9792,2.9792,2.9792,2.9792,2.9792,2.9792,2.9792,2.9792,2.9792,2.9792,2.9792,2.9792,2.9792,2.9792,2.9792,2.9792,2.9779,2.9691,2.9365,2.8875,2.87,2.8386,2.7908,2.7356,2.719,2.7115,2.665,2.6499,2.6474,2.6386,2.6361,2.6248,2.5636,2.5522,2.5342,2.4174,2.3471,2.297,2.2418,2.2246,2.2071,2.1594,2.1493,2.1493,2.1493,2.1493,2.1687,2.2309,2.2502,2.2958,2.4116,2.4004,2.3986,2.4615,0.0,2.3943,2.3943,2.3943,2.3943,2.3943,2.3943,2.3943,2.3943,2.3943,2.3943,2.3943,2.3985,2.3985,2.3956,2.3675,2.348,2.336,2.308,2.2982,2.297,2.2895,2.2844,2.2844,2.2844,2.2844,2.2844,2.2844,2.2895,2.2982,2.2982,2.3032,2.3108,2.3108,2.3108,2.3108,2.3108,2.3108,2.3108,3.6508,3.5977,3.544,3.5032,3.4675,3.4314,3.3979,3.3725,3.3267,3.2499,3.2072,3.1524,3.0708,3.0382,3.0118,2.9817,2.9792,2.9792,2.9792,2.9792,2.9792,2.9792,2.9792,2.9792,2.9792,2.9792,2.9792,2.9792,2.9792,2.9792,2.9792,2.9792,2.9792,2.9792,2.9792,2.9792,2.9792,2.9792,2.9792,2.9792,2.9792,2.9628,2.9365,2.9013,2.8737,2.8473,2.7921,2.7544,2.7278,2.7014,2.6738,2.6499,2.6499,2.6499,2.6449,2.6261,2.5633,2.4919,2.4478,2.3973,2.3475,2.3312,2.3264,2.3183,2.2853,2.2802,2.2761,2.2645,2.2703,2.292,2.3247,2.3418,2.3839,2.4809,2.4541,0.0,0.0,2.4734,2.4321,2.4321,2.4321,2.4321,2.4321,2.4321,2.4321,2.4321,2.4321,2.4321,2.4321,2.4478,2.4593,2.4593,2.4041,2.373,2.3671,2.339,2.3271,2.3271,2.3138,2.3108,2.3108,2.3108,2.3108,2.3108,2.3108,2.3108,2.3108,2.3108,2.3108,2.3108,2.3108,2.3108,2.3108,2.3108,2.3108,2.3108,3.7572,3.695,3.6334,3.6016,3.5507,3.5032,3.4688,3.4217,3.3698,3.3024,3.2554,3.1984,3.1165,3.0811,3.0444,3.0018,2.9867,2.9792,2.9792,2.9792,2.9792,2.9792,2.9792,2.9792,2.9792,2.9792,2.9792,2.9792,2.9792,2.9792,2.9792,2.9792,2.9792,2.9792,2.9792,2.9792,2.9792,2.9792,2.9792,2.9792,2.9792,2.9792,2.9741,2.9302,2.9126,2.9051,2.8499,2.8021,2.762,2.7369,2.704,2.6663,2.6571,2.6555,2.6589,2.6794,2.5941,2.4919,2.4849,2.4532,2.4253,2.4229,2.4176,2.416,2.407,2.4054,2.3995,2.3852,2.3923,2.4054,2.4141,2.4319,2.4722,2.5443,0.0,0.0,0.0,2.5315,2.4922,2.4922,2.4922,2.4922,2.4922,2.4922,2.4922,2.4922,2.4922,2.4922,2.4922,2.5147,2.53,2.53,2.4563,2.4141,2.4112,2.376,2.3539,2.3522,2.3318,2.3198,2.3168,2.3168,2.3138,2.3108,2.3108,2.3108,2.3108,2.3108,2.3108,2.3108,2.3108,2.3108,2.3108,2.3108,2.3108,2.3108,3.8202,3.7924,3.7567,3.6936,3.6624,3.6189,3.5426,3.4936,3.4454,3.4066,3.3184,3.2536,3.2447,3.1344,3.0595,3.0557,3.0093,2.9792,2.9792,2.9792,2.9792,2.9792,2.9792,2.9792,2.9792,2.9792,2.9792,2.9792,2.9792,2.9792,2.9792,2.9792,2.9792,2.9792,2.9792,2.9792,2.9792,2.9792,2.9792,2.9792,2.9792,2.9792,2.9792,2.9741,2.9729,2.9654,2.9076,2.88,2.8612,2.762,2.7256,2.7165,2.681,2.6679,2.6748,2.7134,2.7216,2.6881,2.5544,2.5256,2.5229,2.4627,2.4452,2.4452,2.4465,2.4465,2.4452,2.4423,2.4465,2.4551,2.4863,2.4948,2.5337,2.6497,0.0,0.0,2.6946,2.6561,2.6176,2.6176,2.6176,2.6176,2.6176,2.6176,2.6176,2.6176,2.6176,2.6176,2.6176,2.6203,2.6203,2.6203,2.5384,2.4863,2.4734,2.4276,2.3982,2.3861,2.3671,2.3509,2.3373,2.3373,2.3271,2.3108,2.3108,2.3108,2.3108,2.3108,2.3108,2.3108,2.3108,2.3108,2.3108,2.3108,2.3108,2.3108,3.8797,3.8516,3.8202,3.7924,3.7505,3.7095,3.6626,3.5964,3.5359,3.4936,3.4326,3.3734,3.3247,3.2752,3.2183,3.1474,3.1216,3.0868,3.0381,3.0356,3.0203,2.983,2.9792,2.9792,2.9792,2.9792,2.9792,2.9792,2.9792,2.9792,2.9792,2.9792,2.9792,2.9792,2.9792,2.9792,2.9792,2.9792,2.9792,2.9792,2.9792,2.9792,2.9792,2.9792,2.9792,2.9767,2.9541,2.9239,2.8825,2.8448,2.7846,2.7278,2.7253,2.7074,2.704,2.7855,2.8493,2.8705,2.7915,2.7005,2.6296,2.6245,2.5911,2.5577,2.5398,2.537,2.5314,2.5105,2.5217,2.5411,2.5522,2.5756,2.6199,2.7029,0.0,2.6648,2.7417,2.6955,2.6537,2.6537,2.6537,2.6537,2.6537,2.6537,2.6537,2.6537,2.6537,2.6537,2.6537,2.6671,2.6777,2.6855,2.6459,2.5948,2.537,2.4878,2.4536,2.4276,2.4102,2.391,2.3713,2.3713,2.3552,2.33,2.33,2.321,2.3108,2.3108,2.3108,2.3108,2.3108,2.3108,2.3108,2.3108,2.3108,2.3108,3.9177,3.8958,3.8738,3.8701,3.8277,3.7877,3.7634,3.6911,3.6282,3.5937,3.5359,3.4845,3.4324,3.3964,3.3462,3.2698,3.2303,3.1857,3.1312,3.1003,3.0571,2.9934,2.983,2.9792,2.9792,2.9792,2.9792,2.9792,2.9792,2.9792,2.9792,2.9792,2.9792,2.9792,2.9792,2.9792,2.9792,2.9792,2.9792,2.9792,2.9792,2.9792,2.9792,2.9792,2.9792,2.9792,2.9792,2.9566,2.924,2.9063,2.8595,2.8056,2.7959,2.7845,2.7881,2.872,2.9481,3.0013,2.9808,2.8857,2.7838,2.7493,2.709,2.6648,2.6247,2.615,2.6096,2.5851,2.6001,2.615,2.6218,2.6459,2.6828,2.7316,2.7132,2.7106,2.7586,2.7264,2.6997,2.6997,2.6997,2.6997,2.6997,2.6997,2.6997,2.6997,2.6997,2.6997,2.6997,2.7104,2.7248,2.7321,2.7196,2.6817,2.6177,2.5605,2.5188,2.4865,2.4709,2.4494,2.4229,2.42,2.3995,2.3628,2.3582,2.345,2.3258,2.3258,2.3228,2.3198,2.3198,2.3168,2.3108,2.3108,2.3108,2.3108,3.9388,3.9388,3.9337,3.9141,3.8943,3.8671,3.8277,3.7711,3.7211,3.6936,3.6215,3.5709,3.5709,3.4834,3.4206,3.4206,3.3178,3.2511,3.2497,3.1699,3.0872,3.0152,2.9934,2.9792,2.9792,2.9792,2.9792,2.9792,2.9792,2.9792,2.9792,2.9792,2.9792,2.9792,2.9792,2.9792,2.9792,2.9792,2.9792,2.9792,2.9792,2.9792,2.9792,2.9792,2.9792,2.9792,2.9792,2.9934,2.9986,2.9403,2.9473,2.9647,2.8878,2.8936,2.9387,2.973,3.019,3.0672,3.094,3.0658,2.9888,2.815,2.7721,2.7547,2.6854,2.6724,2.6724,2.6724,2.6709,2.6777,2.6977,2.7018,2.7107,2.735,2.7401,2.7437,2.7575,2.76,2.76,2.76,2.76,2.76,2.76,2.76,2.76,2.76,2.76,2.76,2.76,2.76,2.76,2.76,2.7463,2.735,2.7207,2.6459,2.5975,2.5702,2.5495,2.5286,2.5005,2.4863,2.4536,2.4102,2.3966,2.3789,2.3599,2.3599,2.3539,2.3403,2.3403,2.3271,2.3108,2.3108,2.3108,2.3108,3.9388,3.9388,3.9388,3.9301,3.9141,3.898,3.8848,3.8441,3.8052,3.7848,3.7491,3.7169,3.7053,3.6768,3.641,3.5975,3.5204,3.4282,3.3129,3.2296,3.1726,3.1505,3.0936,3.0584,3.0432,3.0432,3.0279,3.0011,3.0011,2.9934,2.9792,2.9792,2.9792,2.9792,2.9792,2.9792,2.9792,2.9792,2.9792,2.9792,2.9792,2.9792,2.9792,2.9792,2.9792,2.9792,2.9792,2.9934,3.0088,3.0062,3.003,3.0026,3.0048,3.058,3.1155,3.0917,3.1297,3.1722,3.1323,3.1173,3.0902,2.9911,2.9349,2.8963,2.8663,2.8577,2.855,2.8414,2.8115,2.7912,2.798,2.7672,2.7463,2.7539,2.7524,2.7549,2.76,2.76,2.76,2.76,2.76,2.76,2.76,2.76,2.76,2.76,2.76,2.76,2.76,2.76,2.76,2.76,2.7549,2.7488,2.735,2.6937,2.658,2.6244,2.6203,2.5974,2.5619,2.5481,2.5104,2.4578,2.4392,2.4189,2.3956,2.3956,2.3927,2.3897,2.3897,2.3806,2.3671,2.3671,2.3522,2.33,3.9388,3.9388,3.9388,3.9388,3.9301,3.9228,3.9228,3.8922,3.8701,3.8575,3.8315,3.8089,3.7962,3.7886,3.769,3.7316,3.6467,3.5389,3.4093,3.3325,3.2854,3.2783,3.2367,3.1763,3.1035,3.0936,3.0785,3.0545,3.0482,3.0381,3.0279,3.0279,3.0241,3.0177,3.0177,3.0062,2.9934,2.9934,2.9869,2.9792,2.9792,2.9792,2.9792,2.9792,2.9792,2.9792,2.9908,3.0088,3.0381,3.0672,3.085,3.1032,3.1535,3.2008,3.235,3.2145,3.2414,3.2616,3.1946,3.1826,3.1735,3.1047,3.0417,2.9879,2.9543,2.9483,2.9429,2.9305,2.9062,2.8875,2.8875,2.8401,2.8004,2.8004,2.7779,2.76,2.76,2.76,2.76,2.76,2.76,2.76,2.76,2.76,2.76,2.76,2.76,2.76,2.76,2.76,2.76,2.76,2.76,2.7549,2.7488,2.731,2.7078,2.6788,2.6788,2.6604,2.634,2.6096,2.577,2.5314,2.5062,2.4836,2.4595,2.4595,2.4551,2.445,2.445,2.4347,2.4128,2.407,2.3894,2.3675,3.9388,3.9388,3.9388,3.9388,3.9388,3.9388,3.9388,3.9228,3.9141,3.9141,3.8811,3.859,3.859,3.8441,3.8315,3.8315,3.7172,3.6098,3.5247,3.4605,3.4142,3.3899,3.3865,3.3192,3.1796,3.1516,3.1331,3.127,3.1147,3.1099,3.1048,3.1048,3.0949,3.0761,3.0773,3.0533,3.019,3.019,3.0075,2.9908,2.9908,2.9869,2.9869,2.9869,2.9869,2.9869,3.0088,3.0432,3.0849,3.1272,3.1891,3.2568,3.3116,3.3252,3.323,3.3326,3.3481,3.344,3.2781,3.2557,3.2333,3.1735,3.1077,3.0447,2.9906,2.9786,2.9786,2.9786,2.9726,2.9696,2.9696,2.9131,2.8682,2.8682,2.8139,2.769,2.769,2.763,2.76,2.76,2.76,2.76,2.76,2.76,2.76,2.76,2.76,2.76,2.76,2.76,2.76,2.76,2.76,2.76,2.76,2.76,2.7473,2.7233,2.7233,2.717,2.7029,2.6724,2.6418,2.6138,2.5893,2.5646,2.5481,2.5481,2.5342,2.5118,2.5118,2.4935,2.4595,2.4494,2.4321,2.416,3.9388,3.9388,3.9388,3.9388,3.9388,3.9388,3.9388,3.9337,3.9337,3.9337,3.9265,3.9192,3.9192,3.9156,3.9156,3.9156,3.832,3.7251,3.6049,3.5541,3.5044,3.453,3.4366,3.4113,3.3791,3.315,3.2547,3.1896,3.1873,3.169,3.1381,3.1381,3.1381,3.1307,3.1158,3.1046,3.0934,3.0861,3.0761,3.0723,3.0584,3.0508,3.0508,3.0343,3.0254,3.0305,3.0508,3.0836,3.131,3.2309,3.3101,3.3776,3.4062,3.4409,3.4614,3.4159,3.4137,3.4159,3.3469,3.2901,3.2482,3.2303,3.178,3.1241,3.1122,3.1077,3.1077,3.1077,3.0687,3.0298,3.0298,2.9789,2.937,2.937,2.8801,2.8368,2.8368,2.7944,2.76,2.76,2.76,2.76,2.76,2.76,2.76,2.76,2.76,2.76,2.76,2.76,2.76,2.76,2.76,2.76,2.76,2.76,2.7575,2.7524,2.7524,2.7423,2.7299,2.713,2.6867,2.6551,2.6404,2.6244,2.6095,2.6095,2.6068,2.6014,2.6014,2.5838,2.5578,2.5578,2.5244,2.4736,3.9388,3.9388,3.9388,3.9388,3.9388,3.9388,3.9388,3.9388,3.9388,3.9388,3.9388,3.9388,3.9388,3.9388,3.9388,3.9388,3.8725,3.8018,3.7297,3.6768,3.6305,3.6014,3.5617,3.5354,3.5272,3.4578,3.3811,3.3066,3.296,3.2804,3.2613,3.2613,3.2519,3.2354,3.2245,3.1992,3.1603,3.1542,3.1408,3.1209,3.111,3.1035,3.0923,3.0835,3.0797,3.0835,3.1134,3.1713,3.2461,3.3269,3.3942,3.4534,3.4716,3.5049,3.5285,3.4927,3.4887,3.4816,3.4143,3.3709,3.338,3.3066,3.2452,3.1884,3.157,3.1511,3.1511,3.1511,3.1212,3.0972,3.0972,3.0462,3.0028,3.0028,2.949,2.8966,2.8637,2.8293,2.7959,2.763,2.76,2.76,2.76,2.76,2.76,2.76,2.76,2.76,2.76,2.76,2.76,2.76,2.76,2.76,2.76,2.76,2.76,2.76,2.76,2.7549,2.7488,2.7361,2.7207,2.7037,2.6893,2.6788,2.6736,2.6736,2.6683,2.6674,2.6963,2.673,2.6328,2.6559,2.6105,2.5258,3.9388,3.9388,3.9388,3.9388,3.9388,3.9388,3.9388,3.9388,3.9388,3.9388,3.9388,3.9388,3.9388,3.9388,3.9388,3.9388,3.8901,3.8512,3.8407,3.7883,3.7524,3.7404,3.6911,3.6574,3.6424,3.5751,3.5005,3.4187,3.4051,3.3948,3.3899,3.3899,3.3742,3.3479,3.3444,3.3094,3.2439,3.2403,3.2209,3.1905,3.1833,3.17,3.1553,3.1479,3.1442,3.1516,3.1905,3.272,3.3693,3.4079,3.4534,3.4968,3.5148,3.5326,3.5504,3.5504,3.5504,3.5385,3.4801,3.4593,3.4384,3.3799,3.317,3.2542,3.1959,3.166,3.1511,3.1511,3.1511,3.1511,3.1511,3.1032,3.0672,3.0672,3.0148,2.9549,2.8996,2.8831,2.8547,2.8004,2.7839,2.7764,2.7764,2.766,2.76,2.76,2.76,2.76,2.76,2.76,2.76,2.76,2.76,2.76,2.76,2.76,2.76,2.76,2.76,2.76,2.76,2.7488,2.7412,2.7427,2.7428,2.7421,2.7436,2.7565,2.7546,2.7489,2.7988,2.7703,2.7018,2.7306,2.6754,2.577,3.9388,3.9388,3.9388,3.9388,3.9388,3.9388,3.9388,3.9388,3.9388,3.9388,3.9388,3.9388,3.9388,3.9388,3.9388,3.9388,3.9298,3.9035,3.8422,3.8302,3.8003,3.7434,3.733,3.7285,3.7251,3.6638,3.5759,3.4616,3.4582,3.4481,3.4332,3.4332,3.4298,3.423,3.4065,3.3934,3.3831,3.3659,3.3541,3.3471,3.3185,3.3058,3.2974,3.2618,3.2511,3.2547,3.2938,3.3618,3.4298,3.4549,3.4865,3.5148,3.518,3.5326,3.5504,3.5504,3.5504,3.5489,3.5385,3.4936,3.4488,3.4399,3.3844,3.3335,3.3245,3.2318,3.1511,3.1511,3.1511,3.1511,3.1511,3.1436,3.1361,3.1361,3.0821,3.0357,3.0253,2.9789,2.9442,2.9352,2.8801,2.8457,2.8457,2.7944,2.76,2.76,2.76,2.76,2.76,2.76,2.76,2.76,2.76,2.76,2.76,2.76,2.76,2.76,2.76,2.76,2.76,2.7575,2.7575,2.7604,2.8177,2.8405,2.845,2.9032,2.9256,2.9244,2.9334,2.8866,2.8068,2.7348,2.677,2.6351,3.9388,3.9388,3.9388,3.9388,3.9388,3.9388,3.9388,3.9388,3.9388,3.9388,3.9388,3.9388,3.9388,3.9388,3.9388,3.9388,3.9388,3.9254,3.899,3.896,3.8841,3.8542,3.8167,3.7958,3.7958,3.733,3.6585,3.5711,3.534,3.5096,3.503,3.503,3.4949,3.485,3.4754,3.462,3.4433,3.4351,3.4249,3.4113,3.3977,3.3859,3.3742,3.3555,3.3485,3.352,3.3942,3.4399,3.485,3.4949,3.5162,3.5359,3.5359,3.5439,3.5504,3.5504,3.5504,3.5504,3.5504,3.528,3.5055,3.5055,3.4547,3.4038,3.4038,3.3305,3.2497,3.2123,3.1765,3.1511,3.1511,3.1511,3.1511,3.1511,3.1256,3.0913,3.0552,3.0268,2.9968,2.9651,2.9352,2.9146,2.9146,2.8903,2.8573,2.8173,2.8169,2.8004,2.7615,2.76,2.76,2.76,2.76,2.7779,2.8143,2.8169,2.8364,2.8723,2.8723,2.8528,2.8169,2.8169,2.8378,2.8738,2.9037,2.9146,2.9175,2.9487,2.9606,2.9636,2.9968,2.9687,2.8964,2.8109,2.7412,2.6855]}]]